[[{"header":{"parameterUnit":"m.s-1","parameterCategory":1,"la1":30.6,"la2":28.766,"lo1":-90.7593,"lo2":-88.6598,"dy":0.0162,"dx":0.0183,"nx":116,"ny":114,"refTime":"2023-10-26T18:00:00:Z","depth":0,"parameterNumber":2,"parameterNumberName":"U-component_of_WINDS"},"data":[0.0,0.0,0.0,0.0,0.0,0.0,0.0,0.0,0.0,0.0,0.0,0.0,0.0,0.0,0.0,0.0,0.0,0.0,0.0,0.0,0.0,0.0,0.0,0.0,0.0,0.0,0.0,0.0,0.0,0.0,0.0,0.0,0.0,0.0,0.0,0.0,0.0,0.0,0.0,0.0,0.0,0.0,0.0,0.0,0.0,0.0,0.0,0.0,0.0,0.0,0.0,0.0,0.0,0.0,0.0,0.0,0.0,0.0,0.0,0.0,0.0,0.0,0.0,0.0,0.0,0.0,0.0,0.0,0.0,0.0,0.0,0.0,0.0,0.0,0.0,0.0,0.0,0.0,0.0,0.0,0.0,0.0,0.0,0.0,0.0,0.0,0.0,0.0,0.0,0.0,0.0,0.0,0.0,0.0,0.0,0.0,0.0,0.0,0.0,0.0,0.0,0.0,0.0,0.0,0.0,0.0,0.0,0.0,0.0,0.0,0.0,0.0,0.0,0.0,0.0,0.0,0.0,0.0,0.0,0.0,0.0,0.0,0.0,0.0,0.0,0.0,0.0,0.0,0.0,0.0,0.0,0.0,0.0,0.0,0.0,0.0,0.0,0.0,0.0,0.0,0.0,0.0,0.0,0.0,0.0,0.0,0.0,0.0,0.0,0.0,0.0,0.0,0.0,0.0,0.0,0.0,0.0,0.0,0.0,0.0,0.0,0.0,0.0,0.0,0.0,0.0,0.0,0.0,0.0,0.0,0.0,0.0,0.0,0.0,0.0,0.0,0.0,0.0,0.0,0.0,0.0,0.0,0.0,0.0,0.0,0.0,0.0,0.0,0.0,0.0,0.0,0.0,0.0,0.0,0.0,0.0,0.0,0.0,0.0,0.0,0.0,0.0,0.0,0.0,0.0,0.0,0.0,0.0,0.0,0.0,0.0,0.0,0.0,0.0,0.0,0.0,0.0,0.0,0.0,0.0,0.0,0.0,0.0,0.0,0.0,0.0,0.0,0.0,0.0,0.0,0.0,0.0,0.0,0.0,0.0,0.0,0.0,0.0,0.0,0.0,0.0,0.0,0.0,0.0,0.0,0.0,0.0,0.0,0.0,0.0,0.0,0.0,0.0,0.0,0.0,0.0,0.0,0.0,0.0,0.0,0.0,0.0,0.0,0.0,0.0,0.0,0.0,0.0,0.0,0.0,0.0,0.0,0.0,0.0,0.0,0.0,0.0,0.0,0.0,0.0,0.0,0.0,0.0,0.0,0.0,0.0,0.0,0.0,0.0,0.0,0.0,0.0,0.0,0.0,0.0,0.0,0.0,0.0,0.0,0.0,0.0,0.0,0.0,0.0,0.0,0.0,0.0,0.0,0.0,0.0,0.0,0.0,0.0,0.0,0.0,0.0,0.0,0.0,0.0,0.0,0.0,0.0,0.0,0.0,0.0,0.0,0.0,0.0,0.0,0.0,0.0,0.0,0.0,0.0,0.0,0.0,0.0,0.0,0.0,0.0,0.0,0.0,0.0,0.0,0.0,0.0,0.0,0.0,0.0,0.0,0.0,0.0,0.0,0.0,0.0,0.0,0.0,0.0,0.0,0.0,0.0,0.0,0.0,0.0,0.0,0.0,0.0,0.0,0.0,0.0,0.0,0.0,0.0,0.0,0.0,0.0,0.0,0.0,0.0,0.0,0.0,0.0,0.0,0.0,0.0,0.0,0.0,0.0,0.0,0.0,0.0,0.0,0.0,0.0,0.0,0.0,0.0,0.0,0.0,0.0,0.0,0.0,0.0,0.0,0.0,0.0,0.0,0.0,0.0,0.0,0.0,0.0,0.0,0.0,0.0,0.0,0.0,0.0,0.0,0.0,0.0,0.0,0.0,0.0,0.0,0.0,0.0,0.0,0.0,0.0,0.0,0.0,0.0,0.0,0.0,0.0,0.0,0.0,0.0,0.0,0.0,0.0,0.0,0.0,0.0,0.0,0.0,0.0,0.0,0.0,0.0,0.0,0.0,0.0,0.0,0.0,0.0,0.0,0.0,0.0,0.0,0.0,0.0,0.0,0.0,0.0,0.0,0.0,0.0,0.0,0.0,0.0,0.0,0.0,0.0,0.0,0.0,0.0,0.0,0.0,0.0,0.0,0.0,0.0,0.0,0.0,0.0,0.0,0.0,0.0,0.0,0.0,0.0,0.0,0.0,0.0,0.0,0.0,0.0,0.0,0.0,0.0,0.0,0.0,0.0,0.0,0.0,0.0,0.0,0.0,0.0,0.0,0.0,0.0,0.0,0.0,0.0,0.0,0.0,0.0,0.0,0.0,0.0,0.0,0.0,0.0,0.0,0.0,0.0,0.0,0.0,0.0,0.0,0.0,0.0,0.0,0.0,0.0,0.0,0.0,0.0,0.0,0.0,0.0,0.0,0.0,0.0,0.0,0.0,0.0,0.0,0.0,0.0,0.0,0.0,0.0,0.0,0.0,0.0,0.0,0.0,0.0,0.0,0.0,0.0,0.0,0.0,0.0,0.0,0.0,0.0,0.0,0.0,0.0,0.0,0.0,0.0,0.0,0.0,0.0,0.0,0.0,0.0,0.0,0.0,0.0,0.0,0.0,0.0,0.0,0.0,0.0,0.0,0.0,0.0,0.0,0.0,0.0,0.0,0.0,0.0,0.0,0.0,0.0,0.0,0.0,0.0,0.0,0.0,0.0,0.0,0.0,0.0,0.0,0.0,0.0,0.0,0.0,0.0,0.0,0.0,0.0,0.0,0.0,0.0,0.0,0.0,0.0,0.0,0.0,0.0,0.0,0.0,0.0,0.0,0.0,0.0,0.0,0.0,0.0,0.0,0.0,0.0,0.0,0.0,0.0,0.0,0.0,0.0,0.0,0.0,0.0,0.0,0.0,0.0,0.0,0.0,0.0,0.0,0.0,0.0,0.0,0.0,0.0,0.0,0.0,0.0,0.0,0.0,0.0,0.0,0.0,0.0,0.0,0.0,0.0,0.0,0.0,0.0,0.0,0.0,0.0,0.0,0.0,0.0,0.0,0.0,0.0,0.0,0.0,0.0,0.0,0.0,0.0,0.0,0.0,0.0,0.0,0.0,0.0,0.0,0.0,0.0,0.0,0.0,0.0,0.0,0.0,0.0,0.0,0.0,0.0,0.0,0.0,0.0,0.0,0.0,0.0,0.0,0.0,0.0,0.0,0.0,0.0,0.0,0.0,0.0,0.0,0.0,0.0,0.0,0.0,0.0,0.0,0.0,0.0,0.0,0.0,0.0,0.0,0.0,0.0,0.0,0.0,0.0,0.0,0.0,0.0,0.0,0.0,0.0,0.0,0.0,0.0,0.0,0.0,0.0,0.0,0.0,0.0,0.0,0.0,0.0,0.0,0.0,0.0,0.0,0.0,0.0,0.0,0.0,0.0,0.0,0.0,0.0,0.0,0.0,0.0,0.0,0.0,0.0,0.0,0.0,0.0,0.0,0.0,0.0,0.0,0.0,0.0,0.0,0.0,0.0,0.0,0.0,0.0,0.0,0.0,0.0,0.0,0.0,0.0,0.0,0.0,0.0,0.0,0.0,0.0,0.0,0.0,0.0,0.0,0.0,0.0,0.0,0.0,0.0,0.0,0.0,0.0,0.0,0.0,0.0,0.0,0.0,0.0,0.0,0.0,0.0,0.0,0.0,0.0,0.0,0.0,0.0,0.0,0.0,0.0,0.0,0.0,0.0,0.0,0.0,0.0,0.0,0.0,0.0,0.0,0.0,0.0,0.0,0.0,0.0,0.0,0.0,0.0,0.0,0.0,0.0,0.0,0.0,0.0,0.0,0.0,0.0,0.0,0.0,0.0,0.0,0.0,0.0,0.0,0.0,0.0,0.0,0.0,0.0,0.0,0.0,0.0,0.0,0.0,0.0,0.0,0.0,0.0,0.0,0.0,0.0,0.0,0.0,0.0,0.0,0.0,0.0,0.0,0.0,0.0,0.0,0.0,0.0,0.0,0.0,0.0,0.0,0.0,0.0,0.0,0.0,0.0,0.0,0.0,0.0,0.0,0.0,0.0,0.0,0.0,0.0,0.0,0.0,0.0,0.0,0.0,0.0,0.0,0.0,0.0,0.0,0.0,0.0,0.0,0.0,0.0,0.0,0.0,0.0,0.0,0.0,0.0,0.0,0.0,0.0,0.0,0.0,0.0,0.0,0.0,0.0,0.0,0.0,0.0,0.0,0.0,0.0,0.0,0.0,0.0,0.0,0.0,0.0,0.0,0.0,0.0,0.0,0.0,0.0,0.0,0.0,0.0,0.0,0.0,0.0,0.0,0.0,0.0,0.0,0.0,0.0,0.0,0.0,0.0,0.0,0.0,0.0,0.0,0.0,0.0,0.0,0.0,0.0,0.0,0.0,0.0,0.0,0.0,0.0,0.0,0.0,0.0,0.0,0.0,0.0,0.0,0.0,0.0,0.0,0.0,0.0,0.0,0.0,0.0,0.0,0.0,0.0,0.0,0.0,0.0,0.0,0.0,0.0,0.0,0.0,0.0,0.0,0.0,0.0,0.0,0.0,0.0,0.0,0.0,0.0,0.0,0.0,0.0,0.0,0.0,0.0,0.0,0.0,0.0,0.0,0.0,0.0,0.0,0.0,0.0,0.0,0.0,0.0,0.0,0.0,0.0,0.0,0.0,0.0,0.0,0.0,0.0,0.0,0.0,0.0,0.0,0.0,0.0,0.0,0.0,0.0,0.0,0.0,0.0,0.0,0.0,0.0,0.0,0.0,0.0,0.0,0.0,0.0,0.0,0.0,0.0,0.0,0.0,0.0,0.0,0.0,0.0,0.0,0.0,0.0,0.0,0.0,0.0,0.0,0.0,0.0,0.0,0.0,0.0,0.0,0.0,0.0,0.0,0.0,0.0,0.0,0.0,0.0,0.0,0.0,0.0,0.0,0.0,0.0,0.0,0.0,0.0,0.0,0.0,0.0,0.0,0.0,0.0,0.0,0.0,0.0,0.0,0.0,0.0,0.0,0.0,0.0,0.0,0.0,0.0,0.0,0.0,0.0,0.0,0.0,0.0,0.0,0.0,0.0,0.0,0.0,0.0,0.0,0.0,0.0,0.0,0.0,0.0,0.0,0.0,0.0,0.0,0.0,0.0,0.0,0.0,0.0,0.0,0.0,0.0,0.0,0.0,0.0,0.0,0.0,0.0,0.0,0.0,0.0,0.0,0.0,0.0,0.0,0.0,0.0,0.0,0.0,0.0,0.0,0.0,0.0,0.0,0.0,0.0,0.0,0.0,0.0,0.0,0.0,0.0,0.0,0.0,0.0,0.0,0.0,0.0,0.0,0.0,0.0,0.0,0.0,0.0,0.0,0.0,0.0,0.0,0.0,0.0,0.0,0.0,0.0,0.0,0.0,0.0,0.0,0.0,0.0,0.0,0.0,0.0,0.0,0.0,0.0,0.0,0.0,0.0,0.0,0.0,0.0,0.0,0.0,0.0,0.0,0.0,0.0,0.0,0.0,0.0,0.0,0.0,0.0,0.0,0.0,0.0,0.0,0.0,0.0,0.0,0.0,0.0,0.0,0.0,0.0,0.0,0.0,0.0,0.0,0.0,0.0,0.0,0.0,0.0,0.0,0.0,0.0,0.0,0.0,0.0,0.0,0.0,0.0,0.0,0.0,0.0,0.0,0.0,0.0,0.0,0.0,0.0,0.0,0.0,0.0,0.0,0.0,0.0,0.0,0.0,0.0,0.0,0.0,0.0,0.0,0.0,0.0,0.0,0.0,0.0,0.0,0.0,0.0,0.0,0.0,0.0,0.0,0.0,0.0,0.0,0.0,0.0,0.0,0.0,0.0,0.0,0.0,0.0,0.0,0.0,0.0,0.0,0.0,0.0,0.0,0.0,0.0,0.0,0.0,0.0,0.0,0.0,0.0,0.0,0.0,0.0,0.0,0.0,0.0,0.0,0.0,0.0,0.0,0.0,0.0,0.0,0.0,0.0,0.0,0.0,0.0,0.0,0.0,0.0,0.0,0.0,0.0,0.0,0.0,0.0,0.0,0.0,0.0,0.0,0.0,0.0,0.0,0.0,0.0,0.0,0.0,0.0,0.0,0.0,6.6836,0.0,0.0,0.0,0.0,0.0,0.0,0.0,0.0,0.0,0.0,0.0,0.0,0.0,0.0,0.0,0.0,0.0,0.0,0.0,0.0,0.0,0.0,0.0,0.0,0.0,0.0,0.0,0.0,0.0,0.0,0.0,0.0,0.0,0.0,0.0,0.0,0.0,0.0,0.0,6.1719,6.1719,6.1719,6.1719,6.1719,6.1719,0.0,0.0,0.0,0.0,0.0,0.0,0.0,0.0,0.0,0.0,0.0,0.0,0.0,0.0,0.0,0.0,0.0,0.0,0.0,0.0,0.0,0.0,0.0,0.0,0.0,0.0,0.0,0.0,0.0,0.0,0.0,0.0,0.0,0.0,0.0,0.0,0.0,0.0,0.0,0.0,0.0,0.0,0.0,0.0,0.0,0.0,0.0,0.0,0.0,0.0,0.0,0.0,0.0,0.0,0.0,0.0,0.0,0.0,0.0,0.0,0.0,0.0,0.0,0.0,0.0,0.0,0.0,0.0,0.0,0.0,0.0,6.664,0.0,0.0,0.0,0.0,0.0,0.0,0.0,0.0,0.0,0.0,0.0,0.0,0.0,0.0,0.0,0.0,0.0,0.0,0.0,0.0,0.0,0.0,0.0,0.0,6.0937,6.164,6.1719,6.1719,0.0,0.0,0.0,0.0,0.0,0.0,0.0,6.1719,6.1719,6.1719,6.1719,6.1719,6.1719,6.1719,6.1719,6.1719,6.1719,0.0,0.0,0.0,0.0,0.0,0.0,0.0,0.0,0.0,0.0,0.0,0.0,0.0,0.0,0.0,0.0,0.0,0.0,0.0,0.0,0.0,0.0,0.0,0.0,0.0,0.0,0.0,0.0,0.0,0.0,0.0,0.0,0.0,0.0,0.0,0.0,0.0,0.0,0.0,0.0,0.0,0.0,0.0,0.0,0.0,0.0,0.0,0.0,0.0,0.0,0.0,0.0,0.0,0.0,0.0,0.0,0.0,0.0,0.0,0.0,0.0,0.0,0.0,0.0,6.6414,6.6414,6.6414,6.6411,6.6399,6.6389,6.6414,6.6414,0.0,0.0,0.0,0.0,0.0,0.0,0.0,0.0,0.0,0.0,0.0,0.0,0.0,0.0,0.0,0.0,0.0,0.0,0.0,0.0,0.0,0.0,6.1094,6.1562,6.168,6.1719,6.1719,0.0,0.0,0.0,0.0,0.0,0.0,6.1719,6.1719,6.1719,6.1719,6.1719,6.1719,6.1719,6.1719,6.1719,6.1719,6.1719,6.1719,6.1719,0.0,0.0,0.0,0.0,0.0,0.0,0.0,0.0,0.0,0.0,0.0,0.0,0.0,0.0,0.0,0.0,0.0,0.0,0.0,0.0,0.0,0.0,0.0,0.0,0.0,0.0,0.0,0.0,0.0,0.0,0.0,0.0,0.0,0.0,0.0,0.0,0.0,0.0,0.0,0.0,0.0,6.418,6.4297,0.0,0.0,0.0,0.0,0.0,0.0,0.0,0.0,0.0,0.0,0.0,0.0,0.0,0.0,6.664,6.6601,6.6554,6.6429,6.6428,6.6389,6.6389,6.6389,6.6381,6.6387,6.6399,0.0,6.6389,6.6429,0.0,0.0,0.0,0.0,0.0,0.0,0.0,0.0,0.0,0.0,0.0,0.0,0.0,0.0,0.0,0.0,0.0,0.0,0.0,0.0,0.0,6.1484,6.1719,6.1719,6.1719,6.1719,6.1719,0.0,0.0,0.0,0.0,6.1719,6.1719,6.1719,6.1719,6.1719,6.1719,6.1719,6.1719,6.1719,6.1719,6.1719,6.1719,6.1719,6.1719,6.1601,0.0,0.0,0.0,0.0,0.0,0.0,0.0,0.0,0.0,0.0,0.0,0.0,0.0,0.0,0.0,0.0,0.0,0.0,0.0,0.0,0.0,0.0,0.0,0.0,0.0,0.0,0.0,0.0,0.0,0.0,0.0,0.0,0.0,0.0,0.0,0.0,0.0,0.0,0.0,6.4805,6.5195,6.5703,6.6094,6.6328,0.0,0.0,0.0,0.0,0.0,0.0,0.0,0.0,0.0,6.6914,6.6797,6.668,6.6601,6.6539,6.6406,6.6218,6.6218,6.6179,6.6138,6.6138,6.6138,6.6138,6.6138,6.6138,6.6139,6.6416,6.6539,6.6598,0.0,0.0,0.0,0.0,0.0,6.6714,0.0,0.0,0.0,0.0,0.0,0.0,0.0,0.0,0.0,0.0,0.0,0.0,6.164,6.1719,6.1719,6.1719,6.1719,6.1719,6.1719,6.1719,0.0,0.0,6.1719,6.1719,6.1719,6.1719,6.1719,6.1719,6.1719,6.1719,6.1719,6.1719,6.1719,6.1719,6.1719,6.168,6.164,6.1523,6.1553,6.1586,0.0,0.0,0.0,0.0,0.0,0.0,0.0,0.0,0.0,0.0,0.0,0.0,0.0,0.0,0.0,0.0,0.0,0.0,0.0,0.0,0.0,0.0,0.0,0.0,0.0,0.0,0.0,0.0,0.0,0.0,0.0,0.0,0.0,0.0,0.0,0.0,0.0,6.5781,6.6172,6.6836,6.6914,6.6914,0.0,0.0,0.0,0.0,0.0,0.0,6.6914,6.6836,6.6836,6.6914,6.6719,6.6595,6.6536,6.664,6.6598,6.6352,6.6576,6.6654,6.6535,6.6575,6.6575,6.6575,6.6654,6.6655,6.664,6.6479,6.6428,6.6506,6.6649,6.6758,0.0,6.6797,6.6733,6.6655,0.0,0.0,0.0,0.0,0.0,0.0,0.0,0.0,0.0,0.0,0.0,6.164,6.1719,6.1719,6.1719,6.1719,6.1719,6.1719,6.1719,6.1719,6.1719,6.1719,6.1719,6.1719,6.1719,6.1719,6.1719,6.1719,6.1719,6.1719,6.1719,6.1719,6.1719,6.1719,6.1719,6.164,6.1523,6.1484,6.1437,6.1328,6.1462,0.0,0.0,0.0,0.0,0.0,0.0,0.0,0.0,0.0,0.0,0.0,0.0,0.0,0.0,0.0,0.0,0.0,0.0,0.0,0.0,0.0,0.0,0.0,0.0,0.0,0.0,0.0,0.0,0.0,0.0,0.0,0.0,0.0,0.0,0.0,0.0,0.0,0.0,6.6875,6.6914,0.0,0.0,0.0,0.0,6.6914,6.6914,6.6914,6.6914,6.6719,6.6719,6.6875,6.6719,6.6546,6.641,6.7144,6.7362,6.7067,6.7881,6.828,6.828,6.8398,6.8477,6.8477,6.8676,6.8754,6.8611,6.6698,6.6027,6.6112,6.6141,6.6328,6.6601,6.6484,6.6615,6.6852,0.0,0.0,0.0,0.0,0.0,0.0,0.0,0.0,6.1367,6.164,6.1719,6.1719,6.1719,6.1719,6.1719,6.1719,6.1719,6.1719,6.1719,6.1719,6.1719,6.1719,6.1719,6.1719,6.1719,6.1719,6.1719,6.1719,6.1719,6.1719,6.1719,6.1719,6.1719,6.1719,6.1719,6.164,6.1483,6.1404,6.1346,6.1298,6.1209,6.1307,0.0,0.0,0.0,0.0,0.0,0.0,0.0,0.0,0.0,0.0,0.0,0.0,0.0,0.0,0.0,0.0,0.0,0.0,0.0,0.0,0.0,0.0,0.0,0.0,0.0,0.0,0.0,0.0,0.0,0.0,0.0,0.0,0.0,0.0,0.0,0.0,0.0,6.6914,6.6914,0.0,6.6914,6.6914,6.6914,6.6914,6.6914,6.6914,6.6914,6.6836,6.7031,6.7536,6.7332,6.7425,6.7796,6.81,6.8141,6.7959,6.8323,6.8774,6.9249,6.9289,6.9603,7.0059,6.9597,6.9408,6.9327,6.8055,6.7663,6.7884,6.7886,6.7963,6.8079,6.8017,6.7994,6.7981,0.0,0.0,0.0,0.0,0.0,0.0,0.0,0.0,6.1719,6.1719,6.1719,6.1719,6.1719,6.1719,6.1719,6.1719,6.1719,6.1719,6.1719,6.1719,6.1719,6.1719,6.1719,6.1719,6.1719,6.1719,6.1719,6.1719,6.1992,6.2148,6.2148,6.2422,6.2578,6.2578,6.2578,6.2344,6.1912,6.1833,6.1577,6.118,6.114,6.1178,6.1354,0.0,0.0,0.0,0.0,0.0,0.0,0.0,0.0,0.0,0.0,0.0,0.0,0.0,0.0,0.0,0.0,0.0,0.0,0.0,0.0,0.0,0.0,0.0,0.0,0.0,0.0,0.0,0.0,0.0,0.0,0.0,0.0,0.0,0.0,0.0,6.6914,6.6914,6.6914,6.6914,6.6914,6.6914,6.6914,6.6914,6.6914,6.7031,6.7305,6.7265,6.7576,6.8337,6.8143,6.8365,6.9042,6.9312,6.955,6.9707,7.0065,7.0502,7.0977,7.0981,7.128,7.1739,7.1194,7.0984,7.0935,7.0343,7.025,7.035,6.9167,6.8755,6.8814,6.8812,6.8747,6.8726,0.0,0.0,0.0,0.0,0.0,0.0,0.0,6.1719,6.1719,6.1719,6.1719,6.1719,6.1719,6.1719,6.1719,6.1719,6.1719,6.1719,6.1719,6.1719,6.1719,6.1719,6.1719,6.1719,6.1719,6.1719,6.1758,6.1758,6.2617,6.3047,6.3047,6.3906,6.4297,6.4297,6.4297,6.375,6.285,6.2844,6.2148,6.1075,6.1236,6.118,6.1032,0.0,0.0,0.0,0.0,0.0,0.0,0.0,0.0,0.0,0.0,0.0,0.0,0.0,0.0,0.0,0.0,0.0,0.0,0.0,0.0,0.0,0.0,0.0,0.0,0.0,0.0,0.0,0.0,0.0,0.0,0.0,0.0,0.0,6.6914,6.6914,6.6914,6.6914,6.6914,6.6914,6.6914,6.6914,6.6953,6.6953,6.6953,6.7344,6.8203,6.8047,6.8359,6.9219,6.9055,6.9311,7.0025,7.0855,7.1608,7.2248,7.3118,7.3514,7.3545,7.3524,7.3554,7.3594,7.3554,7.3535,7.3542,7.3519,7.3514,7.317,6.9861,6.8633,6.8752,6.8752,6.8872,6.9018,0.0,0.0,0.0,0.0,0.0,0.0,0.0,6.164,6.1719,6.1719,6.1719,6.1719,6.1719,6.1719,6.1719,6.1719,6.1719,6.1719,6.1719,6.1719,6.1719,6.1719,6.1719,6.1719,6.1719,6.2305,6.2656,6.2656,6.3515,6.3945,6.3945,6.418,6.4297,6.4297,6.4297,6.414,6.3867,6.3793,6.3134,6.2094,6.1352,6.1062,6.102,0.0,0.0,0.0,0.0,0.0,0.0,0.0,0.0,0.0,0.0,0.0,0.0,0.0,0.0,0.0,0.0,0.0,0.0,0.0,0.0,0.0,0.0,0.0,0.0,0.0,0.0,0.0,0.0,0.0,0.0,0.0,0.0,6.6914,6.6914,6.6914,6.6914,6.6914,6.6914,6.6914,6.6914,6.7461,6.7851,6.7851,6.8437,6.8828,6.8906,6.8867,6.9414,7.0625,7.0588,7.1176,7.2485,7.2766,7.2965,7.3159,7.3396,7.3792,7.4353,7.4363,7.4705,7.5262,7.4627,7.4365,7.4311,7.3726,7.3492,7.3398,7.2475,7.2129,7.2133,7.214,7.1892,7.1402,0.0,0.0,0.0,0.0,0.0,0.0,0.0,6.164,6.1719,6.1719,6.1719,6.1719,6.1719,6.1719,6.1719,6.1719,6.1719,6.1719,6.1719,6.1719,6.1719,6.1719,6.1719,6.1875,6.2226,6.2734,6.3164,6.3555,6.4414,6.4844,6.4844,6.5234,6.539,6.539,6.539,6.5195,6.4844,6.4687,6.4035,6.3028,6.2344,6.1617,6.0904,6.0982,6.1066,6.1203,6.1281,6.1321,6.1399,6.1477,0.0,0.0,0.0,0.0,0.0,0.0,0.0,0.0,0.0,0.0,0.0,0.0,0.0,0.0,0.0,0.0,0.0,0.0,0.0,0.0,0.0,0.0,0.0,0.0,6.6914,6.6914,6.6914,6.6914,6.7031,6.7383,6.7422,6.7578,6.7969,6.8437,6.8711,6.8711,6.9492,7.0078,7.0234,7.0585,7.1253,7.2232,7.225,7.2815,7.4004,7.3984,7.4381,7.5075,7.5075,7.5519,7.6293,7.6293,7.657,0.0,7.6491,7.6308,7.6267,7.5776,7.5407,0.0,0.0,0.0,0.0,0.0,7.325,7.2844,0.0,0.0,0.0,0.0,0.0,0.0,0.0,6.1719,6.1719,6.1719,6.1719,6.1719,6.1719,6.1719,6.1719,6.1719,6.1719,6.1719,6.1719,6.1719,6.1719,6.1719,6.1797,6.2226,6.2969,6.3203,6.3672,6.4453,6.5312,6.5742,6.5742,6.6523,6.6914,6.6914,6.6914,6.6484,6.5742,6.5508,6.4845,6.3926,6.3781,6.2598,6.0944,6.1102,6.1062,6.0984,6.1182,6.1339,6.144,6.1455,0.0,0.0,0.0,0.0,0.0,0.0,0.0,0.0,0.0,0.0,0.0,0.0,0.0,0.0,0.0,0.0,0.0,0.0,0.0,0.0,0.0,0.0,0.0,0.0,6.6914,6.6914,6.7031,6.7031,6.7344,6.8125,6.8281,6.8633,6.9414,6.9609,6.9687,6.9648,7.0547,7.1367,7.1914,0.0,0.0,0.0,0.0,7.4191,7.4984,7.4984,7.5817,7.7442,7.7431,7.7821,7.8496,7.8496,7.8496,7.8496,7.8496,7.8482,7.8515,7.849,7.8086,7.7198,7.4725,7.3767,7.3778,7.3661,7.3624,0.0,0.0,0.0,0.0,0.0,0.0,0.0,0.0,6.1719,6.1719,6.1719,6.1719,6.1719,6.1719,6.1719,6.1719,6.1719,6.1719,6.1719,6.1719,6.1719,6.1719,6.1719,6.2383,6.2812,6.3008,6.4375,6.5195,6.5351,6.6211,6.664,6.664,6.6836,6.6914,6.6914,6.6914,6.6797,6.664,6.6328,6.5667,6.483,6.4535,6.3366,6.1855,6.2013,6.1537,6.0864,6.1022,6.1062,6.113,6.1275,6.1903,6.2617,6.2695,6.3359,0.0,0.0,0.0,0.0,0.0,0.0,0.0,0.0,0.0,0.0,0.0,0.0,0.0,0.0,0.0,0.0,0.0,0.0,0.0,6.6914,6.6914,6.7148,6.7851,6.7969,6.8008,6.8164,6.8828,6.9297,6.9492,7.0703,7.1445,7.1289,7.2695,7.3515,7.332,7.3465,0.0,7.4498,7.4519,7.5222,7.6769,7.6808,7.7284,7.8274,0.0,0.0,7.8504,7.8504,7.8504,7.8504,7.8504,7.8492,7.8513,7.8487,7.8402,7.8096,7.6242,7.5513,7.5436,7.4742,7.4471,7.4394,0.0,0.0,0.0,0.0,0.0,0.0,0.0,6.1719,6.1719,6.1719,6.1719,6.1719,6.1719,6.1719,6.1719,6.1719,6.1719,6.1719,6.1719,6.1719,6.1719,6.1719,6.2539,6.3203,6.3633,6.4922,6.582,6.625,6.668,6.6914,6.6914,6.6914,6.6914,6.6914,6.6914,6.6836,6.6719,6.6484,6.6098,6.5583,6.5346,6.4505,6.3288,6.2588,6.2002,6.1523,6.1235,6.118,6.1323,6.1867,6.2422,6.3008,6.3476,6.4258,6.4961,0.0,0.0,0.0,0.0,0.0,0.0,0.0,0.0,0.0,0.0,0.0,0.0,0.0,0.0,6.6914,6.6914,0.0,6.6914,6.6914,6.7265,6.7695,6.8125,6.8906,6.9453,6.9453,6.9844,7.039,7.1172,7.1992,7.2617,7.2812,7.4062,7.466,7.4385,7.4747,7.5302,7.5976,7.6015,7.661,7.788,7.7905,7.8315,7.915,7.9135,7.9386,7.9784,7.9784,7.9784,7.9784,7.9784,7.9784,7.9782,7.9346,7.9135,7.9015,7.775,7.7019,7.6595,7.617,7.5744,7.5282,0.0,0.0,0.0,0.0,0.0,0.0,0.0,6.1719,6.1719,6.1719,6.1719,6.1719,6.1719,6.1719,6.1719,6.1719,6.1719,6.1719,6.1719,6.1719,6.1797,6.1953,6.2773,6.3672,6.4531,6.539,6.6211,6.6914,6.6914,6.6914,6.6914,6.6914,6.6914,6.6914,6.6914,6.6797,6.6601,6.6465,6.6264,6.6099,6.5941,6.5503,6.472,6.318,6.2451,6.2222,6.1567,6.1508,6.1861,6.2548,6.3125,6.3633,6.4336,6.5156,6.5859,6.5859,6.6367,0.0,0.0,0.0,0.0,0.0,0.0,0.0,0.0,6.6914,6.6914,6.6914,6.6914,6.6914,6.6914,6.6914,6.6953,6.7148,6.7734,6.832,6.8633,6.9844,7.082,7.1172,7.1172,7.164,7.289,7.3264,7.3665,7.4173,7.501,7.5498,7.546,7.6095,7.6808,7.7523,7.7543,7.7929,7.8721,7.8754,7.9188,8.0061,8.0061,8.0417,8.1093,8.1093,8.1093,8.1093,8.1093,8.1093,8.1052,8.0338,8.0033,7.9973,7.9288,7.8519,7.7788,7.7597,7.7096,7.6478,0.0,0.0,0.0,0.0,0.0,0.0,0.0,0.0,6.1719,6.1719,6.1719,6.1719,6.1719,6.1719,6.1719,6.1719,6.1719,6.1719,6.1719,6.1719,6.2031,6.2812,6.3672,6.457,6.543,6.6328,6.6797,6.6914,6.6914,6.6914,6.6914,6.6914,6.6914,6.6914,6.6914,6.6797,6.66,6.6467,6.6274,6.6099,6.5941,6.59,6.5745,6.4207,6.3081,6.2226,6.1673,6.198,6.2686,6.2773,6.3906,6.5312,6.543,6.6055,6.6758,6.6758,6.6836,6.6914,6.6914,6.6914,6.6914,6.6914,6.6914,6.6914,0.0,6.6914,6.6914,6.6914,6.6914,6.6914,6.6914,6.6914,6.7148,6.793,6.8125,6.8711,7.0195,7.0586,7.1289,7.2812,7.2851,7.2812,7.2969,7.4259,7.4999,7.488,7.5717,7.6451,7.7008,7.7127,7.7561,7.8355,7.8383,7.8769,7.9642,7.9669,8.01,8.0935,8.0935,8.1014,8.1093,8.1093,8.1093,8.1093,8.1093,8.1093,8.1093,8.0973,8.0937,8.0937,8.0864,8.0285,7.9436,7.8636,7.829,7.8136,0.0,0.0,0.0,0.0,0.0,0.0,0.0,0.0,0.0,6.1719,6.1719,6.1719,6.1719,6.1719,6.1719,6.1719,6.1719,6.1719,6.1719,6.1719,6.1875,6.2226,6.3555,6.4453,6.4844,6.6172,6.6914,6.6914,6.6914,6.6914,6.6914,6.6914,6.6914,6.6914,6.6914,6.6758,6.6482,6.6436,6.6258,6.5981,6.5902,6.5663,6.5226,6.4195,6.331,6.25,6.1836,6.2187,0.0,6.3515,6.4531,6.5703,6.6211,6.6601,6.6914,6.6914,6.6914,6.6914,6.6914,6.6914,6.6914,6.6914,6.6914,6.6914,6.6914,6.6914,6.6914,6.6914,6.6914,6.6914,6.6914,6.7305,6.7773,0.0,6.9023,6.9883,7.0586,7.1562,7.2422,7.3047,7.3828,7.4346,7.4331,7.483,7.5262,7.5579,7.6372,7.7006,7.7284,7.7742,7.8383,7.9217,7.9252,7.9665,8.0537,8.0577,8.0735,8.1093,8.1093,8.1093,8.1093,8.1093,8.1093,8.1093,8.1093,8.1093,8.1093,8.1093,8.1093,8.1093,8.1093,8.0898,8.0437,7.9592,7.8942,7.8446,0.0,0.0,0.0,0.0,0.0,0.0,0.0,0.0,0.0,0.0,6.1719,6.1719,6.1719,6.1719,6.1719,6.1719,6.1719,6.1719,6.1719,6.1719,6.1797,6.2031,6.3281,6.418,6.4648,6.5898,6.664,6.6914,6.6914,6.6914,6.6914,6.6914,6.6914,6.6914,6.6914,6.6719,6.6443,6.6436,6.6258,6.6019,6.5663,6.5306,6.4831,6.383,6.3208,6.2734,6.1992,6.2422,6.3437,6.4101,6.5039,6.6055,6.6719,6.6914,6.6914,6.6914,6.6914,6.6914,6.6914,6.6914,6.6914,6.6914,6.6914,6.6914,6.6914,6.6914,6.6914,6.6914,6.6914,6.6953,6.7226,6.7773,6.8359,6.8828,6.9922,7.0859,7.1367,7.25,7.3398,7.3672,7.4655,7.5366,7.5569,7.5381,7.5579,7.6293,7.6927,7.751,7.7957,7.8556,7.9267,8.014,8.014,8.0458,8.1093,8.1093,8.1093,8.1093,8.1093,8.1093,8.1093,8.1093,8.1093,8.1093,8.1093,8.1093,8.1093,8.1093,8.1093,8.1093,8.1093,8.1093,8.1016,8.0398,7.9746,7.9175,0.0,0.0,0.0,0.0,0.0,0.0,0.0,0.0,0.0,0.0,0.0,0.0,0.0,6.1719,6.1719,6.1719,6.1719,6.1719,6.1719,6.1719,6.207,6.293,6.3008,6.3828,6.5508,6.5625,6.6055,6.6914,6.6914,6.6914,6.6914,6.6914,6.6914,6.6914,6.6914,6.6797,6.6599,6.6476,6.6376,6.6296,6.5107,6.4909,6.5089,6.3238,6.2734,6.289,6.1992,6.2812,6.4258,6.4297,6.543,6.6875,6.6875,6.6914,6.6914,6.6914,6.6914,6.6914,6.6914,6.6914,6.6914,6.6914,6.6914,6.6914,6.6914,6.6914,6.6914,6.6914,6.6914,6.7148,6.8008,6.8164,6.8711,7.0351,7.0664,7.1289,7.2969,7.3281,7.3867,7.5351,7.539,7.5552,0.0,7.6095,7.6333,7.7206,7.7284,7.7993,7.9635,7.9746,8.014,8.1014,8.1052,8.1054,8.1093,8.1093,8.1093,8.1093,8.1093,8.1093,8.1093,8.1093,8.1093,8.1093,8.1093,8.1093,8.1093,8.1093,8.1093,8.1093,8.1093,8.1093,8.1093,8.1054,8.1054,8.09,0.0,0.0,0.0,0.0,0.0,0.0,0.0,0.0,0.0,0.0,0.0,0.0,0.0,0.0,0.0,0.0,6.1719,6.1719,6.1719,6.1719,6.1836,6.2109,6.2695,6.3281,6.3867,6.4453,6.5156,6.6055,6.6055,6.6328,6.6914,6.6914,6.6914,6.6914,6.6914,6.6797,6.6601,6.6543,6.6166,6.5502,6.5116,6.4413,6.3562,6.2945,6.2461,6.2109,0.0,6.2812,6.4297,6.4297,6.5469,6.6914,6.6914,6.6914,6.6914,6.6914,6.6914,6.6914,6.6914,6.6914,6.6914,6.6914,6.6914,6.6914,6.6914,6.6914,6.6914,6.6914,6.6914,6.7187,6.8047,6.8633,6.9375,7.0508,7.1172,7.1953,7.3125,7.3672,7.4336,7.5273,7.5719,0.0,0.0,0.0,0.0,7.7244,7.7775,7.8591,7.9746,8.0338,8.0814,8.1093,8.1093,8.1093,8.1093,8.1093,8.1093,8.1093,8.1647,8.2203,8.2756,8.2767,8.2751,8.2751,8.2751,8.2751,8.2712,8.2133,8.1902,8.1825,8.1325,8.1093,8.1093,8.1093,8.1093,8.1054,0.0,0.0,0.0,0.0,0.0,0.0,0.0,0.0,0.0,0.0,0.0,0.0,0.0,0.0,0.0,0.0,0.0,6.1719,6.1719,6.1719,6.1719,6.1719,6.2226,6.2695,6.3008,6.3555,6.4258,6.5156,6.5156,6.543,6.5976,6.5976,6.5976,6.5976,6.5976,6.5898,6.5781,6.5742,6.5366,6.4777,6.4343,6.3651,6.2842,6.2475,6.207,0.0,6.1719,6.2812,6.4297,6.4297,6.5469,6.6914,6.6914,6.6914,6.6914,6.6914,6.6914,6.6914,6.6914,6.6914,6.6914,6.6914,6.6914,6.6914,6.6914,6.6914,6.6914,6.6914,6.6914,6.7265,6.8437,6.9101,6.9805,7.0976,7.164,7.2422,7.3594,7.4062,7.4678,7.5653,7.6079,7.6333,0.0,0.0,0.0,7.768,7.8494,7.9346,8.0219,8.0814,8.1093,8.1093,8.1093,8.1093,8.1093,8.1093,8.125,8.1529,8.2362,8.3078,8.3589,8.3599,8.3607,8.3609,8.3591,8.3595,8.3551,8.3008,8.2745,8.2674,8.1864,8.1518,8.1477,8.1208,8.1093,8.1093,0.0,0.0,0.0,0.0,0.0,0.0,0.0,0.0,0.0,0.0,0.0,0.0,0.0,0.0,0.0,0.0,0.0,0.0,6.1719,6.1719,6.1719,6.1719,6.1719,6.2109,6.293,6.293,6.3359,6.4219,6.4219,6.4258,6.4297,6.4297,6.4297,6.4297,6.4297,6.4297,6.4297,6.414,6.414,6.414,6.3008,6.2695,6.2812,6.1875,6.1601,6.1719,6.1719,6.2812,6.4297,6.4297,6.5469,6.6914,6.6914,6.6914,6.6914,6.6914,6.6914,6.6914,6.6914,6.6914,6.6914,6.6914,6.6914,6.6914,6.6914,6.6914,6.6914,6.6914,6.6914,6.7422,6.9101,6.9453,7.0039,7.168,7.1953,7.2617,7.4336,7.4414,7.4848,7.6395,7.6451,7.661,0.0,0.0,0.0,7.8505,0.0,8.0181,8.1052,8.1093,8.1093,8.1093,8.1093,8.1129,8.1168,8.121,8.1643,8.2432,8.3281,8.3684,8.3736,8.3717,8.3748,8.3714,8.3731,8.3741,8.3721,8.368,8.3656,8.3597,8.271,8.2328,8.2212,8.1441,8.1133,8.1093,0.0,0.0,0.0,0.0,0.0,0.0,0.0,0.0,0.0,0.0,0.0,0.0,0.0,0.0,0.0,0.0,0.0,0.0,6.1719,6.1719,6.1719,6.1719,6.1719,6.1797,6.2031,6.2031,6.2461,6.332,6.332,6.3672,6.4297,6.4297,6.4297,6.4297,6.4297,6.4297,6.4297,6.4258,6.3906,6.3281,6.3008,6.2539,6.1992,6.1758,6.168,6.1719,6.1719,6.2812,6.4297,6.4297,6.5469,6.6914,6.6914,6.6914,6.6914,6.6914,6.6914,6.6914,6.6914,6.6914,6.6914,6.6914,6.6914,6.6914,6.6914,6.6914,6.6914,6.6914,6.6914,6.7226,6.832,6.9023,6.9765,7.0859,7.1562,7.2578,7.414,7.4219,7.4652,7.6195,7.6769,7.7125,7.7284,7.8442,0.0,0.0,7.9681,8.0181,8.1052,8.1093,8.1093,8.1093,8.1093,8.1392,8.1992,8.2622,8.3392,8.4227,8.4475,8.4874,8.5454,8.5468,8.5455,8.5455,8.5472,8.5474,8.5429,8.4834,8.4561,8.4492,8.363,8.2876,8.2274,8.2082,8.1608,8.1093,0.0,0.0,0.0,0.0,0.0,0.0,0.0,0.0,0.0,0.0,0.0,0.0,0.0,0.0,0.0,0.0,0.0,0.0,0.0,6.1719,6.1719,6.1719,6.1719,6.1719,6.1719,6.1719,6.1953,6.2422,6.2422,6.2695,6.3164,6.3164,6.3164,6.3164,6.3164,6.3164,6.3164,6.3164,6.289,0.0,0.0,6.2148,6.1719,6.1719,6.1719,6.1719,6.1719,6.2812,6.4414,6.5195,6.6094,6.6914,6.6914,6.6914,6.6914,6.6914,6.6914,6.6992,6.7383,6.7461,6.7461,6.7461,6.7461,6.7383,6.6992,6.6914,6.6914,6.6914,6.6914,6.7187,6.8047,6.8867,6.9726,7.0547,7.1445,7.2539,7.4062,7.4141,7.4716,7.6633,7.7125,7.7585,7.833,7.9263,7.9942,0.0,8.0379,8.0577,8.1054,8.1093,8.1093,8.1093,8.1439,8.2014,8.2856,8.3746,8.4413,8.4889,8.5241,8.5654,8.6089,8.6089,8.6089,8.6089,0.0,8.6089,8.6051,8.5613,8.5417,8.534,8.45,8.3854,8.3409,8.3017,8.2322,8.1647,0.0,0.0,0.0,0.0,0.0,0.0,0.0,0.0,0.0,0.0,0.0,0.0,0.0,0.0,0.0,0.0,0.0,0.0,0.0,0.0,6.1719,6.1719,6.1719,6.1719,6.1719,6.1719,6.1719,6.1719,6.1719,6.1719,6.1719,6.1719,6.1719,6.1719,6.1719,6.1719,6.1719,6.1719,6.1719,6.1719,6.1719,6.1719,6.1719,0.0,6.1719,6.1719,6.1836,6.293,6.4531,6.6172,6.6797,6.6914,6.6914,6.6914,6.6914,6.6914,6.6914,6.7109,6.7969,6.8203,6.8203,6.8203,6.8203,6.7969,6.7109,6.6914,6.6914,6.6914,6.6914,6.7148,6.789,6.875,6.9609,7.039,7.125,7.2383,7.4023,7.4128,7.4903,7.7284,7.751,7.8098,7.9635,7.9902,8.0298,8.1052,8.1093,8.1093,8.1093,8.1093,8.1133,8.125,8.217,8.3018,8.3763,8.4624,8.5075,8.5074,8.5776,8.6089,8.6089,8.6089,8.6089,8.6089,0.0,0.0,8.6089,8.6089,8.6089,8.601,8.5336,8.4979,8.4791,8.4052,8.3142,8.2282,0.0,0.0,0.0,0.0,0.0,0.0,0.0,0.0,0.0,0.0,6.1719,6.1719,0.0,0.0,0.0,0.0,0.0,0.0,0.0,0.0,0.0,6.1719,6.1719,6.1719,6.1719,6.1719,6.1719,6.1719,6.1719,6.1719,6.1719,6.1719,6.1719,6.1719,6.1719,6.1719,6.1719,6.1719,6.1719,6.1719,6.1719,6.1719,6.1719,6.1719,0.0,0.0,6.2539,6.3437,6.4453,6.5469,6.6289,6.6914,6.6914,6.6914,6.6914,6.6914,6.6914,6.7109,6.7969,6.8203,6.8203,6.8203,6.8203,6.7969,6.7109,6.6914,6.6914,6.6914,6.6914,6.6953,6.7109,6.7851,6.8672,6.9492,7.0351,7.164,7.375,7.401,7.4824,7.7086,7.7921,7.8692,7.9706,8.0458,0.0,0.0,0.0,8.1093,8.1093,8.1093,8.141,8.2084,8.3619,8.4524,8.468,8.5472,8.5873,8.5879,8.6021,8.6089,8.6089,8.6089,8.6089,8.6089,0.0,0.0,8.6089,8.6089,8.6089,8.6089,8.5931,8.5496,8.4862,8.4723,8.3674,8.2282,0.0,0.0,0.0,0.0,0.0,0.0,0.0,6.1719,6.1719,6.1719,6.1719,6.1719,6.1719,6.1719,6.1719,0.0,0.0,0.0,0.0,0.0,0.0,0.0,6.1719,6.1719,6.1719,6.1719,6.1719,6.1719,0.0,6.1719,6.1719,6.1719,6.1719,6.1719,6.1719,6.1719,6.1719,6.1719,6.1719,6.1719,6.1719,6.1719,6.1719,0.0,0.0,0.0,6.2695,6.3555,6.4414,6.5312,6.6172,6.6914,6.6914,6.6914,6.6914,6.6914,6.6914,6.7109,6.7969,6.8203,6.8203,6.8203,6.8203,6.7969,6.7109,6.6914,6.6914,6.6914,6.6914,6.6914,6.6914,6.7617,6.8476,6.9336,7.0156,7.1484,7.3672,7.401,7.4984,7.7601,7.8262,7.9029,8.0338,8.0854,8.1093,8.1093,0.0,8.1093,8.1093,8.1489,8.2311,8.3596,8.4466,8.5099,8.5534,8.5893,8.6089,8.6089,8.6089,8.6089,8.6089,8.6089,8.6089,8.6089,8.6089,0.0,8.6089,8.6089,8.6089,8.6089,8.6089,8.5852,8.5534,8.5534,8.4733,8.3597,0.0,0.0,0.0,0.0,0.0,0.0,0.0,6.1719,6.1719,6.1719,6.1719,6.1719,6.1719,6.1719,6.1719,0.0,0.0,0.0,0.0,0.0,0.0,0.0,0.0,0.0,6.1719,0.0,0.0,6.1719,6.1719,0.0,0.0,0.0,0.0,0.0,6.1719,6.1719,6.1719,6.1719,6.1719,0.0,0.0,6.1719,0.0,0.0,0.0,0.0,0.0,6.3398,6.4414,6.5078,6.6015,6.6914,6.6914,6.6914,6.6914,6.6914,6.6914,6.7109,6.7969,6.8203,6.8203,6.8203,6.8203,6.7969,6.7109,6.6914,6.6914,6.6914,6.6914,6.6914,6.6914,6.7461,6.8242,6.9297,7.0,7.125,7.3672,7.401,7.5103,7.8155,7.85,7.9188,8.0933,8.1093,0.0,8.1093,0.0,0.0,8.1368,8.232,8.3483,8.4852,8.5083,8.5455,8.6089,8.6089,8.6089,8.6089,8.6089,8.6089,8.6089,8.6089,8.6089,8.6089,8.6089,0.0,0.0,8.6089,8.6089,8.6089,8.6089,8.6089,8.6089,8.6089,8.5575,8.4793,0.0,0.0,0.0,0.0,0.0,0.0,0.0,6.1719,6.1719,6.1719,6.1719,6.1719,6.1719,6.1719,6.1719,0.0,0.0,0.0,0.0,0.0,0.0,0.0,0.0,0.0,0.0,0.0,0.0,6.1719,6.1719,0.0,0.0,0.0,0.0,0.0,0.0,6.1719,6.1719,6.1719,0.0,0.0,0.0,0.0,0.0,0.0,0.0,0.0,0.0,6.289,6.4297,6.4375,6.5508,6.6914,6.6914,6.6914,6.6914,6.6914,6.6914,6.7109,6.7969,6.8203,6.8203,6.8203,6.8203,6.7969,6.7109,6.6914,6.6914,6.6914,6.6914,6.6914,6.6914,6.6953,6.7539,6.914,6.9453,7.0586,7.3594,7.401,7.5103,7.8155,7.85,7.9188,8.0933,8.1093,8.1093,8.1093,0.0,0.0,8.2197,8.3749,8.4735,8.4872,8.5617,8.601,8.6089,8.6089,8.6089,8.6089,8.6089,8.6089,8.6089,8.6089,8.6089,8.6089,0.0,0.0,0.0,8.6089,8.6089,8.6089,8.6089,8.6089,8.6089,8.6089,8.5575,8.49,0.0,0.0,0.0,0.0,0.0,0.0,6.1719,6.1719,6.1719,6.1719,6.1719,6.1719,6.1719,6.1719,6.1719,6.1719,0.0,0.0,0.0,0.0,0.0,0.0,0.0,0.0,0.0,0.0,6.1719,6.1719,6.1719,0.0,0.0,0.0,0.0,0.0,0.0,6.1719,6.1719,6.1719,0.0,0.0,0.0,0.0,0.0,0.0,0.0,0.0,0.0,0.0,6.4297,6.4297,6.5469,6.6914,6.6914,6.6914,6.6914,6.6914,6.6914,6.6992,6.7305,6.7422,6.7422,6.7422,6.7422,6.7344,6.6992,6.6914,6.6914,6.6914,6.6914,6.6914,6.6914,6.6914,6.7461,6.918,6.9453,7.0586,7.375,7.4089,7.5143,7.8314,7.8579,7.9188,8.0933,8.1093,8.1304,8.1794,0.0,0.0,8.385,8.4526,8.5104,8.5615,8.5931,8.6089,8.6089,8.6089,8.6089,8.6089,8.6089,8.6089,8.6089,8.6089,8.6089,8.6089,0.0,0.0,0.0,8.6089,8.6089,8.6089,8.6089,8.6089,8.6089,8.6089,8.5893,8.5534,0.0,0.0,0.0,0.0,0.0,6.1719,6.1719,6.1719,6.1719,6.1719,6.1719,6.1719,6.1719,6.1719,6.1719,6.1719,6.1719,0.0,0.0,0.0,0.0,0.0,0.0,0.0,0.0,0.0,6.1719,6.1719,6.1719,6.1719,0.0,0.0,6.1719,6.1719,0.0,0.0,0.0,0.0,0.0,0.0,0.0,0.0,0.0,0.0,0.0,0.0,0.0,0.0,0.0,0.0,0.0,6.6914,6.6914,6.6914,6.6914,6.6914,6.6914,6.6914,6.6914,6.6914,6.6914,6.6914,6.6914,6.6914,6.6914,6.6914,6.6914,6.6914,6.6914,6.6914,6.6914,6.6914,6.7383,6.8867,6.9336,7.0508,7.3515,7.3972,7.5183,7.8434,7.8619,7.9188,8.0933,8.1329,8.1814,0.0,0.0,0.0,0.0,8.5257,8.5496,8.6089,8.6089,8.6089,8.6089,8.6089,8.6089,8.6089,8.6089,8.6089,8.6089,8.6089,8.6089,8.6089,0.0,0.0,0.0,8.6089,8.6089,8.6089,8.6089,8.6089,8.6089,8.6089,8.6089,8.601,0.0,0.0,0.0,0.0,0.0,0.0,6.1719,6.1719,6.1719,6.1719,6.1719,6.1719,6.1719,6.1719,6.1719,6.1719,6.1719,0.0,0.0,0.0,0.0,0.0,0.0,0.0,0.0,0.0,6.1719,6.1719,6.1719,6.1719,6.1719,6.1719,6.1719,6.1719,0.0,0.0,0.0,0.0,0.0,0.0,0.0,0.0,0.0,0.0,0.0,0.0,0.0,0.0,0.0,0.0,0.0,0.0,0.0,6.6914,6.6914,6.6914,6.6914,6.6914,6.6914,6.6914,6.6914,6.6914,6.6914,6.6914,6.6914,6.6914,6.6914,6.6914,6.6914,6.6914,6.6914,6.6914,6.7187,6.8086,6.8867,7.0234,7.2656,7.3579,7.5183,7.8434,7.8619,7.9188,8.0933,8.1807,8.264,0.0,0.0,0.0,0.0,8.6089,8.6089,8.6089,8.6089,8.6089,8.6089,8.6089,8.6089,8.6089,8.6089,8.6089,8.6089,8.6089,8.6089,0.0,0.0,0.0,0.0,8.6089,8.6089,8.6089,8.6089,8.6089,8.6089,8.6089,8.6089,8.6089,0.0,0.0,0.0,0.0,0.0,0.0,0.0,6.1719,6.1719,6.1719,6.1719,6.1719,6.1719,6.1719,6.1719,6.1719,6.1719,0.0,0.0,0.0,0.0,0.0,0.0,0.0,0.0,0.0,6.1719,6.1719,6.1719,6.1719,6.1719,6.1719,6.1719,6.1719,6.1719,6.1719,0.0,0.0,0.0,0.0,0.0,0.0,0.0,0.0,0.0,0.0,0.0,0.0,0.0,0.0,0.0,0.0,0.0,0.0,0.0,6.6914,6.6914,6.6914,6.6914,6.6914,6.6914,6.6914,6.6914,6.6914,6.6914,6.6914,6.6914,6.6914,6.6914,6.6914,6.6914,6.6914,6.7187,6.8047,6.8867,7.0234,7.2656,7.3579,7.5183,7.8434,7.9652,8.0498,8.1052,0.0,8.2649,0.0,0.0,0.0,0.0,8.6089,8.6089,8.6089,8.6089,8.6089,8.6089,8.6089,8.6089,8.6089,8.6089,8.6089,8.6089,8.6089,0.0,0.0,0.0,0.0,0.0,8.6089,8.6089,8.6089,8.6089,8.6089,8.6089,8.6089,8.6089,8.6089,0.0,0.0,0.0,0.0,0.0,0.0,0.0,6.1719,6.1719,6.1719,6.1719,6.1719,6.1719,6.1719,6.1719,6.1719,6.1719,0.0,0.0,0.0,0.0,0.0,0.0,0.0,0.0,6.1719,6.1719,6.1719,6.1719,6.1719,6.1719,6.1719,6.1719,6.1719,6.1719,6.1719,0.0,0.0,0.0,0.0,0.0,0.0,6.1719,0.0,0.0,0.0,0.0,0.0,0.0,0.0,0.0,0.0,0.0,0.0,0.0,0.0,6.6914,6.6914,6.6914,6.6914,6.6914,6.6914,6.6914,6.6914,6.6914,6.6914,6.6914,6.6914,6.6914,6.6914,6.6914,6.6914,6.707,6.7617,6.8672,7.0146,7.2238,7.3362,7.5169,7.8301,8.0102,8.1093,0.0,8.2124,0.0,0.0,0.0,0.0,0.0,8.6089,8.6089,8.6089,8.6089,8.6089,8.6089,8.6089,8.6089,8.6089,8.6089,8.6089,8.6089,8.6089,0.0,0.0,0.0,0.0,0.0,8.6089,8.6089,8.6089,8.6089,8.6089,8.6089,8.6089,8.6089,8.6089,0.0,0.0,0.0,0.0,0.0,0.0,0.0,6.1719,6.1719,6.1719,6.1719,6.1719,6.1719,6.1719,6.1719,6.1719,0.0,0.0,0.0,0.0,0.0,0.0,0.0,0.0,6.1719,6.1719,6.1719,6.1719,6.1719,6.1719,6.1719,6.1719,6.1719,6.1719,6.1719,6.1719,0.0,0.0,0.0,0.0,0.0,0.0,0.0,0.0,0.0,0.0,0.0,0.0,0.0,0.0,0.0,0.0,0.0,0.0,0.0,0.0,0.0,0.0,0.0,6.6914,6.6914,6.6914,6.6914,6.6914,6.6914,6.6914,0.0,6.6914,6.6914,6.6914,6.6914,6.6914,6.6914,6.6992,6.8359,6.9968,7.1555,7.3237,7.5342,7.8168,8.0021,0.0,8.1093,0.0,0.0,0.0,0.0,0.0,0.0,8.6089,8.6089,8.6089,8.6089,8.6089,8.6089,8.6089,8.6089,8.6089,8.6089,8.6089,8.6089,8.6089,0.0,0.0,0.0,0.0,0.0,8.6089,8.6089,8.6089,8.6089,8.6089,8.6089,8.6089,8.6089,8.6089,0.0,0.0,0.0,0.0,0.0,0.0,0.0,0.0,0.0,0.0,6.1719,6.1719,6.1719,6.1719,6.1719,0.0,0.0,0.0,0.0,0.0,0.0,0.0,0.0,0.0,6.1719,6.1719,6.1719,6.1719,6.1719,6.1719,6.1719,6.1719,6.1719,6.1719,6.1719,6.1719,0.0,0.0,0.0,0.0,0.0,0.0,0.0,0.0,0.0,0.0,6.2461,6.3398,0.0,0.0,0.0,0.0,0.0,0.0,0.0,0.0,6.6914,6.6914,6.6914,0.0,6.6914,6.6914,6.6914,6.6914,0.0,6.6914,6.6914,6.6914,6.6914,6.6914,6.6914,6.6914,6.7109,6.7773,6.8789,7.0164,7.2189,7.5341,7.7722,7.8408,8.0021,8.1093,8.1093,0.0,0.0,0.0,0.0,0.0,0.0,8.6089,8.6089,8.6089,8.6089,8.6089,8.6089,8.6089,8.6089,8.6089,8.6089,8.6089,8.6089,8.6089,0.0,0.0,0.0,0.0,8.6089,8.6089,8.6089,8.6089,8.6089,8.6089,8.6089,8.6089,8.6089,8.6089,0.0,0.0,0.0,0.0,0.0,0.0,0.0,0.0,0.0,0.0,0.0,6.1719,6.1719,6.1719,0.0,0.0,0.0,0.0,0.0,0.0,0.0,0.0,0.0,6.1719,6.1719,6.1719,6.1719,6.1719,6.1719,6.1719,6.1719,6.1719,6.1719,6.1719,6.1719,6.1719,0.0,0.0,0.0,0.0,6.1719,0.0,0.0,0.0,0.0,0.0,6.2695,6.3555,0.0,6.5312,6.6172,6.6914,0.0,0.0,0.0,0.0,6.6914,6.6914,6.6914,6.6914,6.6914,6.6914,6.6914,6.6914,6.6914,6.6914,6.6914,6.6914,6.6914,6.6914,6.6914,6.6836,6.707,6.8047,6.8789,7.0164,7.2784,7.6253,7.8514,7.8487,8.0021,8.1093,0.0,0.0,0.0,0.0,0.0,0.0,0.0,8.6089,8.6089,8.6089,8.6089,8.6089,8.6089,8.6089,8.6089,8.6089,8.6089,8.6089,8.6089,8.6089,0.0,0.0,0.0,0.0,8.6089,8.6089,8.6089,8.6089,8.6089,8.6089,8.6089,8.6089,8.6089,8.6089,0.0,0.0,0.0,0.0,0.0,0.0,0.0,0.0,0.0,0.0,0.0,0.0,0.0,0.0,0.0,0.0,0.0,0.0,0.0,0.0,0.0,0.0,6.1719,6.1719,6.1719,6.1719,6.1719,6.1719,6.1719,6.1719,6.1719,6.1719,6.1719,6.1719,6.1719,6.1719,0.0,0.0,0.0,0.0,6.1719,0.0,0.0,0.0,0.0,0.0,0.0,0.0,0.0,6.5508,6.6289,6.6914,6.6914,0.0,0.0,0.0,0.0,0.0,6.6914,6.6914,6.6914,6.6914,6.6914,6.6914,6.6914,6.6914,6.6914,6.6914,6.6914,6.6875,6.6875,6.6868,6.7164,6.818,6.9116,7.067,7.3506,7.6531,7.8514,7.8487,8.0021,0.0,0.0,0.0,0.0,0.0,0.0,0.0,0.0,8.6089,8.6089,8.6089,8.6089,8.6089,8.6089,8.6089,8.6089,8.6089,8.6089,8.6089,8.6089,8.6089,8.6089,0.0,0.0,0.0,8.6089,8.6089,8.6089,8.6089,8.6089,8.6089,8.6089,8.6089,8.6089,8.6091,0.0,0.0,0.0,0.0,0.0,0.0,0.0,0.0,0.0,0.0,0.0,0.0,0.0,0.0,0.0,0.0,0.0,0.0,0.0,0.0,0.0,6.1719,6.1719,6.1719,6.1719,6.1719,6.1719,6.1719,6.1719,6.1719,6.1719,6.1719,6.1719,6.1719,6.1719,6.1719,6.1719,0.0,0.0,0.0,6.1719,0.0,0.0,0.0,0.0,0.0,0.0,0.0,0.0,6.6406,6.6797,6.6914,6.6914,0.0,0.0,0.0,0.0,0.0,6.6914,6.6914,6.6914,6.6914,6.6914,6.6914,6.6914,6.6914,6.6914,6.6914,6.6914,6.6836,6.668,6.7363,6.8202,6.8913,7.1377,7.3599,0.0,0.0,7.8514,7.8487,0.0,0.0,0.0,0.0,0.0,0.0,0.0,0.0,0.0,8.6089,8.6089,8.6089,8.6089,8.6089,8.6089,8.6089,8.6089,8.6089,8.6089,8.6089,8.6089,8.6089,8.6089,0.0,0.0,8.6089,8.6089,8.6089,8.6089,8.6089,8.6089,8.6089,8.6089,8.6089,8.6089,8.5984,0.0,0.0,0.0,0.0,0.0,0.0,0.0,0.0,0.0,0.0,0.0,0.0,0.0,0.0,0.0,0.0,0.0,0.0,0.0,0.0,6.1719,6.1719,6.1719,6.1719,6.1719,6.1719,6.1719,6.1719,6.1719,6.1719,6.1719,6.1719,6.1719,6.1719,6.1719,6.1719,6.1719,6.1719,6.1719,6.1758,0.0,0.0,0.0,0.0,0.0,0.0,0.0,0.0,0.0,0.0,6.6914,6.6914,6.6914,0.0,0.0,0.0,0.0,0.0,6.6914,6.6914,6.6914,6.6914,6.6914,6.6914,6.6914,6.6914,6.6914,6.6914,6.6914,6.698,6.7237,6.762,6.8381,6.9858,0.0,7.4247,7.5388,7.7244,7.8674,0.0,0.0,0.0,0.0,0.0,0.0,0.0,0.0,0.0,0.0,0.0,8.6089,8.6089,8.6089,8.6089,8.6089,8.6089,8.6089,8.6089,8.6089,8.6089,8.6089,8.6089,8.6089,8.6089,0.0,8.6089,8.6089,8.6089,8.6089,8.6089,8.6089,8.6089,8.6089,8.6089,8.6089,8.5905,0.0,0.0,0.0,0.0,0.0,0.0,0.0,0.0,0.0,0.0,0.0,0.0,0.0,0.0,0.0,0.0,0.0,0.0,0.0,0.0,6.2109,6.2305,6.2305,6.2226,6.1992,6.1992,6.2109,6.2305,6.2305,6.2305,6.2305,6.2305,6.2305,6.2305,6.2305,6.2305,6.2305,6.2305,6.2305,6.2383,0.0,0.0,0.0,0.0,0.0,0.0,0.0,0.0,0.0,0.0,0.0,0.0,0.0,0.0,0.0,6.6914,6.6914,6.6914,6.6914,6.6914,6.6914,6.6914,6.6914,6.6914,6.6914,6.6914,6.6875,6.6836,6.6992,6.7261,6.7689,6.8124,6.9144,7.1221,7.2944,7.4548,7.6095,7.7579,0.0,0.0,0.0,0.0,0.0,0.0,0.0,0.0,0.0,0.0,0.0,0.0,8.6089,8.6089,8.6089,8.6089,8.6089,8.6089,8.6089,8.6089,8.6089,8.6089,8.6089,8.6089,8.6089,8.6089,8.6089,8.6089,8.6089,8.6089,8.6089,8.6089,8.6089,8.6089,8.6089,8.6089,8.5976,8.5595,0.0,0.0,0.0,0.0,0.0,0.0,0.0,0.0,0.0,0.0,0.0,0.0,0.0,0.0,0.0,0.0,0.0,0.0,0.0,0.0,6.3281,6.4062,6.4101,6.3711,6.293,6.289,6.3281,6.4101,6.4101,6.4101,6.4101,6.4101,6.4101,6.4101,6.4101,6.4101,6.4101,6.4101,6.4101,6.4101,6.418,0.0,0.0,0.0,0.0,0.0,0.0,0.0,0.0,0.0,0.0,0.0,0.0,0.0,6.6914,6.6914,6.6914,6.6914,6.6914,6.6914,6.6914,6.6914,6.6914,6.6914,6.6914,6.6914,6.6836,6.664,6.7265,6.7764,6.7485,6.9361,7.1498,7.3213,7.4289,7.5421,7.7006,0.0,0.0,0.0,0.0,0.0,0.0,0.0,0.0,0.0,0.0,0.0,0.0,0.0,0.0,8.6089,8.6089,8.6089,8.6089,8.6089,8.6089,8.6089,8.6089,8.6089,8.6089,8.6089,8.6089,8.6089,8.6089,8.6089,8.6089,8.6089,8.6089,8.6089,8.6089,8.6089,8.6089,8.6089,8.5636,8.4836,0.0,0.0,0.0,0.0,0.0,0.0,0.0,0.0,0.0,0.0,0.0,0.0,0.0,0.0,0.0,0.0,0.0,0.0,0.0,6.3828,6.3945,6.4297,6.4297,6.4414,6.4609,6.4101,6.3984,6.4297,6.4297,6.4297,6.4297,6.4297,6.4297,6.4297,6.4297,6.4297,6.4297,6.4297,6.4297,6.4336,6.4883,6.5117,0.0,0.0,0.0,0.0,0.0,0.0,0.0,0.0,6.6914,6.6914,6.6914,6.6914,6.6914,6.6914,6.6914,6.6914,6.6914,6.6914,6.6914,6.6914,6.6914,6.6914,6.6914,6.6797,6.6861,6.7487,6.7663,6.8129,6.9505,7.0898,7.2384,7.4062,7.4614,7.5579,7.7721,0.0,0.0,0.0,0.0,0.0,0.0,0.0,0.0,0.0,0.0,0.0,0.0,0.0,0.0,8.6089,8.6089,8.6089,8.6089,8.6089,8.6089,8.6089,8.6089,8.6089,8.6089,8.6089,8.6089,8.6089,8.6089,8.6089,8.6089,8.6089,8.6089,8.6089,8.6089,8.6089,8.6089,8.6089,8.5591,8.479,0.0,0.0,0.0,0.0,0.0,0.0,0.0,0.0,0.0,0.0,0.0,0.0,0.0,0.0,0.0,0.0,0.0,0.0,6.4648,6.4726,6.4844,6.5117,6.5117,6.539,6.6015,6.543,6.5117,6.5117,6.5117,6.5117,6.5117,6.5117,6.5117,6.5117,6.5117,6.5117,6.5117,6.5117,6.5117,6.5156,6.5781,6.6015,0.0,0.0,0.0,0.0,0.0,0.0,0.0,0.0,6.6914,6.6914,6.6914,6.6914,6.6914,6.6914,6.6914,6.6914,6.6914,6.6914,6.6914,6.6914,6.6836,6.6875,6.7148,6.7121,6.7184,6.7825,6.8333,6.9239,7.1151,7.2337,0.0,0.0,7.5143,7.6214,0.0,0.0,0.0,0.0,0.0,0.0,0.0,0.0,0.0,0.0,0.0,0.0,0.0,0.0,0.0,0.0,8.6089,8.6089,8.6089,8.6089,8.6089,8.6089,8.6089,8.6089,8.6089,8.6089,8.6089,8.6089,8.6089,8.6089,8.6089,8.6089,8.6089,8.6089,8.6089,8.6089,8.6053,8.582,8.5207,8.4362,0.0,0.0,0.0,0.0,0.0,0.0,0.0,0.0,0.0,0.0,0.0,0.0,0.0,0.0,0.0,0.0,0.0,0.0,6.5547,6.5625,6.6015,6.6875,6.6914,6.6914,6.6914,6.6914,6.6914,6.6914,6.6914,6.6914,6.6914,6.6914,6.6914,6.6914,6.6914,6.6914,6.6914,6.6914,6.6914,6.6914,6.6914,6.6914,6.6914,0.0,0.0,0.0,0.0,0.0,0.0,0.0,6.6914,6.6914,6.6914,6.6914,6.6914,6.6914,6.6914,6.6914,6.6914,6.6914,6.6914,6.6914,6.6758,6.6836,6.7695,6.7893,6.7803,6.7486,6.9306,7.1176,7.2047,7.3586,0.0,0.0,0.0,0.0,0.0,0.0,0.0,0.0,0.0,0.0,0.0,0.0,0.0,0.0,0.0,0.0,0.0,0.0,0.0,0.0,8.6089,8.6089,8.6089,8.6089,8.6089,8.6089,8.6089,8.6089,8.6089,8.6089,8.6089,8.6089,8.6089,8.6089,8.6089,8.6089,8.6089,8.6089,8.6089,8.6089,8.6015,8.5205,8.4362,8.3484,0.0,0.0,0.0,0.0,0.0,0.0,0.0,0.0,0.0,0.0,0.0,0.0,0.0,0.0,0.0,0.0,0.0,0.0,6.6445,6.6523,6.664,6.6875,6.6914,6.6914,6.6914,6.6914,6.6914,6.6914,6.6914,6.6914,6.6914,6.6914,6.6914,6.6914,6.6914,6.6914,6.6914,6.6914,6.6914,6.6914,6.6914,6.6914,6.6914,0.0,0.0,0.0,0.0,0.0,0.0,0.0,0.0,0.0,6.6914,6.6914,6.6914,6.6914,6.6914,6.6914,6.6914,6.6914,6.6875,6.6719,6.664,6.6781,6.7381,6.7672,6.8219,6.9731,7.1118,7.2423,7.3736,7.437,0.0,0.0,0.0,0.0,0.0,0.0,0.0,0.0,0.0,0.0,0.0,0.0,0.0,0.0,0.0,0.0,0.0,0.0,0.0,0.0,8.5812,8.6089,8.6089,8.6089,8.6089,8.6089,8.6089,8.6089,8.6089,8.6089,8.6089,8.6089,8.6089,8.6089,8.6089,8.6089,8.6089,8.6089,8.6089,8.6089,8.6015,8.5205,8.4362,8.3484,0.0,0.0,0.0,0.0,0.0,0.0,0.0,0.0,0.0,0.0,6.4609,6.4805,0.0,0.0,0.0,0.0,0.0,0.0,0.0,6.6914,6.6914,6.6914,6.6914,6.6914,6.6914,6.6914,6.6914,6.6914,6.6914,6.6914,6.6914,6.6914,6.6914,6.6914,6.6914,6.6914,6.6914,6.6914,6.6914,6.6914,6.6914,6.6914,6.6914,0.0,0.0,0.0,0.0,0.0,0.0,0.0,0.0,0.0,6.6914,6.6914,6.6914,6.6914,6.6836,6.6797,6.6797,6.6758,6.6675,6.6569,6.6716,6.7164,6.8169,6.8461,6.9065,7.1186,7.2294,7.3275,7.448,7.4984,0.0,0.0,0.0,0.0,0.0,0.0,0.0,0.0,0.0,0.0,0.0,0.0,0.0,0.0,0.0,0.0,0.0,0.0,0.0,0.0,8.5376,8.5773,8.6089,8.6089,8.6089,8.6089,8.6089,8.6089,8.6089,8.6089,8.6089,8.6089,8.6089,8.6089,8.6089,8.6089,8.6089,8.6089,8.6089,8.6089,8.5976,8.4824,8.4059,8.3445,0.0,0.0,0.0,0.0,0.0,0.0,0.0,0.0,0.0,0.0,6.5234,6.5703,0.0,0.0,0.0,0.0,0.0,0.0,0.0,6.6914,6.6914,6.6914,6.6914,6.6914,6.6914,6.6914,6.6914,6.6914,6.6914,6.6914,6.6914,6.6914,6.6914,6.6914,6.6914,6.6914,6.6914,6.6914,6.6914,6.6914,6.6914,6.6914,6.6914,6.6914,0.0,0.0,0.0,0.0,0.0,0.0,0.0,0.0,6.6914,6.6914,6.6914,6.6914,6.6756,6.6593,6.6593,6.6515,6.6388,6.6384,6.6925,6.7922,6.9533,6.9923,7.0391,7.1987,7.3035,7.3872,7.4667,7.546,7.6015,0.0,0.0,0.0,0.0,0.0,0.0,0.0,0.0,0.0,0.0,0.0,0.0,0.0,0.0,0.0,0.0,0.0,0.0,0.0,8.4826,8.5257,8.5972,8.6051,8.6089,0.0,8.6089,8.6089,8.6089,8.6089,8.6089,8.6089,8.6089,8.6089,8.6089,8.6089,8.6089,8.6089,8.6089,8.6053,8.5786,8.4174,8.3563,8.3251,0.0,0.0,0.0,0.0,0.0,0.0,0.0,0.0,0.0,0.0,0.0,0.0,0.0,0.0,0.0,0.0,0.0,0.0,0.0,6.6914,6.6914,6.6914,6.6914,6.6914,6.6914,6.6914,6.6914,6.6914,6.6914,6.6914,6.6914,6.6914,6.6914,6.6914,6.6914,6.6914,6.6914,6.6914,6.6914,6.6914,6.6914,6.6914,6.6914,6.6914,6.6914,0.0,0.0,0.0,0.0,0.0,0.0,0.0,6.6914,6.6914,6.6914,6.6914,6.6774,6.6607,6.6607,6.6489,6.6353,6.6211,6.7186,6.8467,6.9515,7.0735,7.1998,7.3142,7.3948,7.4705,7.5579,7.5857,0.0,0.0,0.0,0.0,0.0,0.0,0.0,0.0,0.0,0.0,0.0,0.0,0.0,0.0,0.0,0.0,0.0,0.0,0.0,8.2844,8.419,8.4979,8.5178,8.5773,8.6089,0.0,8.6089,8.6089,8.6089,8.6089,8.6089,8.6089,8.6089,8.6089,8.6089,8.6089,8.6089,8.6089,8.6089,8.5711,8.5025,8.3984,8.3176,8.2441,0.0,0.0,0.0,0.0,0.0,0.0,0.0,0.0,0.0,0.0,0.0,0.0,0.0,0.0,0.0,0.0,0.0,0.0,0.0,0.0,6.6914,6.6914,6.6914,6.6914,6.6914,6.6914,6.6914,6.6914,6.6914,6.6914,6.6914,6.6914,6.6914,6.6914,6.6914,6.6914,6.6914,6.6914,6.6914,6.6914,6.6914,6.6914,6.6914,6.6914,6.6914,6.6914,6.6914,0.0,0.0,0.0,0.0,0.0,0.0,0.0,6.6914,6.6914,6.6765,6.6575,6.6535,6.6376,6.6416,6.705,6.7804,6.8717,6.9986,7.1611,7.2986,7.3492,7.4191,7.4984,7.5855,7.6015,0.0,0.0,0.0,0.0,0.0,0.0,0.0,0.0,0.0,0.0,0.0,0.0,0.0,0.0,0.0,0.0,0.0,8.1489,8.1885,8.2282,8.3577,8.4476,8.49,8.5694,8.6089,8.6089,8.6089,8.6089,8.6089,8.6089,8.6089,8.6089,8.6089,8.6089,8.6089,8.6089,8.6089,8.6089,8.6089,8.5604,8.4773,8.3919,8.3064,8.2172,0.0,0.0,0.0,0.0,0.0,0.0,0.0,0.0,0.0,0.0,0.0,0.0,0.0,0.0,0.0,0.0,0.0,0.0,0.0,0.0,0.0,6.6914,6.6914,6.6914,6.6914,6.6914,6.6914,6.6914,6.6914,6.6914,6.6914,6.6914,6.6914,6.6914,6.6914,6.6914,6.6914,6.6914,6.6914,6.6914,6.6914,6.6914,6.6914,6.6914,6.6914,6.6914,6.6914,6.6914,6.6914,6.6914,0.0,0.0,0.0,0.0,6.6914,6.6914,6.6758,6.6573,6.6477,6.6258,6.6457,6.8002,6.8399,6.8836,7.0502,7.2248,7.3486,7.3497,7.427,7.5143,7.5857,7.6015,0.0,0.0,0.0,0.0,0.0,0.0,0.0,0.0,0.0,0.0,0.0,0.0,0.0,0.0,0.0,0.0,8.1093,8.1093,8.141,8.2084,8.2917,8.3779,8.4663,8.5496,8.597,8.6089,8.6089,8.6089,8.6089,8.6089,8.6089,8.6089,8.6089,8.6089,8.6089,8.6089,8.6089,8.6091,8.5942,8.5383,8.4555,8.3696,8.2836,8.2018,0.0,0.0,0.0,0.0,0.0,0.0,0.0,0.0,0.0,0.0,6.6914,6.6914,0.0,0.0,0.0,0.0,0.0,0.0,6.6914,0.0,0.0,6.6914,6.6914,6.6914,6.6914,6.6914,6.6914,6.6914,6.6914,6.6914,6.6914,6.6914,6.6914,6.6914,6.6914,6.6914,6.6914,6.6914,6.6914,6.6914,6.6914,6.6914,6.6914,6.6914,6.6914,6.6914,6.6914,6.6914,6.6914,6.6914,6.6914,0.0,0.0,0.0,6.6914,6.6914,6.6754,6.6611,6.6592,6.6336,6.6457,6.8002,6.8399,6.8836,7.0502,7.2248,7.3486,7.3497,7.4746,7.5857,7.5976,0.0,0.0,0.0,0.0,0.0,0.0,0.0,0.0,0.0,0.0,0.0,0.0,0.0,0.0,0.0,0.0,0.0,8.1093,8.1093,8.1133,8.125,8.2045,8.2905,8.375,8.4623,8.5415,8.6089,8.6089,8.6089,8.6089,8.6089,8.6089,8.6089,8.6089,8.6089,8.6089,8.6089,8.6089,8.6017,8.5314,8.4545,8.3682,8.2791,8.1943,8.1246,0.0,0.0,0.0,0.0,0.0,0.0,0.0,0.0,0.0,0.0,0.0,6.6914,0.0,0.0,0.0,6.6914,6.6914,6.6914,6.6914,6.6914,6.6914,6.6914,6.6914,6.6914,6.6914,6.6914,6.6914,6.6914,6.6914,6.6914,6.6914,6.6914,6.6914,6.6914,6.6914,6.6914,6.6914,6.6914,6.6914,6.6914,6.6914,6.6836,6.6758,6.6875,6.6836,6.6758,6.6875,6.6914,6.6914,6.6914,6.6914,6.6914,6.6914,0.0,0.0,0.0,6.6836,6.6714,6.6549,6.6282,6.6457,6.8002,6.8399,6.8836,7.0502,7.2248,7.3486,7.3497,7.4824,7.6015,7.6015,0.0,0.0,0.0,0.0,0.0,0.0,0.0,0.0,0.0,0.0,0.0,0.0,0.0,0.0,0.0,0.0,8.1093,8.1093,8.1093,8.1093,8.1093,8.1885,8.2497,8.2887,8.3741,8.4582,8.5417,8.5891,8.6089,8.6089,8.6089,8.6089,8.6089,8.6089,8.6089,8.6089,8.6089,8.6089,8.6019,8.5193,8.4352,8.3481,8.2621,8.1797,8.1093,0.0,0.0,0.0,0.0,0.0,0.0,0.0,0.0,0.0,0.0,0.0,0.0,0.0,0.0,0.0,0.0,6.6914,6.6914,6.6914,6.6914,6.6914,6.6914,6.6914,6.6914,6.6914,6.6914,6.6914,6.6914,6.6914,6.6914,6.6914,6.6914,6.6914,6.6914,6.6914,6.6914,6.6914,6.6914,6.6914,6.6914,6.6836,6.6719,6.6601,6.6722,6.6696,6.6562,6.6758,0.0,0.0,0.0,0.0,6.6914,6.6914,6.6914,0.0,0.0,0.0,6.6836,6.6523,6.632,6.6495,6.7805,6.8281,6.8796,7.0264,7.1929,7.3248,7.3457,7.4667,7.5738,7.5974,7.6015,0.0,0.0,0.0,0.0,0.0,0.0,0.0,0.0,0.0,0.0,0.0,0.0,0.0,0.0,0.0,8.1093,8.1093,8.1093,8.1093,8.1093,8.1687,8.2084,8.2282,8.3156,8.3935,8.4582,8.5178,8.5455,8.5455,8.5455,8.5455,8.5496,8.5931,8.6089,8.6089,8.6089,8.5972,8.5701,8.4907,8.4042,8.3154,8.232,8.1608,8.1093,0.0,0.0,0.0,0.0,0.0,0.0,0.0,0.0,0.0,0.0,0.0,0.0,6.6914,6.6914,6.6914,6.6914,6.6914,6.6914,6.6914,6.6914,6.6914,6.6914,6.6914,0.0,6.6914,6.6914,6.6914,6.6914,6.6914,6.6914,6.6914,6.6914,6.6914,6.6914,6.6914,6.6914,6.6914,6.6914,6.6914,6.6875,6.668,6.6601,6.6597,6.6451,6.6409,6.6445,6.6562,0.0,0.0,0.0,0.0,0.0,0.0,6.6914,6.6914,0.0,0.0,0.0,6.664,6.6476,6.6575,6.7289,6.7923,6.8637,6.955,7.1057,7.2495,7.3338,7.4189,7.5024,7.5857,7.6015,0.0,0.0,0.0,0.0,0.0,0.0,0.0,0.0,0.0,0.0,0.0,0.0,0.0,0.0,0.0,8.1093,8.1093,8.1093,8.1093,8.1093,8.1133,8.1529,8.2282,8.315,8.3613,8.3669,8.371,8.3748,8.3748,8.3748,8.3748,8.3827,8.5415,8.6089,8.6089,8.6089,8.5654,8.486,8.3993,8.3146,8.2282,8.1451,8.1133,8.1093,0.0,0.0,0.0,0.0,0.0,0.0,0.0,0.0,0.0,0.0,0.0,0.0,0.0,6.6914,6.6914,6.6914,6.6914,6.6914,6.6914,6.6914,6.6914,6.6914,6.6914,6.6914,6.6914,6.6914,6.6914,6.6914,6.6914,6.6914,6.6914,6.6914,6.6914,6.6914,6.6914,6.6914,6.6914,6.6914,6.6914,6.6875,6.668,6.6534,6.6464,6.6434,0.0,0.0,0.0,0.0,0.0,0.0,0.0,0.0,0.0,0.0,0.0,6.6875,6.6914,6.6875,6.664,6.657,6.666,6.7255,6.7975,6.8722,6.9525,7.1017,7.2435,7.3308,7.4159,7.4984,7.5855,7.6015,7.6372,0.0,0.0,0.0,0.0,0.0,0.0,0.0,0.0,0.0,0.0,0.0,0.0,0.0,0.0,0.0,8.1093,8.1093,8.1093,8.1093,8.1093,8.125,8.1529,8.2361,8.2778,8.2781,8.3336,8.3613,8.3613,8.3613,8.3613,8.3615,8.4249,8.4488,8.4503,8.4503,8.4343,8.3993,8.3111,8.2566,8.2203,8.141,8.1093,8.1093,0.0,0.0,0.0,0.0,0.0,0.0,0.0,0.0,0.0,0.0,0.0,0.0,0.0,0.0,6.6914,6.6914,6.6914,6.6914,6.6914,6.6914,6.6914,6.6914,6.6914,6.6914,6.6914,6.6914,6.6914,6.6914,6.6914,6.6914,6.6914,6.6914,6.6914,6.6914,6.6914,6.6914,6.6914,6.6914,6.6875,6.6797,6.6601,6.6439,6.6298,6.6298,0.0,0.0,0.0,0.0,0.0,0.0,0.0,0.0,0.0,0.0,0.0,6.6758,6.6836,6.6836,6.6601,6.6523,6.659,6.6881,6.7514,6.8293,6.9099,7.0343,7.1692,7.284,7.371,7.4548,7.5419,7.5817,7.6293,7.7165,0.0,0.0,0.0,0.0,0.0,0.0,0.0,0.0,0.0,0.0,0.0,0.0,0.0,0.0,8.1093,8.1093,8.1093,8.1093,8.1093,8.1093,8.1093,8.1647,8.1885,8.1885,8.248,8.2757,8.2757,8.2757,8.2757,8.2757,8.2757,8.3074,8.3603,8.3603,8.3445,8.3095,8.2532,8.2124,8.1845,8.1291,8.1093,8.1093,0.0,0.0,0.0,0.0,0.0,0.0,0.0,0.0,0.0,6.6914,0.0,0.0,0.0,0.0,0.0,6.6914,6.6914,6.6914,6.6914,6.6914,6.6914,6.6914,6.6914,6.6914,6.6914,6.6914,6.6914,6.6914,6.6914,6.6914,6.6914,6.6914,6.6914,6.6914,6.6875,6.6875,6.6875,6.6875,6.6797,6.6601,6.6445,6.6267,6.6099,0.0,0.0,0.0,6.6272,6.6258,0.0,6.6336,0.0,0.0,0.0,0.0,0.0,0.0,6.6718,6.6796,0.0,0.0,0.0,6.6132,6.6603,6.7342,6.8189,6.9075,7.0184,7.1851,7.2878,7.3717,7.4548,7.5381,7.6253,7.7125,7.7957,0.0,0.0,0.0,0.0,0.0,0.0,0.0,0.0,0.0,0.0,0.0,0.0,8.1093,8.1093,8.1093,8.1093,8.1093,8.1093,8.1093,8.1093,8.1093,8.1093,8.1093,8.1093,8.1093,8.1093,8.1093,8.1093,8.1093,8.1093,8.2005,8.3512,8.3512,8.3035,8.2243,8.2243,8.1807,8.1093,8.1093,8.1093,8.1093,0.0,0.0,0.0,0.0,0.0,0.0,6.6914,6.6914,6.6914,0.0,0.0,0.0,0.0,6.6914,6.6914,6.6914,6.6914,6.6914,6.6914,6.6914,6.6914,6.6914,6.6914,6.6914,6.6914,6.6914,6.6914,6.6914,6.6914,6.6914,6.6914,6.6914,6.6914,6.6875,6.6758,6.668,6.668,6.668,6.6719,6.6795,6.6358,6.625,0.0,0.0,0.0,0.0,0.0,6.5981,6.5941,0.0,6.6059,6.6059,0.0,0.0,0.0,0.0,0.0,6.6529,6.6428,0.0,0.0,0.0,0.0,0.0,6.8243,6.9089,7.0184,7.1851,7.2383,7.3012,7.4442,7.4905,7.5341,7.6214,7.7086,7.7922,0.0,0.0,0.0,0.0,0.0,0.0,0.0,0.0,0.0,0.0,8.1093,8.1093,8.1093,8.1093,8.1093,8.1093,8.1093,8.1093,8.1093,8.1093,8.1093,8.1093,8.1093,8.1093,8.1093,8.1093,8.1093,8.1093,8.1093,8.137,8.1807,8.1807,8.1647,8.1449,8.1449,8.1291,8.1093,8.1093,8.1093,8.1093,0.0,0.0,0.0,0.0,0.0,6.6914,6.6914,6.6914,6.6914,0.0,0.0,0.0,6.6914,6.6914,6.6914,6.6914,6.6914,6.6914,6.6914,6.6914,6.6914,6.6914,6.6914,6.6914,6.6914,6.6914,6.6914,6.6914,6.6914,6.6914,6.6914,6.6914,6.6875,6.6758,6.664,6.6616,6.6582,6.6465,6.6465,0.0,6.6309,0.0,0.0,6.6059,6.5941,0.0,0.0,0.0,6.59,6.59,6.59,0.0,0.0,0.0,0.0,0.0,0.0,6.6383,6.6246,6.6219,6.6218,6.6059,0.0,0.0,6.7685,6.8515,6.955,0.0,7.1692,7.2505,7.3476,7.422,7.4865,7.5381,7.6174,7.7064,0.0,0.0,0.0,0.0,0.0,0.0,0.0,8.1093,0.0,8.1093,8.1093,8.1093,8.1093,8.1093,8.1093,8.1093,8.1093,8.1093,8.1093,8.1093,8.1093,8.1093,8.1093,8.1093,8.1093,8.1093,8.1093,8.1093,8.1093,8.1093,8.1093,8.1093,8.1093,8.1093,8.1093,8.1093,8.1093,8.1093,8.1093,8.1093,0.0,0.0,6.6914,6.6914,6.6914,6.6914,6.6914,6.6914,6.6914,0.0,6.6914,6.6914,6.6914,6.6914,6.6914,6.6914,6.6914,6.6914,6.6914,6.6914,6.6914,6.6914,6.6914,6.6914,6.6914,6.6914,6.6914,6.6914,6.6914,6.6875,6.6875,6.6875,6.6758,6.6562,6.6556,6.6521,6.6535,6.6218,0.0,6.6082,6.6281,6.6184,0.0,0.0,6.6139,6.6059,6.6296,6.6296,6.6178,6.6059,6.5979,0.0,0.0,0.0,0.0,0.0,6.6218,6.6296,6.5981,6.5981,6.6059,6.5941,6.59,0.0,6.6931,6.7692,6.8532,0.0,7.0898,7.197,7.2167,7.3439,7.4443,7.455,7.53,7.6174,7.7165,0.0,0.0,0.0,0.0,0.0,8.0854,8.0973,8.1012,8.1093,8.1093,8.1093,8.1093,8.1093,8.1093,8.1093,8.1093,8.1093,8.1093,8.1093,8.1093,8.1093,8.1093,8.1093,8.1093,8.1093,8.1093,8.1093,8.1093,8.1093,8.1093,8.1093,8.1093,8.1093,8.1093,8.1093,8.1093,8.1093,8.1093,8.1093,0.0,6.6914,6.6914,6.6914,6.6914,6.6914,6.6914,6.6914,6.6914,6.6914,6.6914,6.6914,6.6914,6.6914,6.6914,6.6914,6.6914,6.6914,6.6914,6.6914,6.6914,6.6914,6.6914,6.6914,6.6914,6.6914,6.6914,6.6914,6.6914,6.6836,6.664,6.664,6.6562,6.6445,6.6279,6.6214,6.6179,6.6139,0.0,6.5924,6.5974,0.0,6.6138,6.6694,6.6893,6.6971,6.7685,6.7924,6.7803,6.7091,6.6455,6.59,0.0,0.0,0.0,0.0,0.0,0.0,0.0,0.0,0.0,0.0,0.0,0.0,6.6931,6.7233,6.779,6.9369,6.9946,7.0582,7.1968,7.2468,7.2904,7.3609,7.4427,7.55,7.7086,7.7425,0.0,0.0,0.0,0.0,7.9981,8.0061,8.0338,8.1052,8.1093,8.1093,8.1093,8.1093,8.1093,8.1093,8.1093,8.1093,8.1093,8.1093,8.1093,8.1093,8.1093,8.1093,8.1093,8.1093,8.1093,8.1093,8.1093,8.1093,8.1093,8.1093,8.1093,8.1093,8.1093,8.1093,8.1093,8.1093,8.1093,8.1093,6.6914,6.6914,6.6914,6.6914,6.6914,6.6914,6.6914,6.6914,6.6914,6.6914,6.6914,6.6914,6.6914,6.6914,6.6914,6.6914,6.6914,6.6914,6.6914,6.6914,6.6914,6.6914,6.6914,6.6914,6.6914,6.6914,6.6836,6.6758,6.6758,6.664,6.6484,6.6483,6.6428,6.6257,6.6144,6.6099,6.6099,6.6021,6.5981,6.5981,6.5981,0.0,6.6654,6.6971,6.7374,6.7804,6.8241,6.8399,6.8329,6.7906,6.7486,0.0,0.0,6.6495,6.6416,0.0,6.59,6.59,0.0,0.0,0.0,6.59,0.0,0.0,0.0,6.6812,6.7471,6.8767,6.939,7.0065,7.1335,7.1929,7.2348,7.2771,7.3556,7.441,7.5269,7.6134,7.6967,0.0,0.0,0.0,7.9069,7.914,7.9506,8.0379,8.0458,8.0656,8.1093,8.1093,8.1093,8.1093,8.1093,8.1093,8.1093,8.1093,8.1093,8.1093,8.1093,8.1093,8.1093,8.1093,8.1093,8.1093,8.1093,8.1093,8.1093,8.1093,8.1093,8.1093,8.1093,8.1093,8.1093,8.1093,8.1093,8.1093,6.6914,6.6914,6.6914,6.6914,6.6914,6.6914,6.6914,6.6914,6.6914,6.6914,6.6914,6.6875,6.6836,6.6875,0.0,6.6797,6.6836,6.6836,0.0,0.0,6.6875,6.6914,6.6875,6.6836,6.6836,6.6836,6.6719,6.6562,6.6546,6.6486,6.6325,6.6351,6.6258,6.6059,6.6059,6.6059,6.6059,6.5941,0.0,6.6298,0.0,6.6615,6.7128,6.7465,6.8037,6.8675,6.8834,6.8796,6.8649,6.8656,6.8528,6.8289,6.7576,6.7353,0.0,0.0,0.0,0.0,0.0,0.0,0.0,0.0,0.0,6.59,0.0,0.0,0.0,6.8199,6.895,6.9747,7.0701,7.1492,0.0,0.0,0.0,0.0,0.0,7.4577,0.0,7.6691,0.0,0.0,0.0,7.8398,7.8783,7.9496,7.9715,8.0102,8.0816,8.1014,8.1093,8.1093,8.1093,8.1093,8.1093,8.1093,8.1093,8.1093,8.1093,8.1093,8.1093,8.1093,8.1093,8.1093,8.1093,8.1093,8.1093,8.1093,8.1093,8.1093,8.1093,8.1093,8.1093,8.1093,8.1093,8.1093,6.6914,6.6914,6.6914,6.6914,6.6914,6.6914,6.6914,6.6914,6.6914,6.6914,6.6914,6.6836,0.0,0.0,0.0,0.0,0.0,0.0,6.664,0.0,6.6719,6.6875,6.6719,6.664,6.664,6.6523,6.6445,6.6406,6.6438,6.6317,6.6117,6.6131,6.6059,6.5902,6.5902,6.5902,6.5902,6.59,6.6336,0.0,6.6973,6.7011,0.0,6.8811,6.948,6.9669,7.0344,7.0145,6.9552,0.0,6.9052,6.8376,0.0,6.8244,6.8239,6.8121,0.0,0.0,0.0,0.0,0.0,0.0,6.6416,0.0,0.0,0.0,6.6495,6.8081,0.0,6.9033,7.0621,0.0,0.0,0.0,0.0,0.0,7.2349,7.3182,7.4097,7.4914,0.0,0.0,0.0,7.8067,7.8536,7.8654,7.936,7.9823,7.9942,8.0694,8.1093,8.1093,8.1093,8.1093,8.1093,8.1093,8.1093,8.1093,8.1093,8.1093,8.1093,8.1093,8.1093,8.1093,8.1093,8.1093,8.1093,8.1093,8.1093,8.1093,8.1093,8.1093,8.1093,8.1093,8.1093,8.1093,6.6914,6.6914,6.6914,6.6914,6.6914,6.6914,6.6914,6.6914,6.6914,6.6914,6.6914,0.0,0.0,0.0,0.0,0.0,0.0,6.6613,0.0,0.0,6.668,6.6875,6.6836,0.0,6.6781,6.6613,6.6496,6.6417,6.6281,6.6139,6.5981,6.5981,6.5941,6.59,6.59,6.59,6.5941,6.6416,6.6774,0.0,0.0,0.0,0.0,6.941,7.0303,7.1255,7.2127,7.2207,7.1891,0.0,7.1335,0.0,0.0,0.0,0.0,0.0,0.0,0.0,0.0,0.0,0.0,0.0,0.0,0.0,6.7367,0.0,6.7685,0.0,0.0,0.0,0.0,0.0,0.0,0.0,7.1216,0.0,0.0,0.0,7.3042,0.0,0.0,0.0,0.0,0.0,0.0,0.0,0.0,7.8777,7.9748,8.014,8.0577,8.1093,8.1093,8.1093,8.1093,8.1093,8.1093,8.1093,8.1093,8.1093,8.1093,8.1093,8.1093,8.1093,8.1093,8.1093,8.1093,8.1093,8.1093,8.1093,8.1093,8.1093,8.1093,8.1093,8.1093,8.1093,6.6914,0.0,6.6914,6.6914,6.6914,6.6914,6.6914,6.6914,6.6914,0.0,0.0,0.0,6.6836,6.6802,0.0,0.0,0.0,6.6457,0.0,0.0,6.6562,0.0,0.0,0.0,0.0,0.0,6.636,6.6258,6.6138,6.5981,6.59,6.59,6.59,6.59,6.59,6.6019,6.6258,6.6852,6.739,6.7914,6.9186,6.9986,7.0383,7.0383,7.1278,7.264,7.3273,7.3511,7.3511,7.3511,7.3075,0.0,7.1802,0.0,0.0,0.0,0.0,0.0,6.951,0.0,0.0,0.0,0.0,0.0,0.0,0.0,0.0,0.0,0.0,0.0,0.0,0.0,0.0,7.0898,0.0,7.0898,0.0,7.1454,0.0,0.0,0.0,0.0,0.0,0.0,0.0,7.6887,7.7165,7.7845,7.9038,7.9561,8.01,8.0735,8.0973,8.1093,8.1093,8.1093,8.1093,8.1093,8.1093,8.1093,8.1093,8.1093,8.1093,8.1093,8.1093,8.1093,8.1093,8.1093,8.1093,8.1093,8.1093,8.1093,8.1093,8.1093,8.1093,8.1093,6.6914,6.6914,0.0,6.6914,6.6914,6.6914,6.6914,0.0,0.0,0.0,0.0,0.0,0.0,0.0,0.0,0.0,0.0,6.6138,6.6138,0.0,6.6211,0.0,0.0,6.6133,0.0,0.0,6.593,6.5902,6.59,6.59,6.59,6.59,6.59,6.59,6.59,6.6336,6.7051,6.709,6.8063,6.9634,6.967,7.0661,7.2127,0.0,7.2699,7.3442,7.3481,0.0,0.0,7.3481,7.3481,0.0,0.0,0.0,0.0,0.0,0.0,0.0,0.0,0.0,0.0,6.9831,0.0,0.0,0.0,0.0,6.8642,0.0,0.0,0.0,0.0,0.0,7.0898,7.0898,7.0898,0.0,0.0,0.0,0.0,0.0,0.0,0.0,0.0,0.0,0.0,7.5976,7.6808,7.7323,7.7398,7.8927,7.9823,7.9823,8.0656,8.1093,8.1093,8.1093,8.1093,8.1093,8.1093,8.1093,8.1093,8.1093,8.1093,8.1093,8.1093,8.1093,8.1093,8.1093,8.1093,8.1093,8.1093,8.1093,8.1093,8.1093,8.1093,8.1093,0.0,0.0,0.0,0.0,0.0,0.0,0.0,6.6914,0.0,0.0,0.0,0.0,0.0,0.0,6.8015,0.0,0.0,6.7763,6.7763,6.7273,0.0,0.0,0.0,6.6315,0.0,0.0,0.0,0.0,6.5941,6.59,6.59,6.59,6.59,6.59,6.59,6.6338,6.7125,6.7729,0.0,0.0,0.0,7.2879,7.3846,0.0,0.0,7.4389,7.4945,7.5143,0.0,7.5143,7.4784,7.4277,7.4273,7.3927,7.3489,7.3489,7.3489,0.0,0.0,0.0,7.2564,7.2286,0.0,0.0,0.0,0.0,0.0,0.0,0.0,0.0,0.0,0.0,7.0898,7.0898,7.0898,7.0701,0.0,7.0105,0.0,0.0,0.0,0.0,0.0,0.0,0.0,7.5103,7.5936,7.6689,0.0,7.7845,7.8665,7.9746,8.01,8.0537,8.1093,8.1093,8.1093,8.1093,8.1093,8.1093,8.1093,8.1093,8.1093,8.1093,8.1093,8.1093,8.1093,8.1093,8.1093,8.1093,8.1093,8.1093,8.1093,8.1093,8.1093,8.1093,6.6914,0.0,0.0,0.0,0.0,0.0,0.0,0.0,0.0,0.0,6.7496,0.0,6.802,0.0,6.8759,0.0,6.8543,6.8541,6.8541,6.8026,0.0,6.7882,6.709,0.0,0.0,0.0,0.0,0.0,0.0,6.59,6.59,6.59,6.59,6.59,6.6218,6.6774,6.7638,6.8485,6.9827,0.0,0.0,7.4252,0.0,0.0,7.5143,7.5222,0.0,7.6015,7.6015,7.6015,7.5619,7.5143,7.5143,7.4824,7.4389,7.4389,7.4389,7.431,7.3991,7.3923,0.0,0.0,7.3063,0.0,7.2674,0.0,0.0,0.0,0.0,0.0,0.0,0.0,7.0898,7.0898,7.0898,7.0713,0.0,7.0131,0.0,0.0,7.1096,7.1851,0.0,7.3177,7.4072,7.4669,7.5222,7.5936,0.0,0.0,7.7808,7.8888,7.9485,8.0061,8.0617,8.0935,8.1093,8.1093,8.1093,8.1093,8.1093,8.1093,8.1093,8.1093,8.1093,8.1093,8.1093,8.1093,8.1093,8.1093,8.1093,8.1093,8.1093,8.1093,8.1093,8.1093,6.7031,0.0,0.0,0.0,6.6992,0.0,0.0,0.0,6.7031,0.0,6.7839,6.8076,6.8925,6.8914,6.8836,6.8836,6.8717,0.0,6.8637,6.8597,0.0,0.0,6.7678,6.7204,6.717,0.0,0.0,0.0,0.0,6.6019,6.6019,6.6019,6.6019,6.6059,6.6812,6.7641,6.8504,6.9393,7.0736,7.247,7.4112,7.4786,7.4905,7.5738,0.0,7.6134,7.6093,7.6055,7.6055,7.6095,7.6134,7.6134,7.6134,7.6134,7.6134,7.6134,7.6095,7.5896,7.5062,7.4786,7.4586,7.3794,0.0,0.0,0.0,0.0,7.3508,0.0,0.0,0.0,0.0,0.0,0.0,7.0977,7.0898,7.0853,7.0833,7.0842,7.0858,0.0,7.0898,7.1216,7.2048,7.2167,7.2878,7.4445,7.463,7.5062,0.0,0.0,7.7246,7.7284,7.889,7.975,7.9784,8.0656,8.1093,8.1093,8.1093,8.1093,8.1093,8.1093,8.1093,8.1093,8.1093,8.1093,8.1093,8.1093,8.1093,8.1093,8.1093,8.1093,8.1093,8.1093,8.1093,8.1093,6.8828,6.8789,6.8789,0.0,6.8281,6.8047,0.0,0.0,0.0,0.0,6.9487,7.0295,7.0386,7.1494,7.2246,7.2246,7.2207,0.0,0.0,0.0,0.0,7.0303,6.9472,6.8715,6.8079,6.7843,0.0,6.7765,0.0,6.7765,6.7765,6.7765,6.7765,6.7765,6.7962,6.8554,6.943,7.0236,7.1923,7.415,7.5233,7.6055,0.0,0.0,7.7325,7.7799,7.7165,7.6967,7.7046,7.7642,7.7878,7.7878,7.7878,7.7878,7.7878,7.7878,7.7442,7.6927,7.6689,7.6174,7.5619,7.5419,7.4865,7.4396,0.0,0.0,0.0,0.0,0.0,0.0,0.0,0.0,0.0,7.1851,7.082,6.9995,7.0024,0.0,0.0,7.0025,7.0542,7.0979,7.1216,7.1811,7.2395,7.2804,7.3996,0.0,0.0,0.0,0.0,7.7284,7.8289,7.9148,7.9782,8.0656,8.1093,8.1093,8.1093,8.1093,8.1093,8.1093,8.1093,8.1093,8.1093,8.1093,8.1093,8.1093,8.1093,8.1093,8.1093,8.1093,8.1093,8.1093,8.1093,8.1093,6.9258,0.0,0.0,6.9726,0.0,0.0,6.918,0.0,0.0,6.9734,7.0855,0.0,7.2024,7.2893,7.3488,7.3488,7.3488,0.0,0.0,0.0,0.0,7.2059,7.0874,6.9975,6.9518,6.8767,0.0,6.8409,0.0,6.8409,6.8409,6.8409,6.8409,6.8411,6.8807,6.9249,6.9784,7.1366,7.3056,7.4824,7.6055,7.6848,0.0,7.7709,7.8127,7.8486,7.8405,7.8167,7.789,7.8365,7.8486,7.8486,7.8486,7.8486,7.8486,7.8486,7.8169,7.7819,7.7827,7.7482,7.7086,7.7086,7.6729,7.6255,7.5936,7.55,7.5062,0.0,0.0,0.0,0.0,0.0,0.0,7.2279,7.1097,0.0,0.0,0.0,0.0,0.0,7.0621,7.0898,7.0898,7.1335,7.1772,7.2167,7.3446,0.0,0.0,0.0,0.0,7.6729,7.7523,7.8384,7.9229,8.01,8.0735,8.1093,8.1093,8.1093,8.1093,8.1093,8.1093,8.1093,8.1093,8.1093,8.1093,8.1093,8.1093,8.1093,8.1093,8.1093,8.1093,8.1093,8.1093,8.1093,6.9238,0.0,0.0,0.0,0.0,0.0,0.0,7.0034,0.0,7.1395,0.0,7.2984,7.3724,7.4032,7.4151,7.4151,0.0,7.411,7.3991,7.3991,7.3911,7.3673,7.2217,7.136,7.1255,6.9709,0.0,0.0,0.0,6.8717,6.8717,6.8717,6.8717,6.8755,6.951,6.9986,7.0336,7.2688,7.4191,7.5181,7.6689,7.7435,7.7689,7.8391,7.875,7.895,7.9704,7.9425,7.8673,7.879,7.8831,7.8831,7.8831,7.8831,7.8831,7.8831,7.8752,7.8652,7.8666,7.8573,7.8492,7.8492,7.8492,7.8333,7.762,7.7471,7.7244,7.6491,7.5658,0.0,0.0,0.0,0.0,7.2496,0.0,0.0,0.0,0.0,0.0,0.0,0.0,0.0,7.0898,7.0898,7.1216,7.197,0.0,0.0,0.0,0.0,0.0,7.6015,7.6848,0.0,7.8487,0.0,8.026,8.1093,8.1093,8.1093,8.1093,8.1093,8.1093,8.1093,8.1093,8.1093,8.1093,8.1093,8.1093,8.1093,8.1093,8.1093,8.1093,8.1093,8.1093,8.1093,7.1052,0.0,0.0,0.0,0.0,7.2276,7.2829,7.2403,7.2295,7.2999,7.4416,7.5401,7.5542,7.6808,7.7601,7.7601,7.7601,0.0,0.0,0.0,0.0,7.4548,7.4207,7.3705,7.3076,7.2048,7.1533,0.0,0.0,0.0,7.0462,7.0462,7.0462,7.0463,7.0621,7.1494,7.2914,7.4038,0.0,7.6887,7.7165,7.8144,7.9373,7.9513,8.0021,8.0656,8.0816,8.03,7.9665,8.0417,8.0656,8.0656,8.0656,8.0656,8.0656,8.0656,8.014,7.9588,7.9569,7.9058,7.8502,7.8502,7.8502,7.8462,7.8304,7.8292,7.8236,7.8078,7.7403,7.6848,7.6848,0.0,0.0,0.0,0.0,0.0,0.0,0.0,0.0,0.0,0.0,7.0898,0.0,7.0898,7.0977,0.0,0.0,0.0,0.0,0.0,0.0,0.0,0.0,0.0,0.0,0.0,0.0,8.1093,8.1093,8.1093,8.1093,8.1093,8.1093,8.1093,8.1093,8.1093,8.1093,8.1093,8.1093,8.1093,8.1093,8.1093,8.1093,8.1093,8.1093,8.1093,0.0,0.0,0.0,0.0,0.0,0.0,0.0,7.4545,0.0,7.4753,7.5896,7.6828,7.7249,7.8035,7.8509,7.8509,7.8509,7.8352,7.7956,7.7928,7.7363,7.6095,7.5619,0.0,7.4147,7.3315,7.2668,7.2207,0.0,0.0,7.0898,7.0898,7.0898,7.0938,7.1374,7.2535,7.4184,0.0,0.0,7.7398,7.8255,7.9075,7.9861,8.03,8.0735,8.1093,8.1093,8.0816,8.0537,8.0973,8.1093,8.1093,8.1093,8.1093,8.1093,8.1093,8.0814,8.0458,8.0458,8.0179,7.9861,7.9861,7.9861,7.9742,7.9267,7.9187,7.9065,7.859,7.8192,7.7775,7.7392,7.5896,0.0,0.0,0.0,0.0,0.0,0.0,0.0,0.0,0.0,0.0,0.0,0.0,0.0,0.0,0.0,0.0,0.0,0.0,0.0,0.0,0.0,0.0,0.0,0.0,0.0,8.1093,8.1093,8.1093,8.1093,8.1093,8.1093,8.1093,8.1093,8.1093,8.1093,8.1093,8.1093,8.1093,8.1093,8.1093,8.1093,8.1093,8.1093,8.1093,0.0,7.2468,0.0,0.0,7.4047,0.0,7.6293,7.6513,7.6544,7.6528,7.7304,7.8054,7.8719,7.895,7.9069,7.9069,7.9069,7.8988,7.879,7.879,7.8401,7.7607,7.6914,7.6134,7.5262,7.4467,7.3596,0.0,0.0,0.0,0.0,7.1374,7.1454,0.0,0.0,0.0,0.0,0.0,7.6757,7.768,7.9183,7.9902,8.014,8.0854,8.1093,8.1093,8.1093,8.1093,8.1093,8.1093,8.1093,8.1093,8.1093,8.1093,8.1093,8.1093,8.1093,8.1093,8.1093,8.1093,8.1093,8.1093,8.1093,8.0933,8.0219,8.0061,7.9863,7.9188,7.8915,7.8473,7.7493,7.6169,0.0,0.0,0.0,0.0,0.0,0.0,0.0,0.0,0.0,0.0,7.1169,0.0,0.0,0.0,0.0,0.0,0.0,0.0,0.0,0.0,0.0,7.6786,7.8482,0.0,7.9387,0.0,8.1093,8.1093,8.1093,8.1093,8.1093,8.1093,8.1093,8.1093,8.1093,8.1093,8.1093,8.1093,8.1093,8.1093,8.1093,8.1093,8.1093,8.1054,0.0,0.0,0.0,0.0,0.0,0.0,0.0,7.8275,7.8285,7.8263,7.9025,7.9596,7.9665,8.0379,8.0854,8.0854,8.0854,8.0537,7.9742,7.9673,7.9283,7.8448,7.8305,7.788,7.7085,7.6214,7.5346,0.0,0.0,0.0,0.0,0.0,0.0,0.0,0.0,0.0,0.0,7.6452,7.7663,7.8487,7.9429,8.026,8.0973,8.1054,8.1093,8.1093,8.1093,8.1093,8.1093,8.1093,8.1093,8.1093,8.1093,8.1093,8.1093,8.1093,8.1093,8.1093,8.1093,8.1093,8.1093,8.1093,8.1093,8.1093,8.1012,8.0973,8.0973,8.0854,8.0246,7.9208,7.7584,7.7184,7.6808,0.0,0.0,0.0,0.0,0.0,7.3393,7.3393,0.0,0.0,0.0,7.1362,0.0,0.0,7.0977,0.0,0.0,0.0,0.0,7.5938,0.0,7.6786,7.8482,7.8482,0.0,8.1093,8.1093,8.1093,8.1093,8.1093,8.1093,8.1093,8.1093,8.1093,8.1093,8.1093,8.1093,8.1093,8.1093,8.1093,8.1093,8.1093,8.1093,8.0973,0.0,0.0,0.0,0.0,0.0,0.0,0.0,7.9296,7.9481,8.0,7.9929,7.9983,8.0537,8.0894,8.1093,8.1093,8.1093,8.0935,8.0615,8.0577,8.0181,7.9307,7.9269,7.8894,7.8023,7.7211,7.6333,0.0,0.0,0.0,0.0,0.0,0.0,0.0,0.0,7.5777,7.6372,7.8078,7.9007,7.9348,8.0219,8.0775,8.1093,8.1093,8.1093,8.1093,8.1093,8.1093,8.1093,8.1093,8.1093,8.1093,8.1093,8.1093,8.1093,8.1093,8.1093,8.1093,8.1093,8.1093,8.1093,8.1093,8.1093,8.1093,8.1093,8.1093,8.1093,8.1093,8.0406,7.96,7.8933,7.8369,7.7763,0.0,0.0,0.0,0.0,0.0,0.0,7.4201,0.0,7.2974,0.0,0.0,0.0,0.0,0.0,0.0,0.0,0.0,0.0,7.5938,0.0,7.6786,7.8482,7.8484,7.9365,8.1093,8.1093,8.1093,8.1093,8.1093,8.1093,8.1093,8.1093,8.1093,8.1093,8.1093,8.1093,8.1093,8.1093,8.1093,8.1093,8.1093,8.0775,8.0274,7.6491,0.0,7.7198,0.0,7.8881,7.9188,8.0061,8.0379,8.0775,8.137,8.1133,8.0973,8.1093,8.1093,8.1093,8.1093,8.1093,8.1093,8.1093,8.1093,8.0816,8.0219,8.0181,0.0,7.8909,7.8311,7.761,7.6729,7.5896,0.0,0.0,0.0,0.0,0.0,7.6095,7.687,7.7755,7.9181,7.9811,7.9863,8.0737,8.1093,8.1093,8.1093,8.1093,8.1093,8.1093,8.1093,8.1093,8.1093,8.1093,8.1093,8.1093,8.1093,8.1093,8.1093,8.1093,8.1093,8.1093,8.1093,8.1093,8.1093,8.1093,8.1093,8.1093,8.1093,8.1093,8.1093,8.0596,8.0098,7.9858,7.9285,7.8596,0.0,0.0,0.0,0.0,0.0,0.0,0.0,7.4355,7.3853,7.3853,7.3624,0.0,0.0,0.0,0.0,0.0,0.0,0.0,0.0,0.0,0.0,0.0,7.8484,7.9365,8.1093,8.1093,8.1093,8.1093,8.1093,8.1093,8.1093,8.1093,8.1093,8.1093,8.1093,8.1093,8.1093,8.1093,8.1093,8.1054,8.0795,8.0333,7.9723,7.8474,7.8469,7.8754,7.9627,7.9782,8.0061,8.0935,8.1766,8.2282,8.2282,8.3035,8.2917,8.1291,8.1093,8.1093,8.1093,8.1093,8.1093,8.1093,8.1093,8.1093,0.0,0.0,8.0694,7.9784,7.9784,7.9321,7.8474,0.0,0.0,7.5936,0.0,0.0,7.7284,7.7284,7.7742,7.8554,7.9429,7.9784,7.9863,8.0737,8.1093,8.1093,8.1093,8.1093,8.1093,8.1093,8.1093,8.1093,8.1093,8.1093,8.1093,8.1093,8.1093,8.1093,8.1093,8.1093,8.1093,8.1093,8.1093,8.1093,8.1093,8.1093,8.1093,8.1093,8.1093,8.1093,8.1093,8.1093,8.0821,7.9973,7.9779,7.9513,7.8636,0.0,0.0,0.0,0.0,0.0,7.5976,7.5203,7.4701,7.4701,7.3969,0.0,0.0,0.0,0.0,0.0,0.0,0.0,7.5976,7.6015,0.0,7.8482,7.8484,7.9365,8.1093,8.1093,8.1093,8.1093,8.1093,8.1093,8.1093,8.1093,8.1093,8.1093,8.1093,8.1093,8.1093,8.1093,8.1093,8.0981,8.0127,7.9792,7.9561,7.9279,7.941,7.9663,8.0537,8.1133,8.1608,8.1885,8.2638,8.3208,8.3176,8.3443,8.3405,8.2848,8.2793,8.2559,0.0,8.1926,8.1687,0.0,8.1093,8.1093,8.1093,8.1093,8.0973,8.0696,8.01,7.964,7.9398,0.0,0.0,0.0,7.7403,7.7601,7.8153,7.8755,7.914,7.9427,8.0338,8.0696,8.0696,8.0973,8.1093,8.1093,8.1093,8.1093,8.1093,8.1093,8.1093,8.1093,8.1093,8.1093,8.1093,8.1093,8.1093,8.1093,8.1093,8.1093,8.1093,8.1093,8.1093,8.1093,8.1093,8.1093,8.1093,8.1093,8.1093,8.1093,8.1093,8.1093,8.1016,8.0746,8.0706,8.0398,7.9513,0.0,0.0,0.0,0.0,0.0,0.0,7.5745,7.559,0.0,7.5359,0.0,0.0,0.0,0.0,0.0,0.0,0.0,0.0,7.6594,0.0,7.8484,7.9094,7.9977,8.1093,8.1093,8.1093,8.1093,8.1093,8.1093,8.1093,8.1093,8.1093,8.1093,8.1093,8.1093,8.1093,8.1093,8.0721,8.0161,7.9886,7.9086,7.8017,8.0181,8.0298,8.0577,8.141,8.1964,8.2426,8.2745,8.3532,8.4103,8.4076,8.4343,8.4542,8.4542,8.4524,0.0,8.2897,8.2774,8.2559,8.2084,8.1728,8.1568,8.1568,8.125,8.1093,8.1093,0.0,0.0,8.0298,7.9425,7.8825,7.8494,7.8494,7.8653,7.9007,7.9575,7.9981,8.0338,8.0854,8.1093,8.1093,8.1093,8.1093,8.1093,8.1093,8.1093,8.1093,8.1093,8.1093,8.1093,8.1093,8.1093,8.1093,8.1093,8.1093,8.1093,8.1093,8.1093,8.1093,8.1093,8.1093,8.1093,8.1093,8.1093,8.1093,8.1093,8.1093,8.1093,8.1093,8.1093,8.1093,8.1093,8.1093,8.0939,8.0398,0.0,7.9435,7.84,0.0,0.0,0.0,0.0,0.0,0.0,7.6015,0.0,0.0,0.0,0.0,0.0,0.0,0.0,7.5976,7.6865,0.0,7.8484,7.936,8.0242,8.1093,8.1093,8.1093,8.1093,8.1093,8.1093,8.1093,8.1093,8.1093,8.1093,8.1093,8.1093,8.1054,8.0746,8.0298,7.9702,7.9107,7.8186,7.7233,8.1212,8.1212,0.0,0.0,8.2436,0.0,8.3566,8.4425,8.4979,8.4979,8.5654,8.6089,8.6089,8.6089,8.5455,8.3908,0.0,0.0,0.0,8.2827,8.2394,8.2401,8.1608,0.0,8.1171,8.1131,8.1093,8.1093,8.0298,7.9465,7.8671,7.8671,7.9107,7.9902,7.9902,8.0338,8.1093,8.1093,8.1093,8.1093,8.1093,8.1093,8.1093,8.1093,8.1093,8.1093,8.1093,8.1093,8.1093,8.1093,8.1093,8.1093,8.1093,8.1093,8.1093,8.1093,8.1093,8.1093,8.1093,8.1093,8.1093,8.1093,8.1093,8.1093,8.1093,8.1093,8.1093,8.1093,8.1093,8.1093,8.1093,8.1093,8.1093,8.1093,8.0435,7.9858,7.9819,0.0,0.0,0.0,0.0,0.0,0.0,7.6053,7.6015,0.0,0.0,0.0,0.0,0.0,7.6132,7.6093,7.6942,7.7751,7.8598,7.9436,8.0281,8.1093,8.1093,8.1093,8.1093,8.1093,8.1093,8.1093,8.1093,8.1093,8.1093,8.1093,8.1093,8.1014,8.0127,7.9748,7.9527,7.7905,7.7251,7.7096,0.0,0.0,8.3075,8.3274,8.3842,8.4334,8.4546,8.5297,8.5812,8.5812,8.5972,8.6089,8.6089,8.6089,8.5931,8.5534,8.4962,8.4304,8.3627,8.3429,8.3308,8.3308,8.248,8.2005,8.2005,8.141,8.1093,8.1093,8.0894,8.0696,8.0496,8.0496,8.0577,8.0775,8.0775,8.0894,8.1093,8.1093,8.1093,8.1093,8.1093,8.1093,8.1093,8.1093,8.1093,8.1093,8.1093,8.1093,8.1093,8.1093,8.1093,8.1093,8.1093,8.1093,8.1093,8.1093,8.1093,8.1093,8.1093,8.1093,8.1093,8.1093,8.1093,8.1093,8.1093,8.1093,8.1093,8.1093,8.1093,8.1093,8.1093,8.1093,8.1093,8.1093,8.0939,8.0552,7.9896,7.9473,0.0,0.0,7.7482,7.698,7.698,7.6401,7.6015,0.0,0.0,0.0,0.0,0.0,7.7636,7.7019,7.779,7.8634,7.9475,8.036,8.09,8.1093,8.1093,8.1093,8.1093,8.1093,8.1093,8.1093,8.1093,8.1093,8.1093,8.1093,8.1093,8.1014,8.0127,7.94,7.8677,7.7674,7.6863,7.6286,8.2974,8.3281,8.3719,8.4113,8.4583,8.502,8.5376,8.5812,8.6089,8.6089,8.6089,8.6089,8.6089,8.6089,8.6089,8.6089,8.5694,8.5257,8.4781,8.4384,8.4174,8.419,8.2964,8.2312,8.228,8.1527,8.1093,8.1093,8.1093,8.1093,8.1093,8.1093,8.1093,8.1093,8.1093,8.1093,8.1093,8.1093,8.1093,8.1093,8.1093,8.1093,8.1093,8.1093,8.1093,8.1093,8.1093,8.1093,8.1093,8.1093,8.1093,8.1093,8.1093,8.1093,8.1093,8.1093,8.1093,8.1093,8.1093,8.1093,8.1093,8.1093,8.1093,8.1093,8.1093,8.1093,8.1093,8.1093,8.1093,8.1093,8.1093,8.1093,8.1093,8.1093,8.1093,8.0939,8.0475,8.005,0.0,7.9133,7.8365,7.7867,7.7867,7.7403,7.7134,7.7134,0.0,0.0,7.7867,7.8253,7.829,7.7869,7.8673,7.9323,7.9817,8.0667,8.1093,8.1093,8.1093,8.1093,8.1093,8.1093,8.1093,8.1093,8.1093,8.1093,8.1093,8.1093,8.0862,8.0437,7.9554,7.852,7.743,7.6586,7.584,7.523,8.3807,8.3906,8.4224,8.4941,8.5097,8.5297,8.601,8.6089,8.6089,8.6089,8.6089,8.6089,8.6089,8.6089,8.6089,8.6089,8.6089,8.6089,8.6089,8.5455,8.5097,8.5097,8.355,8.2648,8.2517,8.1568,8.1093,8.1093,8.1093,8.1093,8.1093,8.1093,8.1093,8.1093,8.1093,8.1093,8.1093,8.1093,8.1093,8.1093,8.1093,8.1093,8.1093,8.1093,8.1093,8.1093,8.1093,8.1093,8.1093,8.1093,8.1093,8.1093,8.1093,8.1093,8.1093,8.1093,8.1093,8.1093,8.1093,8.1093,8.1093,8.1093,8.1093,8.1093,8.1093,8.1093,8.1093,8.1093,8.1093,8.1093,8.1093,8.1093,8.1093,8.1093,8.1093,8.1093,8.1093,0.0,8.0012,8.0012,7.9248,7.8711,7.8711,7.8598,7.8484,7.8484,7.8636,0.0,0.0,7.8829,7.8906,7.8906,7.9477,7.9856,7.9973,8.0746,8.1093,8.1093,8.1093,8.1093,8.1093,8.1093,8.1093,8.1093,8.1093,8.1093,8.1093,8.0977,8.0402,7.9578,7.8582,7.7401,7.617,7.5294,7.4707,7.4296,8.4823,8.5257,8.5733,8.5891,8.5893,8.597,8.6089,8.6089,8.6089,8.6089,8.6089,8.6089,8.6089,8.6089,8.6089,8.6089,8.6089,8.6089,8.6089,8.5972,8.5893,8.5893,8.5018,8.4156,8.3391,8.1885,8.1093,8.1093,8.1093,8.1093,8.1093,8.1093,8.1093,8.1093,8.1093,8.1093,8.1093,8.1093,8.1093,8.1093,8.1093,8.1093,8.1093,8.1093,8.1093,8.1093,8.1093,8.1093,8.1093,8.1093,8.1093,8.1093,8.1093,8.1093,8.1093,8.1093,8.1093,8.1093,8.1093,8.1093,8.1093,8.1093,8.1093,8.1093,8.1093,8.1093,8.1093,8.1093,8.1093,8.1093,8.1093,8.1093,8.1093,8.1093,8.1093,8.1093,0.0,0.0,8.09,8.09,8.0129,7.959,7.959,7.8942,7.8484,7.8484,7.9169,7.959,7.959,8.0285,8.071,8.071,8.0129,8.0165,8.0898,8.1016,8.1093,8.1093,8.1093,8.1093,8.1093,8.1093,8.1093,8.1093,8.1093,8.1093,8.1054,8.0319,7.9618,7.8899,7.7317,7.6289,7.5547,7.4737,7.4371,7.4296,8.5613,8.5852,8.6089,8.6089,8.6089,8.6089,8.6089,8.6089,8.6089,8.6089,8.6089,8.6089,8.6089,8.6089,8.6089,8.6089,8.6089,8.6089,8.6089,8.6089,8.6089,8.6089,8.5336,8.4275,8.2915,8.1728,8.1093,8.1093,8.1093,8.1093,8.1093,8.1093,8.1093,8.1093,8.1093,8.1093,8.1093,8.1093,8.1093,8.1093,8.1093,8.1093,8.1093,8.1093,8.1093,8.1093,8.1093,8.1093,8.1093,8.1093,8.1093,8.1093,8.1093,8.1093,8.1093,8.1093,8.1093,8.1093,8.1093,8.1093,8.1093,8.1093,8.1093,8.1093,8.1093,8.1093,8.1093,8.1093,8.1093,8.1093,8.1093,8.1093,8.1093,8.1093,8.1093,0.0,0.0,8.0773,8.0709,8.1065,8.0421,8.0096,8.0454,8.0133,7.9904,7.9904,8.0283,8.0514,8.0514,8.0898,8.1093,8.1093,8.0706,8.0706,8.1093,8.1093,8.1093,8.1093,8.1093,8.1093,8.1093,8.1093,8.1093,8.1093,8.1093,8.0884,8.0501,7.9673,7.867,7.7618,7.6407,7.527,7.4317,7.3965,7.3624,7.3349,8.6089,8.6089,8.6089,8.6089,8.6089,8.6089,8.6089,8.6089,8.6089,8.6089,8.6089,8.6089,8.6089,8.6089,8.6089,8.6089,8.6089,8.6089,8.6089,8.6089,8.6089,8.6089,8.5137,8.3879,8.232,8.1527,8.1093,8.1093,8.1093,8.1093,8.1093,8.1093,8.1093,8.1093,8.1093,8.1093,8.1093,8.1093,8.1093,8.1093,8.1093,8.1093,8.1093,8.1093,8.1093,8.1093,8.1093,8.1093,8.1093,8.1093,8.1093,8.1093,8.1093,8.1093,8.1093,8.1093,8.1093,8.1093,8.1093,8.1093,8.1093,8.1093,8.1093,8.1093,8.1093,8.1093,8.1093,8.1093,8.1093,8.1093,8.1093,8.0973,8.0937,8.1077,0.0,0.0,0.0,8.051,8.0301,8.0824,8.0294,8.0098,8.0599,8.0807,8.0865,8.0865,8.0865,8.0865,8.0865,8.0728,8.0675,8.0675,8.0773,8.0865,8.0865,8.0726,8.0726,8.0865,8.0865,8.0957,8.1089,8.0951,8.0865,8.0861,8.072,8.0383,7.9822,7.8782,7.7661,7.6418,7.5428,7.4256,7.3198,7.3198,7.2885,7.2492,8.6089,8.6089,8.6089,8.6089,8.6089,8.6089,8.6089,8.6089,8.6089,8.6089,8.6089,8.6089,8.6089,8.6089,8.6089,8.6089,8.6089,8.6089,8.6089,8.6089,8.6089,8.6089,8.4544,8.3245,8.232,8.1527,8.1093,8.1093,8.1093,8.1093,8.1093,8.1093,8.1093,8.1093,8.1093,8.1093,8.1093,8.1093,8.1093,8.1093,8.1093,8.1093,8.1093,8.1093,8.1093,8.1093,8.1093,8.1093,8.1093,8.1093,8.1093,8.1093,8.1093,8.1093,8.1093,8.1093,8.1093,8.1093,8.1093,8.1093,8.1093,8.1093,8.1093,8.1093,8.1093,8.1093,8.1093,8.1093,8.1093,8.1093,8.1093,8.0599,8.0366,8.0991,0.0,0.0,8.0997,8.051,8.013,8.017,7.9626,7.929,7.9333,7.9852,8.0173,8.0173,8.0173,8.0173,8.0173,7.9629,7.9338,7.9338,7.9886,8.0173,8.0173,7.9605,7.9608,8.0173,8.0173,8.0495,8.1081,8.0463,8.0173,8.0146,7.9573,7.9313,7.9157,7.7524,7.6496,7.5808,7.4194,7.3164,7.2578,7.2578,7.2542,7.2492,8.6089,8.6089,8.6089,8.6089,8.6089,8.6089,8.6089,8.6089,8.6089,8.6089,8.6089,8.6089,8.6089,8.6089,8.6089,8.6089,8.6089,8.5891,8.5376,8.5376,8.5376,8.5376,8.3694,8.2639,8.232,8.1527,8.1093,8.1093,8.1093,8.1093,8.1093,8.1093,8.1093,8.1093,8.1093,8.1093,8.1093,8.1093,8.1093,8.1093,8.1093,8.1093,8.1093,8.1093,8.1093,8.1093,8.1093,8.1093,8.1093,8.1093,8.1093,8.1093,8.1093,8.1093,8.1032,8.0609,8.0783,8.0939,8.0156,8.0517,8.1093,8.1093,8.1093,8.0985,8.0586,8.0481,8.0359,8.0007,7.9939,7.9939,7.9939,7.9725,7.961,7.9868,0.0,7.9775,8.0375,7.9929,7.9669,8.0078,7.9565,7.9204,7.9204,7.9408,7.9538,7.9538,7.9538,7.9538,7.9538,7.9327,7.9204,7.9204,7.9049,7.9155,7.9535,7.9318,7.9318,7.9538,7.9538,7.9693,7.9893,7.9678,7.9538,7.9527,7.9304,7.8688,7.7795,7.6665,7.5559,7.4422,7.3301,7.2714,7.2492,7.2492,7.2492,7.2492,8.6089,8.6089,8.6089,8.6089,8.6089,8.6089,8.6089,8.6089,8.6089,8.6089,8.6089,8.6089,8.6089,8.6089,8.601,8.5733,8.5733,8.5376,8.4542,8.4257,8.4077,8.4077,8.2957,8.2163,8.1926,8.137,8.1093,8.1093,8.1093,8.1093,8.1093,8.1093,8.1093,8.1093,8.1093,8.1093,8.1093,8.1093,8.1093,8.1093,8.1093,8.1093,8.1093,8.1093,8.1093,8.1093,8.1093,8.1093,8.1093,8.1093,8.0973,8.0816,8.1014,8.0973,8.0649,7.9998,8.0157,8.0313,7.9446,7.9829,8.0481,8.0481,8.0481,8.0392,7.9919,7.9829,7.9687,7.929,7.9204,7.9204,7.9204,7.9043,7.8968,7.9172,7.9037,7.9122,7.9716,7.9296,7.9064,7.9477,7.8986,7.8584,7.8584,7.8779,7.8901,7.8901,7.8901,7.8813,7.8596,7.8584,7.8584,7.8584,7.8184,7.8163,7.8618,7.8584,7.8691,7.8901,7.8901,7.901,7.9198,7.8998,7.8901,7.8892,7.8679,7.7913,7.6725,7.5908,7.4827,7.3604,7.2826,7.2492,7.2492,7.2492,7.2492,7.2492,8.6089,8.6089,8.6089,8.6089,8.6089,8.6089,8.6089,8.6089,8.6089,8.6089,8.6089,8.6089,8.6089,8.6089,8.5773,8.4979,8.49,8.4506,8.3633,8.2779,8.2282,8.2282,8.2282,8.1926,8.1131,8.1093,8.1093,8.1093,8.1093,8.1093,8.1093,8.1093,8.1093,8.1093,8.1093,8.1093,8.1093,8.1093,8.1093,8.1093,8.1093,8.1093,8.1093,8.1093,8.1093,8.1093,8.1093,8.1093,8.1093,8.1093,8.0656,8.0219,8.0894,8.0646,7.9955,7.9375,7.9213,7.9217,7.9203,7.9192,7.9198,7.9204,7.9204,7.9204,7.9198,7.9195,7.9195,7.919,7.919,7.919,7.919,7.8694,7.8491,7.9087,7.8678,7.851,7.9108,7.8675,7.8306,7.8306,7.771,7.7329,7.7285,7.7896,7.8295,7.8295,7.8295,7.8009,7.7327,7.7285,7.7285,7.7285,7.7285,7.7285,7.7285,7.7285,7.7618,7.8295,7.8295,7.8592,7.9169,7.8582,7.8295,7.8255,7.7563,7.6812,7.6016,7.5201,7.4437,7.3604,7.2826,7.2492,7.2492,7.2492,7.2492,7.2492,8.6089,8.6089,8.6089,8.6089,8.6089,8.6089,8.6089,8.6089,8.6089,8.6089,8.6089,8.6089,8.6089,8.5613,8.5178,8.4939,8.4334,8.3623,8.2751,8.1908,8.1451,8.1451,8.1451,8.1331,8.1093,8.1093,8.1093,8.1093,8.1093,8.1093,8.1093,8.1093,8.1093,8.1093,8.1093,8.1093,8.1093,8.1093,8.1093,8.1093,8.1093,8.1093,8.1093,8.1093,8.1093,8.1093,8.1093,8.1093,8.1014,8.0577,8.026,8.0061,7.9823,7.965,7.9364,7.8761,7.8873,7.901,7.8092,7.8201,7.8666,7.9093,7.9204,7.9087,7.8659,7.8585,7.8445,7.7961,7.7885,7.7885,7.7885,7.7735,7.7651,7.7846,7.7728,7.7814,7.8484,7.8402,7.8306,7.8306,7.8108,7.7833,7.7339,7.7469,7.7611,7.7611,7.7611,7.7506,7.7297,7.7285,7.7285,7.7285,7.7285,7.7285,7.7285,7.7285,7.7407,7.7611,7.7611,7.7699,7.7878,7.768,7.7611,7.7563,7.6775,7.6012,7.5204,7.4404,7.3597,7.2826,7.2602,7.2492,7.2492,7.2492,7.2492,7.2492,8.6089,8.6089,8.6089,8.6089,8.6089,8.6089,8.6089,8.6089,8.6089,8.6089,8.6089,8.6089,8.6089,8.5376,8.4759,8.4405,8.3315,8.2401,8.1847,8.137,8.1093,8.1093,8.1093,8.1093,8.1093,8.1093,8.1093,8.1093,8.1093,8.1093,8.1093,8.1093,8.1093,8.1093,8.1093,8.1093,8.1093,8.1093,8.1093,8.1093,8.1093,8.1093,8.1093,8.1093,8.0935,8.0696,8.0696,8.0537,8.0298,7.9863,7.9745,7.9605,7.872,7.8625,7.8732,7.8071,7.8156,7.8278,7.7528,7.7611,7.7972,7.8345,7.845,7.8338,7.8002,7.79,7.78,7.7384,7.7285,7.7285,7.7285,7.7285,7.7285,7.7285,7.7285,7.7424,7.7832,7.79,7.79,7.79,7.79,7.775,7.7331,7.7285,7.7285,7.7285,7.7285,7.7285,7.7285,7.7285,7.7285,7.7285,7.7285,7.7285,7.7285,7.7285,7.7285,7.7285,7.7285,7.7285,7.7285,7.7285,7.7285,7.7248,7.6452,7.5645,7.4834,7.4037,7.3233,7.2492,7.2492,7.2492,7.2492,7.2492,7.2492,7.2492,8.6089,8.6089,8.6089,8.6089,8.6089,8.6089,8.6089,8.6089,8.6089,8.6089,8.6089,8.6051,8.601,8.5257,8.4427,8.3543,8.2005,8.1093,8.1093,8.1093,8.1093,8.1093,8.1093,8.1093,8.1093,8.1093,8.1093,8.1093,8.1093,8.1093,8.1093,8.1093,8.1093,8.1093,8.1052,8.1014,8.1014,8.0935,8.0933,8.0933,8.0933,8.0933,8.0933,8.0933,8.0537,8.0001,8.0007,7.967,7.9193,7.9152,7.9088,7.8817,7.7658,7.7735,7.8071,7.7488,7.7285,7.7285,7.7285,7.7285,7.7285,7.7285,7.7285,7.7285,7.7285,7.7285,7.7285,7.7285,7.7285,7.7285,7.7285,7.7285,7.7285,7.7285,7.7285,7.7285,7.7285,7.7285,7.7285,7.7285,7.7285,7.7285,7.7285,7.7285,7.7285,7.7285,7.7285,7.7285,7.7285,7.7285,7.7285,7.7285,7.7285,7.7285,7.7285,7.7285,7.7285,7.7285,7.7285,7.7285,7.7285,7.7285,7.7248,7.7138,7.6342,7.5539,7.4724,7.3927,7.316,7.2492,7.2492,7.2492,7.2492,7.2492,7.2492,7.2492,8.6089,8.6089,8.6089,8.6089,8.6089,8.6089,8.6089,8.6089,8.6089,8.6089,8.6089,8.5852,8.5218,8.4384,8.3514,8.2669,8.1687,8.1093,8.1093,8.1093,8.1093,8.1093,8.1093,8.1093,8.1093,8.1093,8.1093,8.1093,8.1093,8.1093,8.1093,8.1093,8.1093,8.1093,8.0537,8.0338,8.0298,7.9823,7.9625,7.9625,7.9625,7.9625,7.9625,7.9625,7.9506,7.9405,7.9394,7.9301,7.9135,7.8643,7.8159,7.7654,7.7403,7.7407,7.7488,7.7326,7.7285,7.7285,7.7285,7.7285,7.7285,7.7285,7.7285,7.7285,7.7285,7.7285,7.7285,7.7285,7.7285,7.7285,7.7285,7.7285,7.7285,7.7285,7.7285,7.7285,7.7285,7.7285,7.7285,7.7285,7.7285,7.7285,7.7285,7.7285,7.7285,7.7285,7.7285,7.7285,7.7285,7.7285,7.7285,7.7285,7.7285,7.7285,7.7285,7.7285,7.7285,7.7285,7.7285,7.7285,7.7285,7.7285,7.6959,7.6309,7.5498,7.4694,7.3894,7.3083,7.2679,7.2492,7.2492,7.2492,7.2492,7.2492,7.2492,7.2492,8.6089,8.6089,8.6089,8.6089,8.6089,8.6089,8.6089,8.6089,8.6089,8.6089,8.5773,8.5376,8.4941,8.3755,8.25,8.1364,8.0615,8.0181,8.0181,8.0181,8.0181,8.0181,8.0181,8.0181,8.0181,8.0181,8.0498,8.1093,8.1093,8.0935,8.0617,8.0617,8.0458,8.0181,7.9823,7.9659,7.9639,7.9316,7.9195,7.9195,7.9195,7.9195,7.9195,7.9195,7.9032,7.878,7.8763,7.857,7.8237,7.7946,7.7573,7.7285,7.7285,7.7285,7.7285,7.7285,7.7285,7.7285,7.7285,7.7285,7.7285,7.7285,7.7285,7.7285,7.7285,7.7285,7.7285,7.7285,7.7285,7.7285,7.7285,7.7285,7.7285,7.7285,7.7285,7.7285,7.7285,7.7285,7.7285,7.7285,7.7285,7.7285,7.7285,7.7285,7.7285,7.7285,7.7285,7.7285,7.7285,7.7285,7.7285,7.7285,7.7285,7.7285,7.7285,7.7285,7.7285,7.7285,7.7285,7.7285,7.7285,7.7285,7.6848,7.6052,7.5237,7.4437,7.3641,7.2826,7.2492,7.2492,7.2492,7.2492,7.2492,7.2492,7.2492,7.2492,8.6089,8.6089,8.6089,8.6089,8.6089,8.6089,8.6089,8.6089,8.6051,8.5931,8.5218,8.4629,8.437,8.2824,8.1294,8.0067,7.948,7.9201,7.9201,7.9201,7.9201,7.9201,7.9201,7.9201,7.9201,7.9201,7.9718,8.0775,8.0775,8.0498,7.9936,7.9952,7.968,7.9201,7.9081,7.9061,7.9028,7.8902,7.8862,7.8862,7.8862,7.8862,7.8862,7.8862,7.8566,7.8116,7.8116,7.7779,7.7285,7.7285,7.7285,7.7285,7.7285,7.7285,7.7285,7.7285,7.7285,7.7285,7.7285,7.7285,7.7285,7.7285,7.7285,7.7285,7.7285,7.7285,7.7285,7.7285,7.7285,7.7285,7.7285,7.7285,7.7285,7.7285,7.7285,7.7285,7.7285,7.7285,7.7285,7.7285,7.7285,7.7285,7.7285,7.7285,7.7285,7.7285,7.7285,7.7285,7.7285,7.7285,7.7285,7.7285,7.7285,7.7285,7.7285,7.7285,7.7285,7.7285,7.7285,7.7285,7.7285,7.7175,7.6669,7.5832,7.5058,7.4254,7.3457,7.2789,7.2492,7.2492,7.2492,7.2492,7.2492,7.2492,7.2492,7.2492,8.6089,8.6089,8.6089,8.6089,8.6089,8.6089,8.6089,8.6089,8.5891,8.5297,8.4542,8.3546,8.2251,8.0646,7.9534,7.9325,7.9257,7.9217,7.9217,7.9217,7.9217,7.9217,7.9217,7.9217,7.9217,7.9217,7.9287,7.9465,7.9465,7.9425,7.9315,7.9319,7.9261,7.9176,7.8644,7.8408,7.8363,7.7783,7.7569,7.7569,7.7569,7.7569,7.7569,7.7569,7.7528,7.7447,7.7447,7.7366,7.7285,7.7285,7.7285,7.7285,7.7285,7.7285,7.7285,7.7285,7.7285,7.7285,7.7285,7.7285,7.7285,7.7285,7.7285,7.7285,7.7285,7.7285,7.7285,7.7285,7.7285,7.7285,7.7285,7.7285,7.7285,7.7285,7.7285,7.7285,7.7285,7.7285,7.7285,7.7285,7.7285,7.7285,7.7285,7.7285,7.7285,7.7285,7.7285,7.7285,7.7285,7.7285,7.7285,7.7285,7.7285,7.7285,7.7285,7.7285,7.7285,7.7285,7.7285,7.7285,7.7285,7.6599,7.5828,7.5017,7.4221,7.3417,7.2639,7.2529,7.2492,7.2492,7.2492,7.2492,7.2492,7.2492,7.2492,7.2492,8.6089,8.6089,8.6089,8.6089,8.6089,8.6089,8.6089,8.5773,8.5257,8.4542,8.3419,8.2254,8.1169,7.9618,7.8691,7.8696,7.8359,7.8152,7.8152,7.8152,7.8152,7.8152,7.8152,7.8152,7.8152,7.8152,7.8152,7.8156,7.8846,7.9049,7.87,7.8699,7.8489,7.8116,7.7864,7.7739,7.7735,7.7447,7.7285,7.7285,7.7285,7.7285,7.7285,7.7285,7.7285,7.7285,7.7285,7.7285,7.7285,7.7285,7.7285,7.7285,7.7285,7.7285,7.7285,7.7285,7.7285,7.7285,7.7285,7.7285,7.7285,7.7285,7.7285,7.7285,7.7285,7.7285,7.7285,7.7285,7.7285,7.7285,7.7285,7.7285,7.7285,7.7285,7.7285,7.7285,7.7285,7.7285,7.7285,7.7285,7.7285,7.7285,7.7285,7.7285,7.7285,7.7285,7.7285,7.7285,7.7285,7.7285,7.7285,7.7285,7.7285,7.7285,7.7285,7.7285,7.7285,7.7285,7.7285,7.7285,7.7281,7.6456,7.5649,7.487,7.4037,7.3233,7.2492,7.2492,7.2492,7.2492,7.2492,7.2492,7.2492,7.2492,7.2492,7.2492]},{"header":{"parameterUnit":"m.s-1","parameterCategory":1,"la1":30.6,"la2":28.766,"lo1":-90.7593,"lo2":-88.6598,"dy":0.0162,"dx":0.0183,"nx":116,"ny":114,"refTime":"2023-10-26T18:00:00:Z","depth":0,"parameterNumber":3,"parameterNumberName":"V-component_of_WINDS"},"data":[0.0,0.0,0.0,0.0,0.0,0.0,0.0,0.0,0.0,0.0,0.0,0.0,0.0,0.0,0.0,0.0,0.0,0.0,0.0,0.0,0.0,0.0,0.0,0.0,0.0,0.0,0.0,0.0,0.0,0.0,0.0,0.0,0.0,0.0,0.0,0.0,0.0,0.0,0.0,0.0,0.0,0.0,0.0,0.0,0.0,0.0,0.0,0.0,0.0,0.0,0.0,0.0,0.0,0.0,0.0,0.0,0.0,0.0,0.0,0.0,0.0,0.0,0.0,0.0,0.0,0.0,0.0,0.0,0.0,0.0,0.0,0.0,0.0,0.0,0.0,0.0,0.0,0.0,0.0,0.0,0.0,0.0,0.0,0.0,0.0,0.0,0.0,0.0,0.0,0.0,0.0,0.0,0.0,0.0,0.0,0.0,0.0,0.0,0.0,0.0,0.0,0.0,0.0,0.0,0.0,0.0,0.0,0.0,0.0,0.0,0.0,0.0,0.0,0.0,0.0,0.0,0.0,0.0,0.0,0.0,0.0,0.0,0.0,0.0,0.0,0.0,0.0,0.0,0.0,0.0,0.0,0.0,0.0,0.0,0.0,0.0,0.0,0.0,0.0,0.0,0.0,0.0,0.0,0.0,0.0,0.0,0.0,0.0,0.0,0.0,0.0,0.0,0.0,0.0,0.0,0.0,0.0,0.0,0.0,0.0,0.0,0.0,0.0,0.0,0.0,0.0,0.0,0.0,0.0,0.0,0.0,0.0,0.0,0.0,0.0,0.0,0.0,0.0,0.0,0.0,0.0,0.0,0.0,0.0,0.0,0.0,0.0,0.0,0.0,0.0,0.0,0.0,0.0,0.0,0.0,0.0,0.0,0.0,0.0,0.0,0.0,0.0,0.0,0.0,0.0,0.0,0.0,0.0,0.0,0.0,0.0,0.0,0.0,0.0,0.0,0.0,0.0,0.0,0.0,0.0,0.0,0.0,0.0,0.0,0.0,0.0,0.0,0.0,0.0,0.0,0.0,0.0,0.0,0.0,0.0,0.0,0.0,0.0,0.0,0.0,0.0,0.0,0.0,0.0,0.0,0.0,0.0,0.0,0.0,0.0,0.0,0.0,0.0,0.0,0.0,0.0,0.0,0.0,0.0,0.0,0.0,0.0,0.0,0.0,0.0,0.0,0.0,0.0,0.0,0.0,0.0,0.0,0.0,0.0,0.0,0.0,0.0,0.0,0.0,0.0,0.0,0.0,0.0,0.0,0.0,0.0,0.0,0.0,0.0,0.0,0.0,0.0,0.0,0.0,0.0,0.0,0.0,0.0,0.0,0.0,0.0,0.0,0.0,0.0,0.0,0.0,0.0,0.0,0.0,0.0,0.0,0.0,0.0,0.0,0.0,0.0,0.0,0.0,0.0,0.0,0.0,0.0,0.0,0.0,0.0,0.0,0.0,0.0,0.0,0.0,0.0,0.0,0.0,0.0,0.0,0.0,0.0,0.0,0.0,0.0,0.0,0.0,0.0,0.0,0.0,0.0,0.0,0.0,0.0,0.0,0.0,0.0,0.0,0.0,0.0,0.0,0.0,0.0,0.0,0.0,0.0,0.0,0.0,0.0,0.0,0.0,0.0,0.0,0.0,0.0,0.0,0.0,0.0,0.0,0.0,0.0,0.0,0.0,0.0,0.0,0.0,0.0,0.0,0.0,0.0,0.0,0.0,0.0,0.0,0.0,0.0,0.0,0.0,0.0,0.0,0.0,0.0,0.0,0.0,0.0,0.0,0.0,0.0,0.0,0.0,0.0,0.0,0.0,0.0,0.0,0.0,0.0,0.0,0.0,0.0,0.0,0.0,0.0,0.0,0.0,0.0,0.0,0.0,0.0,0.0,0.0,0.0,0.0,0.0,0.0,0.0,0.0,0.0,0.0,0.0,0.0,0.0,0.0,0.0,0.0,0.0,0.0,0.0,0.0,0.0,0.0,0.0,0.0,0.0,0.0,0.0,0.0,0.0,0.0,0.0,0.0,0.0,0.0,0.0,0.0,0.0,0.0,0.0,0.0,0.0,0.0,0.0,0.0,0.0,0.0,0.0,0.0,0.0,0.0,0.0,0.0,0.0,0.0,0.0,0.0,0.0,0.0,0.0,0.0,0.0,0.0,0.0,0.0,0.0,0.0,0.0,0.0,0.0,0.0,0.0,0.0,0.0,0.0,0.0,0.0,0.0,0.0,0.0,0.0,0.0,0.0,0.0,0.0,0.0,0.0,0.0,0.0,0.0,0.0,0.0,0.0,0.0,0.0,0.0,0.0,0.0,0.0,0.0,0.0,0.0,0.0,0.0,0.0,0.0,0.0,0.0,0.0,0.0,0.0,0.0,0.0,0.0,0.0,0.0,0.0,0.0,0.0,0.0,0.0,0.0,0.0,0.0,0.0,0.0,0.0,0.0,0.0,0.0,0.0,0.0,0.0,0.0,0.0,0.0,0.0,0.0,0.0,0.0,0.0,0.0,0.0,0.0,0.0,0.0,0.0,0.0,0.0,0.0,0.0,0.0,0.0,0.0,0.0,0.0,0.0,0.0,0.0,0.0,0.0,0.0,0.0,0.0,0.0,0.0,0.0,0.0,0.0,0.0,0.0,0.0,0.0,0.0,0.0,0.0,0.0,0.0,0.0,0.0,0.0,0.0,0.0,0.0,0.0,0.0,0.0,0.0,0.0,0.0,0.0,0.0,0.0,0.0,0.0,0.0,0.0,0.0,0.0,0.0,0.0,0.0,0.0,0.0,0.0,0.0,0.0,0.0,0.0,0.0,0.0,0.0,0.0,0.0,0.0,0.0,0.0,0.0,0.0,0.0,0.0,0.0,0.0,0.0,0.0,0.0,0.0,0.0,0.0,0.0,0.0,0.0,0.0,0.0,0.0,0.0,0.0,0.0,0.0,0.0,0.0,0.0,0.0,0.0,0.0,0.0,0.0,0.0,0.0,0.0,0.0,0.0,0.0,0.0,0.0,0.0,0.0,0.0,0.0,0.0,0.0,0.0,0.0,0.0,0.0,0.0,0.0,0.0,0.0,0.0,0.0,0.0,0.0,0.0,0.0,0.0,0.0,0.0,0.0,0.0,0.0,0.0,0.0,0.0,0.0,0.0,0.0,0.0,0.0,0.0,0.0,0.0,0.0,0.0,0.0,0.0,0.0,0.0,0.0,0.0,0.0,0.0,0.0,0.0,0.0,0.0,0.0,0.0,0.0,0.0,0.0,0.0,0.0,0.0,0.0,0.0,0.0,0.0,0.0,0.0,0.0,0.0,0.0,0.0,0.0,0.0,0.0,0.0,0.0,0.0,0.0,0.0,0.0,0.0,0.0,0.0,0.0,0.0,0.0,0.0,0.0,0.0,0.0,0.0,0.0,0.0,0.0,0.0,0.0,0.0,0.0,0.0,0.0,0.0,0.0,0.0,0.0,0.0,0.0,0.0,0.0,0.0,0.0,0.0,0.0,0.0,0.0,0.0,0.0,0.0,0.0,0.0,0.0,0.0,0.0,0.0,0.0,0.0,0.0,0.0,0.0,0.0,0.0,0.0,0.0,0.0,0.0,0.0,0.0,0.0,0.0,0.0,0.0,0.0,0.0,0.0,0.0,0.0,0.0,0.0,0.0,0.0,0.0,0.0,0.0,0.0,0.0,0.0,0.0,0.0,0.0,0.0,0.0,0.0,0.0,0.0,0.0,0.0,0.0,0.0,0.0,0.0,0.0,0.0,0.0,0.0,0.0,0.0,0.0,0.0,0.0,0.0,0.0,0.0,0.0,0.0,0.0,0.0,0.0,0.0,0.0,0.0,0.0,0.0,0.0,0.0,0.0,0.0,0.0,0.0,0.0,0.0,0.0,0.0,0.0,0.0,0.0,0.0,0.0,0.0,0.0,0.0,0.0,0.0,0.0,0.0,0.0,0.0,0.0,0.0,0.0,0.0,0.0,0.0,0.0,0.0,0.0,0.0,0.0,0.0,0.0,0.0,0.0,0.0,0.0,0.0,0.0,0.0,0.0,0.0,0.0,0.0,0.0,0.0,0.0,0.0,0.0,0.0,0.0,0.0,0.0,0.0,0.0,0.0,0.0,0.0,0.0,0.0,0.0,0.0,0.0,0.0,0.0,0.0,0.0,0.0,0.0,0.0,0.0,0.0,0.0,0.0,0.0,0.0,0.0,0.0,0.0,0.0,0.0,0.0,0.0,0.0,0.0,0.0,0.0,0.0,0.0,0.0,0.0,0.0,0.0,0.0,0.0,0.0,0.0,0.0,0.0,0.0,0.0,0.0,0.0,0.0,0.0,0.0,0.0,0.0,0.0,0.0,0.0,0.0,0.0,0.0,0.0,0.0,0.0,0.0,0.0,0.0,0.0,0.0,0.0,0.0,0.0,0.0,0.0,0.0,0.0,0.0,0.0,0.0,0.0,0.0,0.0,0.0,0.0,0.0,0.0,0.0,0.0,0.0,0.0,0.0,0.0,0.0,0.0,0.0,0.0,0.0,0.0,0.0,0.0,0.0,0.0,0.0,0.0,0.0,0.0,0.0,0.0,0.0,0.0,0.0,0.0,0.0,0.0,0.0,0.0,0.0,0.0,0.0,0.0,0.0,0.0,0.0,0.0,0.0,0.0,0.0,0.0,0.0,0.0,0.0,0.0,0.0,0.0,0.0,0.0,0.0,0.0,0.0,0.0,0.0,0.0,0.0,0.0,0.0,0.0,0.0,0.0,0.0,0.0,0.0,0.0,0.0,0.0,0.0,0.0,0.0,0.0,0.0,0.0,0.0,0.0,0.0,0.0,0.0,0.0,0.0,0.0,0.0,0.0,0.0,0.0,0.0,0.0,0.0,0.0,0.0,0.0,0.0,0.0,0.0,0.0,0.0,0.0,0.0,0.0,0.0,0.0,0.0,0.0,0.0,0.0,0.0,0.0,0.0,0.0,0.0,0.0,0.0,0.0,0.0,0.0,0.0,0.0,0.0,0.0,0.0,0.0,0.0,0.0,0.0,0.0,0.0,0.0,0.0,0.0,0.0,0.0,0.0,0.0,0.0,0.0,0.0,0.0,0.0,0.0,0.0,0.0,0.0,0.0,0.0,0.0,0.0,0.0,0.0,0.0,0.0,0.0,0.0,0.0,0.0,0.0,0.0,0.0,0.0,0.0,0.0,0.0,0.0,0.0,0.0,0.0,0.0,0.0,0.0,0.0,0.0,0.0,0.0,0.0,0.0,0.0,0.0,0.0,0.0,0.0,0.0,0.0,0.0,0.0,0.0,0.0,0.0,0.0,0.0,0.0,0.0,0.0,0.0,0.0,0.0,0.0,0.0,0.0,0.0,0.0,0.0,0.0,0.0,0.0,0.0,0.0,0.0,0.0,0.0,0.0,0.0,0.0,0.0,0.0,0.0,0.0,0.0,0.0,0.0,0.0,0.0,0.0,0.0,0.0,0.0,0.0,0.0,0.0,0.0,0.0,0.0,0.0,0.0,0.0,0.0,0.0,0.0,0.0,0.0,0.0,0.0,0.0,0.0,0.0,0.0,0.0,0.0,0.0,0.0,0.0,0.0,0.0,0.0,0.0,0.0,0.0,0.0,0.0,0.0,0.0,0.0,0.0,0.0,0.0,0.0,0.0,0.0,0.0,0.0,0.0,0.0,0.0,0.0,0.0,0.0,0.0,0.0,0.0,0.0,0.0,0.0,0.0,0.0,0.0,0.0,0.0,0.0,0.0,0.0,0.0,0.0,0.0,0.0,0.0,0.0,0.0,0.0,0.0,0.0,0.0,0.0,0.0,0.0,0.0,0.0,0.0,0.0,0.0,0.0,0.0,0.0,0.0,0.0,0.0,0.0,0.0,0.0,0.0,0.0,0.0,0.0,0.0,0.0,0.0,0.0,0.0,0.0,0.0,0.0,0.0,0.0,0.0,0.0,0.0,0.0,0.0,0.0,0.0,0.0,0.0,0.0,0.0,0.0,0.0,0.0,0.0,0.0,0.0,0.0,0.0,0.0,0.0,0.0,0.0,0.0,0.0,0.0,0.0,0.0,0.0,0.0,0.0,0.0,0.0,0.0,0.0,0.0,0.0,0.0,0.0,0.0,0.0,0.0,0.0,0.0,0.0,0.0,0.0,0.0,0.0,0.0,0.0,0.0,0.0,0.0,0.0,0.0,0.0,0.0,0.0,0.0,0.0,0.0,0.0,0.0,0.0,0.0,0.0,0.0,0.0,0.0,0.0,0.0,0.0,0.0,0.0,0.0,0.0,0.0,0.0,0.0,0.0,0.0,0.0,0.0,0.0,0.0,0.0,0.0,0.0,0.0,0.0,0.0,0.0,0.0,0.0,0.0,0.0,0.0,0.0,0.0,0.0,0.0,0.0,0.0,0.0,0.0,0.0,0.0,0.0,0.0,0.0,0.0,0.0,0.0,0.0,0.0,0.0,0.0,0.0,0.0,0.0,0.0,0.0,0.0,0.0,0.0,0.0,0.0,0.0,0.0,0.0,0.0,0.0,0.0,0.0,0.0,0.0,0.0,0.0,0.0,0.0,0.0,0.0,0.0,0.0,0.0,0.0,0.0,0.0,0.0,0.0,0.0,0.0,0.0,0.0,0.0,0.0,0.0,0.0,0.0,0.0,0.0,0.0,0.0,0.0,0.0,0.0,0.0,0.0,0.0,0.0,0.0,0.0,0.0,0.0,0.0,0.0,0.0,0.0,0.0,0.0,0.0,0.0,0.0,0.0,0.0,0.0,0.0,0.0,0.0,0.0,0.0,0.0,0.0,0.0,0.0,0.0,0.0,0.0,0.0,0.0,0.0,0.0,0.0,0.0,0.0,0.0,0.0,0.0,0.0,0.0,0.0,0.0,0.0,0.0,0.0,0.0,0.0,0.0,0.0,0.0,0.0,0.0,0.0,0.0,0.0,0.0,0.0,0.0,0.0,0.0,0.0,0.0,0.0,0.0,0.0,0.0,0.0,0.0,0.0,0.0,0.0,0.0,0.0,0.0,0.0,0.0,0.0,0.0,0.0,0.0,0.0,0.0,0.0,0.0,0.0,0.0,0.0,0.0,0.0,0.0,0.0,0.0,0.0,0.0,0.0,0.202,0.202,0.202,0.5527,1.1242,0.4806,0.202,0.202,0.0,0.0,0.0,0.0,0.0,0.0,0.0,0.0,0.0,0.0,0.0,0.0,0.0,0.0,0.0,0.0,0.0,0.0,0.0,0.0,0.0,0.0,0.0,0.0,0.0,0.0,0.0,0.0,0.0,0.0,0.0,0.0,0.0,0.0,0.0,0.0,0.0,0.0,0.0,0.0,0.0,0.0,0.0,0.0,0.0,0.0,0.0,0.0,0.0,0.0,0.0,0.0,0.0,0.0,0.0,0.0,0.0,0.0,0.0,0.0,0.0,0.0,0.0,0.0,0.0,0.0,0.0,0.0,0.0,0.0,0.0,0.0,0.0,0.0,0.0,0.0,0.0,0.0,0.0,0.0,0.0,0.0,0.0,0.0,0.0,0.0,0.0,0.0,0.0,0.0,0.0,0.0,0.0,0.0,0.0,0.0,0.0,0.0,0.0,0.0,0.0,0.0,0.0,0.0,0.0,0.3388,1.0067,1.0076,1.007,1.007,1.007,1.0625,1.1538,1.0517,0.0,1.007,1.0067,0.0,0.0,0.0,0.0,0.0,0.0,0.0,0.0,0.0,0.0,0.0,0.0,0.0,0.0,0.0,0.0,0.0,0.0,0.0,0.0,0.0,0.0,0.0,0.0,0.0,0.0,0.0,0.0,0.0,0.0,0.0,0.0,0.0,0.0,0.0,0.0,0.0,0.0,0.0,0.0,0.0,0.0,0.0,0.0,0.0,0.0,0.0,0.0,0.0,0.0,0.0,0.0,0.0,0.0,0.0,0.0,0.0,0.0,0.0,0.0,0.0,0.0,0.0,0.0,0.0,0.0,0.0,0.0,0.0,0.0,0.0,0.0,0.0,0.0,0.0,0.0,0.0,0.0,0.0,0.0,0.0,0.0,0.0,0.0,0.0,0.0,0.0,0.0,0.0,0.0,0.0,0.0,0.0,0.0,0.0,0.0,0.0,0.0,0.0,0.0,0.0,0.0,0.0,0.4334,0.8227,1.1602,1.1602,1.1595,1.1606,1.1606,1.1606,1.1606,1.1606,1.1606,1.1597,1.1599,0.9592,0.6083,0.0,0.0,0.0,0.0,0.0,0.6516,0.0,0.0,0.0,0.0,0.0,0.0,0.0,0.0,0.0,0.0,0.0,0.0,0.0,0.0,0.0,0.0,0.0,0.0,0.0,0.0,0.0,0.0,0.0,0.0,0.0,0.0,0.0,0.0,0.0,0.0,0.0,0.0,0.0,0.0,0.0,0.0,0.0,0.0,0.1058,0.258,0.0,0.0,0.0,0.0,0.0,0.0,0.0,0.0,0.0,0.0,0.0,0.0,0.0,0.0,0.0,0.0,0.0,0.0,0.0,0.0,0.0,0.0,0.0,0.0,0.0,0.0,0.0,0.0,0.0,0.0,0.0,0.0,0.0,0.0,0.0,0.0,0.0,0.0,0.0,0.0,0.0,0.0,0.0,0.0,0.0,0.0,0.0,0.0,0.0,0.0,0.0,0.0,0.0,0.0954,0.295,0.8857,1.0753,0.8653,1.0647,1.1603,1.1601,1.1599,1.1599,1.1599,1.1603,1.1594,1.1451,0.9454,0.9807,1.0831,0.3037,0.0,0.0,0.0,0.4922,1.1594,0.0,0.0,0.0,0.0,0.0,0.0,0.0,0.0,0.0,0.0,0.0,0.0,0.0,0.0,0.0,0.0,0.0,0.0,0.0,0.0,0.0,0.0,0.0,0.0,0.0,0.0,0.0,0.0,0.0,0.0,0.0,0.0,0.0,0.0,0.0,0.0,0.0,0.0,0.3934,0.9568,0.2742,0.0,0.0,0.0,0.0,0.0,0.0,0.0,0.0,0.0,0.0,0.0,0.0,0.0,0.0,0.0,0.0,0.0,0.0,0.0,0.0,0.0,0.0,0.0,0.0,0.0,0.0,0.0,0.0,0.0,0.0,0.0,0.0,0.0,0.0,0.0,0.0,0.0,0.0,0.0,0.0,0.0,0.0,0.0,0.0,0.0,0.0,0.0,0.0,0.0,0.0,0.0,0.0,0.3542,1.0936,1.1972,0.8457,0.0677,0.8072,1.1598,1.1598,1.1599,1.1603,1.1603,1.1598,1.1602,1.103,0.3632,0.4934,1.0823,0.3041,0.0,0.0,0.0,0.4923,1.16,0.0,0.0,0.0,0.0,0.0,0.0,0.0,0.0,0.0,0.0,0.0,0.0,0.0,0.0,0.0,0.0,0.0,0.0,0.0,0.0,0.0,0.0,0.0,0.0,0.0,0.0,0.0,0.0,0.0,0.0,0.0,0.0,0.0,0.0,0.0,0.0,0.0302,0.4925,0.8366,1.0481,0.7914,0.4119,0.0,0.0,0.0,0.0,0.0,0.0,0.0,0.0,0.0,0.0,0.0,0.0,0.0,0.0,0.0,0.0,0.0,0.0,0.0,0.0,0.0,0.0,0.0,0.0,0.0,0.0,0.0,0.0,0.0,0.0,0.0,0.0,0.0,0.0,0.0,0.0,0.0,0.0,0.0,0.0,0.0,0.0,0.0,0.0,0.0,0.0,0.0,0.0,0.2295,0.7303,0.2609,0.3921,1.2097,1.2391,1.1002,0.8081,1.085,1.2175,1.2181,1.2179,1.197,1.1616,1.2008,1.218,1.1961,0.9186,0.9453,1.136,0.8975,0.8044,0.7719,0.5036,0.5809,0.8545,0.0,0.0,0.0,0.0,0.0,0.0,0.0,0.0,0.0,0.0,0.0,0.0,0.0,0.0,0.0,0.0,0.0,0.0,0.0,0.0,0.0,0.0,0.0,0.0,0.0,0.0,0.0,0.0,0.0,0.0,0.0,0.0,0.0,0.0,0.0,0.0,0.0473,0.7652,1.0702,1.0702,1.0703,0.7851,0.335,0.0,0.0,0.0,0.0,0.0,0.0,0.0,0.0,0.0,0.0,0.0,0.0,0.0,0.0,0.0,0.0,0.0,0.0,0.0,0.0,0.0,0.0,0.0,0.0,0.0,0.0,0.0,0.0,0.0,0.0,0.0,0.0,0.0,0.0,0.0,0.0,0.0,0.0,0.0,0.0,0.0,0.0,0.0,0.0,0.0,0.0,0.0,0.236,0.7522,0.5428,0.6884,1.2456,1.2495,1.2498,1.2507,1.2502,1.2501,1.2505,1.2706,1.2589,1.2226,1.2624,1.2686,1.2518,1.272,1.2575,1.2236,1.242,1.2501,1.2173,0.9413,0.8394,0.8562,0.0,0.0,0.0,0.0,0.0,0.0,0.0,0.0,0.0,0.0,0.0,0.0,0.0,0.0,0.0,0.0,0.0,0.0,0.0,0.0,0.0,0.0,0.0,0.0,0.0,0.0,0.0,0.0,0.0,0.0,0.0,0.0,0.0,0.0,0.0,0.0,0.0454,0.7421,1.0374,1.0392,1.0608,1.0702,0.994,0.0,0.0,0.0,0.0,0.0,0.0,0.0,0.0,0.0,0.0,0.0,0.0,0.0,0.0,0.0,0.0,0.0,0.0,0.0,0.0,0.0,0.0,0.0,0.0,0.0,0.0,0.0,0.0,0.0,0.0,0.0,0.0,0.0,0.0,0.0,0.0,0.0,0.0,0.0,0.0,0.0,0.0,0.0,0.0,0.0,0.0,0.0,0.0,0.0,0.8125,1.2504,1.2505,1.2523,1.2526,1.2496,1.2502,1.2508,1.2555,1.313,1.3404,1.3401,1.3404,1.307,1.2575,1.316,1.3407,1.3334,1.2751,1.2517,1.252,1.252,1.2512,1.1918,0.0,0.0,0.0,0.0,0.0,0.0,0.0,0.0,0.0,0.0,0.0,0.0,0.0,0.0,0.0,0.0,0.0,0.0,0.0,0.0,0.0,0.0,0.0,0.0,0.0,0.0,0.0,0.0,0.0,0.0,0.0,0.0,0.0,0.0,0.0,0.0,0.0131,0.2106,0.2946,0.3399,0.8605,1.0698,1.0485,0.0,0.0,0.0,0.0,0.0,0.0,0.0,0.0,0.0,0.0,0.0,0.0,0.0,0.0,0.0,0.0,0.0,0.0,0.0,0.0,0.0,0.0,0.0,0.0,0.0,0.0,0.0,0.0,0.0,0.0,0.0,0.0,0.0,0.0,0.0,0.0,0.0,0.0,0.0,0.0,0.0,0.0,0.0,0.0,0.0,0.0,0.0,0.0,0.0,0.813,1.25,1.2496,1.2933,1.2927,1.2499,1.2498,1.2732,1.3152,1.3321,1.3404,1.3398,1.34,1.3311,1.3166,1.3332,1.331,1.3169,1.3004,1.2942,1.2922,1.2883,1.2717,1.2339,0.0,0.0,0.0,0.0,0.0,0.0,0.0,0.0,0.0,0.0,0.0,0.0,0.0,0.0,0.0,0.0,0.0,0.0,0.0,0.0,0.0,0.0,0.0,0.0,0.0,0.0,0.0,0.0,0.0,0.0,0.0,0.0,0.0,0.0,0.0,0.0,0.0,0.0,0.1878,0.5203,0.9118,1.07,1.0696,1.0701,0.8107,0.4481,0.4487,0.4481,0.4479,0.4484,0.0,0.0,0.0,0.0,0.0,0.0,0.0,0.0,0.0,0.0,0.0,0.0,0.0,0.0,0.0,0.0,0.0,0.0,0.0,0.0,0.0,0.0,0.0,0.0,0.0,0.0,0.0,0.0,0.0,0.0,0.0,0.0,0.0,0.0,0.0,0.0,0.0,0.0,0.0,0.3333,0.5236,0.5239,1.0214,1.288,1.2883,1.3222,1.322,1.2879,1.2879,1.3061,1.3399,1.3399,1.3404,0.0,1.3401,1.3541,1.377,1.3628,1.3477,0.0,0.0,0.0,0.0,0.0,1.2885,1.2711,0.0,0.0,0.0,0.0,0.0,0.0,0.0,0.0,0.0,0.0,0.0,0.0,0.0,0.0,0.0,0.0,0.0,0.0,0.0,0.0,0.0,0.0,0.0,0.0,0.0,0.0,0.0,0.0,0.0,0.0,0.0,0.0,0.0,0.0,0.0,0.0,0.0,0.0,0.449,1.1551,1.1022,1.0756,1.0695,1.0697,1.0698,1.0693,1.0693,1.0704,1.0575,0.9768,0.0,0.0,0.0,0.0,0.0,0.0,0.0,0.0,0.0,0.0,0.0,0.0,0.0,0.0,0.0,0.0,0.0,0.0,0.0,0.0,0.0,0.0,0.0,0.0,0.0,0.0,0.0,0.0,0.0,0.0,0.0,0.0,0.0,0.0,0.0,0.0,0.0,0.0,0.0,0.0,0.0,0.0,0.0,1.3395,1.3401,1.3401,1.3401,1.3405,1.3468,1.3503,1.3499,1.3499,1.3499,1.3499,1.3499,1.3805,1.4286,1.3983,1.3802,1.3666,1.3292,1.3101,1.304,1.303,1.3013,0.0,0.0,0.0,0.0,0.0,0.0,0.0,0.0,0.0,0.0,0.0,0.0,0.0,0.0,0.0,0.0,0.0,0.0,0.0,0.0,0.0,0.0,0.0,0.0,0.0,0.0,0.0,0.0,0.0,0.0,0.0,0.0,0.0,0.0,0.0,0.0,0.0,0.0,0.0,0.4493,1.1595,1.147,1.1129,1.0698,1.0699,1.0704,1.0698,1.07,1.0698,0.9819,0.4016,0.1148,0.0,0.0,0.0,0.0,0.0,0.0,0.0,0.0,0.0,0.0,0.0,0.0,0.0,0.0,0.0,0.0,0.0,0.0,0.0,0.0,0.0,0.0,0.0,0.0,0.0,0.0,0.0,0.0,0.0,0.0,0.0,0.0,0.0,0.0,0.0,0.0,0.0,0.0,0.8411,0.0,1.323,1.3339,1.3401,1.3396,1.3403,1.3399,1.3406,0.0,0.0,1.413,1.413,1.413,1.413,1.413,1.4194,1.4297,1.4226,1.4034,1.3748,1.3465,1.3326,1.3312,1.32,1.3163,1.3149,0.0,0.0,0.0,0.0,0.0,0.0,0.0,0.0,0.0,0.0,0.0,0.0,0.0,0.0,0.0,0.0,0.0,0.0,0.0,0.0,0.0,0.0,0.0,0.0,0.0,0.0,0.0,0.0,0.0,0.0,0.0,0.0,0.0,0.0,0.0,0.0,0.0,0.0,0.4486,1.1601,1.1596,1.1419,1.1124,1.0816,0.8473,0.5814,0.9408,1.0702,0.9601,0.2422,0.0,0.0,0.0,0.0,0.0,0.0,0.0,0.0,0.0,0.0,0.0,0.0,0.0,0.0,0.0,0.0,0.0,0.0,0.0,0.0,0.0,0.0,0.0,0.0,0.0,0.0,0.0,0.0,0.0,0.0,0.0,0.0,0.0,0.0,0.0,0.0,0.4165,0.6706,0.6712,1.0963,1.3394,1.3397,1.3403,1.3401,1.3393,1.3704,1.3853,1.3845,1.4154,1.4299,1.4293,1.4293,1.4293,1.4293,1.4293,1.4293,1.4303,1.4303,1.4154,1.3933,1.3687,1.3559,1.3484,1.342,1.3366,1.3285,0.0,0.0,0.0,0.0,0.0,0.0,0.0,0.0,0.0,0.0,0.0,0.0,0.0,0.0,0.0,0.0,0.0,0.0,0.0,0.0,0.0,0.0,0.0,0.0,0.0,0.0,0.0,0.0,0.0,0.0,0.0,0.0,0.0,0.0,0.0,0.0,0.01,0.1613,0.587,1.1599,1.1599,1.1605,1.1548,1.106,0.6349,0.0755,0.6547,0.8619,0.7741,0.1945,0.0,0.0,0.0,0.0,0.0,0.0,0.0,0.0,0.0,0.0,0.0,0.0,0.0,0.0,0.0,0.0,0.0,0.0,0.0,0.0,0.0,0.0,0.0,0.0,0.0,0.0,0.0,0.0,0.0,0.0,0.0,0.0,0.0,0.1579,0.2603,0.26,0.9314,1.3408,1.3401,1.3396,1.3403,1.3397,1.3509,1.3566,1.3571,1.4064,1.4297,1.4297,1.4297,1.4304,1.4299,1.4299,1.4299,1.4299,1.4299,1.4299,1.4303,1.4301,1.4236,1.4124,1.3958,1.3823,1.3694,1.365,1.3572,1.3474,0.0,0.0,0.0,0.0,0.0,0.0,0.0,0.0,0.0,0.0,0.0,0.0,0.0,0.0,0.0,0.0,0.0,0.0,0.0,0.0,0.0,0.0,0.0,0.0,0.0,0.0,0.0,0.0,0.0,0.0,0.0,0.0,0.0,0.0,0.0,0.0,0.0454,0.7371,1.0803,1.1599,1.1599,1.1602,1.1583,1.1529,0.6717,0.0102,0.0908,0.12,0.1077,0.0274,0.0,0.0,0.0,0.0,0.0,0.0,0.0,0.0,0.0,0.0,0.0,0.0,0.0,0.0,0.0,0.0,0.0,0.0,0.0,0.0,0.0,0.0,0.0,0.0,0.0,0.0,0.0,0.0,0.0,0.0,0.0,0.0,0.0,0.7222,1.19,1.1902,1.283,1.3405,1.3395,1.3394,1.3404,1.3398,1.392,1.4199,1.42,1.4272,1.4304,1.4294,1.4294,1.4296,1.4299,1.4299,1.4299,1.4299,1.4299,1.4299,1.4299,1.4301,1.4283,1.4283,1.4247,1.4156,1.4018,1.3833,1.3772,1.3745,0.0,0.0,0.0,0.0,0.0,0.0,0.0,0.0,0.0,0.0,0.0,0.0,0.0,0.0,0.0,0.0,0.0,0.0,0.0,0.0,0.0,0.0,0.0,0.0,0.0,0.0,0.0,0.0,0.0,0.0,0.0,0.0,0.0,0.0,0.0,0.0,0.0508,0.8304,1.1599,1.1597,1.1593,1.1597,1.1602,1.1599,0.6776,0.0,0.0,0.0,0.0,0.0,0.0,0.0,0.0,0.0,0.0,0.0,0.0,0.0,0.0,0.0,0.0,0.0,0.0,0.0,0.0,0.0,0.0,0.0,0.0,0.0,0.0,0.0,0.0,0.0,0.0,0.0,0.0,0.0,0.0,0.0,0.0,0.2058,0.729,1.1204,1.3398,1.3401,1.3402,1.3405,1.3399,1.373,1.392,1.3912,1.4164,1.4294,1.4303,1.4299,1.4304,1.4299,1.4299,1.4299,1.4299,1.4299,1.4299,1.4299,1.4299,1.4299,1.4299,1.4299,1.4299,1.4299,1.4299,1.4276,1.4194,1.4034,1.3897,1.3788,0.0,0.0,0.0,0.0,0.0,0.0,0.0,0.0,0.0,0.0,0.0,0.0,0.0,0.0,0.0,0.0,0.0,0.0,0.0,0.0,0.0,0.0,0.0,0.0,0.0,0.0,0.0,0.0,0.0,0.0,0.0,0.0,0.0,0.0,0.0,0.0,0.0507,0.8304,1.1599,1.1604,1.1597,1.1598,1.1368,0.9219,0.4905,0.0,0.0,0.0,0.0,0.0,0.0,0.0,0.0,0.0,0.0,0.0,0.0,0.0,0.0,0.0,0.0,0.0,0.0,0.0,0.0,0.0,0.0,0.0,0.0,0.0,0.0,0.0,0.0,0.0,0.0,0.0,0.0,0.0,0.0,0.0,0.2189,0.6252,1.2773,1.3398,1.3401,1.3399,1.3402,1.3471,1.3636,1.4061,1.43,1.43,1.43,1.43,1.4299,1.4299,1.4299,1.4299,1.4299,1.4299,1.4299,1.4299,1.4299,1.4299,1.4299,1.4299,1.4299,1.4299,1.4299,1.4299,1.4299,1.4299,1.4285,1.4188,1.4061,1.3927,0.0,0.0,0.0,0.0,0.0,0.0,0.0,0.0,0.0,0.0,0.0,0.0,0.0,0.0,0.0,0.0,0.0,0.0,0.0,0.0,0.0,0.0,0.0,0.0,0.0,0.0,0.0,0.0,0.0,0.0,0.0,0.0,0.0,0.0,0.0,0.0,0.0509,0.83,1.1601,1.1606,1.1599,1.16,1.0783,0.3219,0.0205,0.0,0.0,0.0,0.0,0.0,0.0,0.0,0.0,0.0,0.0,0.0,0.0,0.0,0.0,0.0,0.0,0.0,0.0,0.0,0.0,0.0,0.0,0.0,0.0,0.0,0.0,0.0,0.0,0.0,0.0,0.0,0.0,0.0,0.0,0.0,0.7685,1.3099,0.0,1.3396,1.3395,1.3396,1.3399,1.3654,1.4243,1.4286,1.43,1.4296,1.4303,1.4292,1.4299,1.4299,1.4299,1.4299,1.4299,1.4299,1.4299,1.4299,1.4299,1.4299,1.4299,1.4299,1.4299,1.4299,1.4299,1.4299,1.4299,1.4299,1.4299,1.4292,1.4292,1.4265,0.0,0.0,0.0,0.0,0.0,0.0,0.0,0.0,0.0,0.0,0.0,0.0,0.0,0.0,0.0,0.0,0.0,0.0,0.0,0.0,0.0,0.0,0.0,0.0,0.0,0.0,0.0,0.0,0.0,0.0,0.0,0.0,0.0,0.0,0.0,0.0,0.0173,0.2796,0.6881,1.1154,0.5983,0.6752,1.02,0.2808,0.0,0.0,0.0,0.0,0.0,0.0,0.0,0.0,0.0,0.0,0.0,0.0,0.0,0.0,0.0,0.0,0.0,0.0,0.0,0.0,0.0,0.0,0.0,0.0,0.0,0.0,0.0,0.0,0.0,0.0,0.0,0.0,0.0,0.0,0.0,0.0,0.7927,0.0,0.0,0.0,0.0,1.3403,1.3768,1.409,1.4286,1.4301,1.4306,1.4299,1.4299,1.4299,1.4299,1.4299,1.4299,1.4299,1.4305,1.4298,1.4313,1.4478,1.4568,1.4568,1.4568,1.4568,1.4561,1.4471,1.443,1.4417,1.4328,1.4299,1.4299,1.4299,1.4299,1.4292,0.0,0.0,0.0,0.0,0.0,0.0,0.0,0.0,0.0,0.0,0.0,0.0,0.0,0.0,0.0,0.0,0.0,0.0,0.0,0.0,0.0,0.0,0.0,0.0,0.0,0.0,0.0,0.0,0.0,0.0,0.0,0.0,0.0,0.0,0.0,0.0,0.0,0.0,0.289,0.7014,0.201,0.2762,0.6371,0.1755,0.0,0.0,0.0,0.0,0.0,0.0,0.0,0.0,0.0,0.0,0.0,0.0,0.0,0.0,0.0,0.0,0.0,0.0,0.0,0.0,0.0,0.0,0.0,0.0,0.0,0.0,0.0,0.0,0.0,0.0,0.0,0.0,0.0,0.0,0.1191,0.441,0.9889,1.3395,0.0,0.0,0.0,1.3402,1.3962,1.4303,1.4303,1.4306,1.4299,1.4299,1.4299,1.4299,1.4299,1.4299,1.4304,1.4296,1.4523,1.4509,1.4305,1.4706,1.4883,1.4872,1.4751,1.4728,1.4756,1.4683,1.4602,1.4554,1.4423,1.4362,1.4367,1.4319,1.4299,1.4299,0.0,0.0,0.0,0.0,0.0,0.0,0.0,0.0,0.0,0.0,0.0,0.0,0.0,0.0,0.0,0.0,0.0,0.0,0.0,0.0,0.0,0.0,0.0,0.0,0.0,0.0,0.0,0.0,0.0,0.0,0.0,0.0,0.0,0.0,0.0,0.0,0.0,0.0,0.0,0.0,0.0,0.0,0.0,0.0,0.0,0.0,0.0,0.0,0.0,0.0,0.0,0.0,0.0,0.0,0.0,0.0,0.0,0.0,0.0,0.0,0.0,0.0,0.0,0.0,0.0,0.0,0.0,0.0,0.0,0.0,0.0,0.0,0.0,0.0,0.0,0.0,0.0,0.0,0.3329,1.2324,1.3405,1.3401,0.0,0.0,0.0,1.3446,0.0,1.4296,1.4303,1.4299,1.4299,1.4299,1.4299,1.4317,1.4323,1.4308,1.4327,1.435,1.4931,1.4897,1.4377,1.4938,1.5203,1.5173,1.4858,1.4801,1.4915,1.492,1.4833,1.4717,1.4572,1.4493,1.4473,1.4349,1.4295,1.4299,0.0,0.0,0.0,0.0,0.0,0.0,0.0,0.0,0.0,0.0,0.0,0.0,0.0,0.0,0.0,0.0,0.0,0.0,0.0,0.0,0.0,0.0,0.0,0.0,0.0,0.0,0.0,0.0,0.0,0.0,0.0,0.0,0.0,0.0,0.0,0.0,0.0,0.0,0.0,0.0,0.0,0.0,0.0,0.0,0.0,0.0,0.0,0.0,0.0,0.0,0.0,0.0,0.0,0.0,0.0,0.0,0.0,0.0,0.0,0.0,0.0,0.0,0.0,0.0,0.0,0.0,0.0,0.0,0.0,0.0,0.0,0.0,0.0,0.0,0.0,0.0,0.0,0.0,0.3331,1.2335,1.3396,1.3404,1.3399,1.3809,0.0,0.0,1.4207,1.4296,1.4303,1.4299,1.4299,1.4299,1.4299,1.4397,1.4596,1.4394,1.4528,1.497,1.5133,1.5121,1.4984,1.513,1.52,1.52,1.5107,1.5095,1.5124,1.5126,1.5101,1.5041,1.4758,1.4532,1.4345,1.4312,1.4298,1.4299,0.0,0.0,0.0,0.0,0.0,0.0,0.0,0.0,0.0,0.0,0.0,0.0,0.0,0.0,0.0,0.0,0.0,0.0,0.0,0.0,0.0,0.0,0.0,0.0,0.0,0.0,0.0,0.0,0.0,0.0,0.0,0.0,0.0,0.0,0.0,0.0,0.0,0.0,0.0,0.0,0.0,0.0,0.0,0.0,0.0,0.0,0.0,0.0,0.0,0.0,0.0,0.0,0.0,0.0,0.0,0.0,0.0,0.0,0.0,0.0,0.0,0.0,0.0,0.0,0.0,0.0,0.0,0.0,0.0,0.0,0.0,0.0,0.0,0.0,0.0,0.0,0.0,0.3399,0.775,1.2802,1.3404,1.3495,1.3768,1.4099,1.4298,0.0,1.4297,1.4299,1.4292,1.4299,1.4299,1.4299,1.436,1.4473,1.4645,1.4543,1.4588,1.4813,1.5066,1.5199,1.5204,1.5204,1.5204,1.5204,0.0,1.5204,1.5197,1.5204,1.5193,1.518,1.4995,1.4833,1.466,1.4405,1.4296,1.4305,0.0,0.0,0.0,0.0,0.0,0.0,0.0,0.0,0.0,0.0,0.0,0.0,0.0,0.0,0.0,0.0,0.0,0.0,0.0,0.0,0.0,0.0,0.0,0.0,0.0,0.0,0.0,0.0,0.0,0.0,0.0,0.0,0.0,0.0,0.0,0.0,0.0,0.0,0.0,0.0,0.0,0.0,0.0,0.0,0.0,0.0,0.0,0.0,0.0,0.0,0.0,0.0,0.0,0.0,0.0,0.0,0.0,0.0,0.0,0.0,0.0,0.0,0.0,0.0,0.0,0.0,0.0,0.0,0.0,0.0,0.0,0.0,0.0,0.0,0.0,0.0,0.0,0.774,1.3408,1.3399,1.3471,1.3738,1.4243,1.4302,1.4306,1.4303,1.4299,1.4299,1.4299,1.4299,1.4295,1.4304,1.4489,1.4627,1.4675,1.4743,1.4654,1.4427,1.4956,1.5204,1.5204,1.5204,1.5204,1.5204,0.0,0.0,1.5204,1.5204,1.5204,1.5202,1.5203,1.5199,1.5142,1.4608,1.4368,1.43,0.0,0.0,0.0,0.0,0.0,0.0,0.0,0.0,0.0,0.0,0.0,0.0,0.0,0.0,0.0,0.0,0.0,0.0,0.0,0.0,0.0,0.0,0.0,0.0,0.0,0.0,0.0,0.0,0.0,0.0,0.0,0.0,0.0,0.0,0.0,0.0,0.0,0.0,0.0,0.0,0.0,0.0,0.0,0.0,0.0,0.0,0.0,0.0,0.0,0.0,0.0,0.0,0.0,0.0,0.0,0.0,0.0,0.0,0.0,0.0,0.0,0.0,0.0,0.0,0.0,0.0,0.0,0.0,0.0,0.0,0.0,0.0,0.0,0.0,0.0,0.0,0.0,0.7738,1.3404,1.3397,1.3838,1.4186,1.429,1.43,0.0,0.0,0.0,1.4299,1.4299,1.4299,1.4298,1.4301,1.4815,1.5082,1.5098,1.5107,1.5081,1.5046,1.5144,1.5204,1.5204,1.5204,1.5204,1.5204,0.0,0.0,1.5204,1.5204,1.5204,1.5204,1.52,1.5195,1.519,1.5082,1.473,1.43,0.0,0.0,0.0,0.0,0.0,0.0,0.0,0.0,0.0,0.0,0.0,0.0,0.0,0.0,0.0,0.0,0.0,0.0,0.0,0.0,0.0,0.0,0.0,0.0,0.0,0.0,0.0,0.0,0.0,0.0,0.0,0.0,0.0,0.0,0.0,0.0,0.0,0.0,0.0,0.0,0.0,0.0,0.0,0.0,0.0,0.0,0.0,0.0,0.0,0.0,0.0,0.0,0.0,0.0,0.0,0.0,0.0,0.0,0.0,0.0,0.0,0.0,0.0,0.0,0.0,0.0,0.0,0.0,0.0,0.0,0.0,0.0,0.0,0.0,0.0,0.0,0.0,0.7738,1.3401,1.34,1.3932,1.4302,1.4301,1.4302,1.4299,1.4299,0.0,1.4299,1.4299,1.43,1.4363,1.4494,1.4965,1.5197,1.5202,1.5194,1.5204,1.5204,1.5204,1.5204,1.5204,1.5204,1.5204,1.5204,1.5204,0.0,1.5204,1.5204,1.5204,1.5204,1.5204,1.5198,1.5202,1.5202,1.5024,1.4717,0.0,0.0,0.0,0.0,0.0,0.0,0.0,0.0,0.0,0.0,0.0,0.0,0.0,0.0,0.0,0.0,0.0,0.0,0.0,0.0,0.0,0.0,0.0,0.0,0.0,0.0,0.0,0.0,0.0,0.0,0.0,0.0,0.0,0.0,0.0,0.0,0.0,0.0,0.0,0.0,0.0,0.0,0.0,0.0,0.0,0.0,0.0,0.0,0.0,0.0,0.0,0.0,0.0,0.0,0.0,0.0,0.0,0.0,0.0,0.0,0.0,0.0,0.0,0.0,0.0,0.0,0.0,0.0,0.0,0.0,0.0,0.0,0.0,0.0,0.0,0.0,0.0,0.7738,1.3401,1.3408,1.393,1.4297,1.4305,1.4299,0.0,1.4299,0.0,0.0,1.4313,1.4307,1.4462,1.4795,1.5062,1.52,1.5204,1.5204,1.5204,1.5204,1.5204,1.5204,1.5204,1.5204,1.5204,1.5204,1.5204,0.0,0.0,1.5204,1.5204,1.5204,1.5204,1.5204,1.5204,1.5204,1.5197,1.513,0.0,0.0,0.0,0.0,0.0,0.0,0.0,0.0,0.0,0.0,0.0,0.0,0.0,0.0,0.0,0.0,0.0,0.0,0.0,0.0,0.0,0.0,0.0,0.0,0.0,0.0,0.0,0.0,0.0,0.0,0.0,0.0,0.0,0.0,0.0,0.0,0.0,0.0,0.0,0.0,0.0,0.0,0.0,0.0,0.0,0.0,0.0,0.0,0.0,0.0,0.0,0.0,0.0,0.0,0.0,0.0,0.0,0.0,0.0,0.0,0.0,0.0,0.0,0.0,0.0,0.0,0.0,0.0,0.0,0.0,0.0,0.0,0.0,0.0,0.0,0.0,0.0,0.7738,1.3401,1.3408,1.393,1.4297,1.4305,1.4299,1.4299,1.4299,0.0,0.0,1.4332,1.4297,1.456,1.5132,1.5181,1.5202,1.5204,1.5204,1.5204,1.5204,1.5204,1.5204,1.5204,1.5204,1.5204,1.5204,0.0,0.0,0.0,1.5204,1.5204,1.5204,1.5204,1.5204,1.5204,1.5204,1.5197,1.5197,0.0,0.0,0.0,0.0,0.0,0.0,0.0,0.0,0.0,0.0,0.0,0.0,0.0,0.0,0.0,0.0,0.0,0.0,0.0,0.0,0.0,0.0,0.0,0.0,0.0,0.0,0.0,0.0,0.0,0.0,0.0,0.0,0.0,0.0,0.0,0.0,0.0,0.0,0.0,0.0,0.0,0.0,0.0,0.0,0.0,0.0,0.0,0.0,0.0,0.0,0.0,0.0,0.0,0.0,0.0,0.0,0.0,0.0,0.0,0.0,0.0,0.0,0.0,0.0,0.0,0.0,0.0,0.0,0.0,0.0,0.0,0.0,0.0,0.0,0.0,0.0,0.0,0.7736,1.3398,1.3402,1.3933,1.4297,1.4305,1.4299,1.445,1.4814,0.0,0.0,1.4856,1.4845,1.4946,1.5193,1.52,1.5204,1.5204,1.5204,1.5204,1.5204,1.5204,1.5204,1.5204,1.5204,1.5204,1.5204,0.0,0.0,0.0,1.5204,1.5204,1.5204,1.5204,1.5204,1.5204,1.5204,1.5194,1.5202,0.0,0.0,0.0,0.0,0.0,0.0,0.0,0.0,0.0,0.0,0.0,0.0,0.0,0.0,0.0,0.0,0.0,0.0,0.0,0.0,0.0,0.0,0.0,0.0,0.0,0.0,0.0,0.0,0.0,0.0,0.0,0.0,0.0,0.0,0.0,0.0,0.0,0.0,0.0,0.0,0.0,0.0,0.0,0.0,0.0,0.0,0.0,0.0,0.0,0.0,0.0,0.0,0.0,0.0,0.0,0.0,0.0,0.0,0.0,0.0,0.0,0.0,0.0,0.0,0.0,0.0,0.0,0.0,0.0,0.0,0.0,0.0,0.0,0.0,0.0,0.0,0.0,0.7734,1.3394,1.34,1.3929,1.4297,1.4305,1.4306,1.4483,0.0,0.0,0.0,0.0,1.5201,1.5195,1.5204,1.5204,1.5204,1.5204,1.5204,1.5204,1.5204,1.5204,1.5204,1.5204,1.5204,1.5204,1.5204,0.0,0.0,0.0,1.5204,1.5204,1.5204,1.5204,1.5204,1.5204,1.5204,1.5204,1.5202,0.0,0.0,0.0,0.0,0.0,0.0,0.0,0.0,0.0,0.0,0.0,0.0,0.0,0.0,0.0,0.0,0.0,0.0,0.0,0.0,0.0,0.0,0.0,0.0,0.0,0.0,0.0,0.0,0.0,0.0,0.0,0.0,0.0,0.0,0.0,0.0,0.0,0.0,0.0,0.0,0.0,0.0,0.0,0.0,0.0,0.0,0.0,0.0,0.0,0.0,0.0,0.0,0.0,0.0,0.0,0.0,0.0,0.0,0.0,0.0,0.0,0.0,0.0,0.0,0.0,0.0,0.0,0.0,0.0,0.0,0.0,0.0,0.0,0.0,0.0,0.0,0.0,0.7733,1.3394,1.34,1.3929,1.4297,1.4305,1.4298,1.4293,0.0,0.0,0.0,0.0,1.5204,1.5204,1.5204,1.5204,1.5204,1.5204,1.5204,1.5204,1.5204,1.5204,1.5204,1.5204,1.5204,1.5204,0.0,0.0,0.0,0.0,1.5204,1.5204,1.5204,1.5204,1.5204,1.5204,1.5204,1.5204,1.5204,0.0,0.0,0.0,0.0,0.0,0.0,0.0,0.0,0.0,0.0,0.0,0.0,0.0,0.0,0.0,0.0,0.0,0.0,0.0,0.0,0.0,0.0,0.0,0.0,0.0,0.0,0.0,0.0,0.0,0.0,0.0,0.0,0.0,0.0,0.0,0.0,0.0,0.0,0.0,0.0,0.0,0.0,0.0,0.0,0.0,0.0,0.0,0.0,0.0,0.0,0.0,0.0,0.0,0.0,0.0,0.0,0.0,0.0,0.0,0.0,0.0,0.0,0.0,0.0,0.0,0.0,0.0,0.0,0.0,0.0,0.0,0.0,0.0,0.0,0.0,0.0,0.0,0.7733,1.3394,1.34,1.3922,1.4296,1.4303,0.0,1.4469,0.0,0.0,0.0,0.0,1.5204,1.5204,1.5204,1.5204,1.5204,1.5204,1.5204,1.5204,1.5204,1.5204,1.5204,1.5204,1.5204,0.0,0.0,0.0,0.0,0.0,1.5204,1.5204,1.5204,1.5204,1.5204,1.5204,1.5204,1.5204,1.5204,0.0,0.0,0.0,0.0,0.0,0.0,0.0,0.0,0.0,0.0,0.0,0.0,0.0,0.0,0.0,0.0,0.0,0.0,0.0,0.0,0.0,0.0,0.0,0.0,0.0,0.0,0.0,0.0,0.0,0.0,0.0,0.0,0.0,0.0,0.0,0.0,0.0,0.0,0.0,0.0,0.0,0.0,0.0,0.0,0.0,0.0,0.0,0.0,0.0,0.0,0.0,0.0,0.0,0.0,0.0,0.0,0.0,0.0,0.0,0.0,0.0,0.0,0.0,0.0,0.0,0.0,0.0,0.0,0.0,0.0,0.0,0.0,0.0,0.0,0.0,0.1186,0.4576,0.9872,1.3476,1.3708,1.4068,1.4299,0.0,1.4296,0.0,0.0,0.0,0.0,0.0,1.5204,1.5204,1.5204,1.5204,1.5204,1.5204,1.5204,1.5204,1.5204,1.5204,1.5204,1.5204,1.5204,0.0,0.0,0.0,0.0,0.0,1.5204,1.5204,1.5204,1.5204,1.5204,1.5204,1.5204,1.5204,1.5204,0.0,0.0,0.0,0.0,0.0,0.0,0.0,0.0,0.0,0.0,0.0,0.0,0.0,0.0,0.0,0.0,0.0,0.0,0.0,0.0,0.0,0.0,0.0,0.0,0.0,0.0,0.0,0.0,0.0,0.0,0.0,0.0,0.0,0.0,0.0,0.0,0.0,0.0,0.0,0.0,0.0,0.0,0.0,0.0,0.0,0.0,0.0,0.0,0.0,0.0,0.0,0.0,0.0,0.0,0.0,0.0,0.0,0.0,0.0,0.0,0.0,0.0,0.0,0.0,0.0,0.0,0.0,0.0,0.0,0.0,0.0,0.0,0.0,0.0,0.0,0.3141,1.2145,1.3398,1.3613,1.4234,1.4301,0.0,1.4299,0.0,0.0,0.0,0.0,0.0,0.0,1.5204,1.5204,1.5204,1.5204,1.5204,1.5204,1.5204,1.5204,1.5204,1.5204,1.5204,1.5204,1.5204,0.0,0.0,0.0,0.0,0.0,1.5204,1.5204,1.5204,1.5204,1.5204,1.5204,1.5204,1.5204,1.5204,0.0,0.0,0.0,0.0,0.0,0.0,0.0,0.0,0.0,0.0,0.0,0.0,0.0,0.0,0.0,0.0,0.0,0.0,0.0,0.0,0.0,0.0,0.0,0.0,0.0,0.0,0.0,0.0,0.0,0.0,0.0,0.0,0.0,0.0,0.0,0.0,0.0,0.0,0.0,0.0,0.0,0.0,0.0,0.0,0.0,0.0,0.0,0.0,0.0,0.0,0.0,0.0,0.0,0.0,0.0,0.0,0.0,0.0,0.0,0.0,0.0,0.0,0.0,0.0,0.0,0.0,0.0,0.0,0.0,0.0,0.0,0.0,0.0,0.0,0.0,0.314,1.2141,1.3401,1.3617,1.4223,1.4301,1.4299,1.4299,0.0,0.0,0.0,0.0,0.0,0.0,1.5204,1.5204,1.5204,1.5204,1.5204,1.5204,1.5204,1.5204,1.5204,1.5204,1.5204,1.5204,1.5204,0.0,0.0,0.0,0.0,1.5204,1.5204,1.5204,1.5204,1.5204,1.5204,1.5204,1.5204,1.5204,1.5204,0.0,0.0,0.0,0.0,0.0,0.0,0.0,0.0,0.0,0.0,0.0,0.0,0.0,0.0,0.0,0.0,0.0,0.0,0.0,0.0,0.0,0.0,0.0,0.0,0.0,0.0,0.0,0.0,0.0,0.0,0.0,0.0,0.0,0.0,0.0,0.0,0.0,0.0,0.0,0.0,0.0,0.0,0.0,0.0,0.0,0.0,0.0,0.0,0.0,0.0,0.0,0.0,0.0,0.0,0.0,0.0,0.0,0.0,0.0,0.0,0.0,0.0,0.0,0.0,0.0,0.0,0.0,0.0,0.0,0.0,0.0,0.0,0.0,0.0,0.0,0.314,1.2139,1.3403,1.3623,1.4226,1.4301,1.4299,0.0,0.0,0.0,0.0,0.0,0.0,0.0,1.5204,1.5204,1.5204,1.5204,1.5204,1.5204,1.5204,1.5204,1.5204,1.5204,1.5204,1.5204,1.5204,0.0,0.0,0.0,0.0,1.5204,1.5204,1.5204,1.5204,1.5204,1.5204,1.5204,1.5204,1.5204,1.5204,0.0,0.0,0.0,0.0,0.0,0.0,0.0,0.0,0.0,0.0,0.0,0.0,0.0,0.0,0.0,0.0,0.0,0.0,0.0,0.0,0.0,0.0,0.0,0.0,0.0,0.0,0.0,0.0,0.0,0.0,0.0,0.0,0.0,0.0,0.0,0.0,0.0,0.0,0.0,0.0,0.0,0.0,0.0,0.0,0.0,0.0,0.0,0.0,0.0,0.0,0.0,0.0,0.0,0.0,0.0,0.0,0.0,0.0,0.0,0.0,0.0,0.0,0.0,0.0,0.0,0.0,0.0,0.0,0.0,0.0,0.0,0.0967,0.1768,0.1767,0.1848,0.4603,1.2321,1.3398,1.3623,1.4226,1.4301,0.0,0.0,0.0,0.0,0.0,0.0,0.0,0.0,1.5204,1.5204,1.5204,1.5204,1.5204,1.5204,1.5204,1.5204,1.5204,1.5204,1.5204,1.5204,1.5204,1.5204,0.0,0.0,0.0,1.5204,1.5204,1.5204,1.5204,1.5204,1.5204,1.5204,1.5204,1.5204,1.5192,0.0,0.0,0.0,0.0,0.0,0.0,0.0,0.0,0.0,0.0,0.0,0.0,0.0,0.0,0.0,0.0,0.0,0.0,0.0,0.0,0.0,0.0,0.0,0.0,0.0,0.0,0.0,0.0,0.0,0.0,0.0,0.0,0.0,0.0,0.0,0.0,0.0,0.0,0.0,0.0,0.0,0.0,0.0,0.0,0.0,0.0,0.0,0.0,0.0,0.0,0.0,0.0,0.0,0.0,0.0,0.0,0.0,0.0,0.0,0.0,0.0,0.0,0.0,0.0,0.0,0.0,0.0,0.0,0.0,0.0,0.0,0.5385,0.9822,0.9819,1.025,1.1246,0.0,0.0,1.3623,1.4226,0.0,0.0,0.0,0.0,0.0,0.0,0.0,0.0,0.0,1.5204,1.5204,1.5204,1.5204,1.5204,1.5204,1.5204,1.5204,1.5204,1.5204,1.5204,1.5204,1.5204,1.5204,0.0,0.0,1.5204,1.5204,1.5204,1.5204,1.5204,1.5204,1.5204,1.5204,1.5204,1.5204,1.5125,0.0,0.0,0.0,0.0,0.0,0.0,0.0,0.0,0.0,0.0,0.0,0.0,0.0,0.0,0.0,0.0,0.0,0.0,0.0,0.0,0.0,0.0,0.0,0.0,0.0,0.0,0.0,0.0,0.0,0.0,0.0,0.0,0.0,0.0,0.0,0.0,0.0,0.0,0.0,0.0,0.0,0.0,0.0,0.0,0.0,0.0,0.0,0.0,0.0,0.0,0.0,0.0,0.0,0.0,0.0,0.0,0.0,0.0,0.0,0.0,0.0,0.0,0.0,0.0,0.0,0.0,0.0,0.0,0.0,0.1288,0.5495,0.9193,1.022,0.6016,0.0,1.3081,1.3357,1.3403,1.3618,0.0,0.0,0.0,0.0,0.0,0.0,0.0,0.0,0.0,0.0,0.0,1.5204,1.5204,1.5204,1.5204,1.5204,1.5204,1.5204,1.5204,1.5204,1.5204,1.5204,1.5204,1.5204,1.5204,0.0,1.5204,1.5204,1.5204,1.5204,1.5204,1.5204,1.5204,1.5204,1.5204,1.5204,1.5123,0.0,0.0,0.0,0.0,0.0,0.0,0.0,0.0,0.0,0.0,0.0,0.0,0.0,0.0,0.0,0.0,0.0,0.0,0.0,0.0,0.0,0.0,0.0,0.0,0.0,0.0,0.0,0.0,0.0,0.0,0.0,0.0,0.0,0.0,0.0,0.0,0.0,0.0,0.0,0.0,0.0,0.0,0.0,0.0,0.0,0.0,0.0,0.0,0.0,0.0,0.0,0.0,0.0,0.0,0.0,0.0,0.0,0.0,0.0,0.0,0.0,0.0,0.0,0.0,0.0,0.0,0.0,0.0,0.0,0.2422,1.0352,1.1811,0.9862,0.3898,0.8825,1.3396,1.3396,1.3527,0.0,0.0,0.0,0.0,0.0,0.0,0.0,0.0,0.0,0.0,0.0,0.0,1.5204,1.5204,1.5204,1.5204,1.5204,1.5204,1.5204,1.5204,1.5204,1.5204,1.5204,1.5204,1.5204,1.5204,1.5204,1.5204,1.5204,1.5204,1.5204,1.5204,1.5204,1.5204,1.5204,1.5204,1.5172,1.5081,0.0,0.0,0.0,0.0,0.0,0.0,0.0,0.0,0.0,0.0,0.0,0.0,0.0,0.0,0.0,0.0,0.0,0.0,0.0,0.0,0.0,0.0,0.0,0.0,0.0,0.0,0.0,0.0,0.0,0.0,0.0,0.0,0.0,0.0,0.0,0.0,0.0,0.0,0.0,0.0,0.0,0.0,0.0,0.0,0.0,0.0,0.0,0.0,0.0,0.0,0.0,0.0,0.0,0.0,0.0,0.0,0.0,0.0,0.0,0.0,0.0,0.0,0.0,0.0,0.0,0.0,0.0,0.0,0.0,0.2551,1.0896,1.2445,1.2245,1.1688,1.2609,1.3394,1.3405,0.0,0.0,0.0,0.0,0.0,0.0,0.0,0.0,0.0,0.0,0.0,0.0,0.0,0.0,1.5204,1.5204,1.5204,1.5204,1.5204,1.5204,1.5204,1.5204,1.5204,1.5204,1.5204,1.5204,1.5204,1.5204,1.5204,1.5204,1.5204,1.5204,1.5204,1.5204,1.5204,1.5204,1.5204,1.5076,1.4887,0.0,0.0,0.0,0.0,0.0,0.0,0.0,0.0,0.0,0.0,0.0,0.0,0.0,0.0,0.0,0.0,0.0,0.0,0.0,0.0,0.0,0.0,0.0,0.0,0.0,0.0,0.0,0.0,0.0,0.0,0.0,0.0,0.0,0.0,0.0,0.0,0.0,0.0,0.0,0.0,0.0,0.0,0.0,0.0,0.0,0.0,0.0,0.0,0.0,0.0,0.0,0.0,0.0,0.0,0.0,0.0,0.0,0.0,0.0,0.0,0.0,0.0,0.0,0.0,0.0,0.0,0.1368,0.622,0.7214,0.8299,1.1846,1.2501,1.2621,1.3007,1.3251,1.3401,1.3398,0.0,0.0,0.0,0.0,0.0,0.0,0.0,0.0,0.0,0.0,0.0,0.0,0.0,0.0,1.5204,1.5204,1.5204,1.5204,1.5204,1.5204,1.5204,1.5204,1.5204,1.5204,1.5204,1.5204,1.5204,1.5204,1.5204,1.5204,1.5204,1.5204,1.5204,1.5204,1.5204,1.5204,1.5204,1.5104,1.4927,0.0,0.0,0.0,0.0,0.0,0.0,0.0,0.0,0.0,0.0,0.0,0.0,0.0,0.0,0.0,0.0,0.0,0.0,0.0,0.0,0.0,0.0,0.0,0.0,0.0,0.0,0.0,0.0,0.0,0.0,0.0,0.0,0.0,0.0,0.0,0.0,0.0,0.0,0.0,0.0,0.0,0.0,0.0,0.0,0.0,0.0,0.0,0.0,0.0,0.0,0.0,0.0,0.0,0.0,0.0,0.0,0.0,0.0,0.0,0.0,0.0,0.0,0.0,0.0,0.0,0.1904,0.5168,1.0496,1.1751,1.2014,1.2416,1.2663,0.0,0.0,1.3398,1.3396,0.0,0.0,0.0,0.0,0.0,0.0,0.0,0.0,0.0,0.0,0.0,0.0,0.0,0.0,0.0,0.0,1.5204,1.5204,1.5204,1.5204,1.5204,1.5204,1.5204,1.5204,1.5204,1.5204,1.5204,1.5204,1.5204,1.5204,1.5204,1.5204,1.5204,1.5204,1.5204,1.5204,1.5186,1.5157,1.5036,1.4875,0.0,0.0,0.0,0.0,0.0,0.0,0.0,0.0,0.0,0.0,0.0,0.0,0.0,0.0,0.0,0.0,0.0,0.0,0.0,0.0,0.0,0.0,0.0,0.0,0.0,0.0,0.0,0.0,0.0,0.0,0.0,0.0,0.0,0.0,0.0,0.0,0.0,0.0,0.0,0.0,0.0,0.0,0.0,0.0,0.0,0.0,0.0,0.0,0.0,0.0,0.0,0.0,0.0,0.0,0.0,0.0,0.0,0.0,0.0,0.0,0.0,0.0,0.0,0.0018,0.0092,0.607,1.1603,1.1606,1.2084,1.25,1.2511,1.3006,0.0,0.0,0.0,0.0,0.0,0.0,0.0,0.0,0.0,0.0,0.0,0.0,0.0,0.0,0.0,0.0,0.0,0.0,0.0,0.0,1.5204,1.5204,1.5204,1.5204,1.5204,1.5204,1.5204,1.5204,1.5204,1.5204,1.5204,1.5204,1.5204,1.5204,1.5204,1.5204,1.5204,1.5204,1.5204,1.5204,1.5179,1.5048,1.4875,1.4685,0.0,0.0,0.0,0.0,0.0,0.0,0.0,0.0,0.0,0.0,0.0,0.0,0.0,0.0,0.0,0.0,0.0,0.0,0.0,0.0,0.0,0.0,0.0,0.0,0.0,0.0,0.0,0.0,0.0,0.0,0.0,0.0,0.0,0.0,0.0,0.0,0.0,0.0,0.0,0.0,0.0,0.0,0.0,0.0,0.0,0.0,0.0,0.0,0.0,0.0,0.0,0.0,0.0,0.0,0.0,0.0,0.0,0.0,0.0,0.0,0.0,0.0,0.0,0.143,0.6906,0.9944,1.1722,1.2148,1.238,1.2628,1.3054,1.3281,0.0,0.0,0.0,0.0,0.0,0.0,0.0,0.0,0.0,0.0,0.0,0.0,0.0,0.0,0.0,0.0,0.0,0.0,0.0,0.0,1.5203,1.5204,1.5204,1.5204,1.5204,1.5204,1.5204,1.5204,1.5204,1.5204,1.5204,1.5204,1.5204,1.5204,1.5204,1.5204,1.5204,1.5204,1.5204,1.5204,1.5179,1.5048,1.4875,1.4685,0.0,0.0,0.0,0.0,0.0,0.0,0.0,0.0,0.0,0.0,0.0,0.0,0.0,0.0,0.0,0.0,0.0,0.0,0.0,0.0,0.0,0.0,0.0,0.0,0.0,0.0,0.0,0.0,0.0,0.0,0.0,0.0,0.0,0.0,0.0,0.0,0.0,0.0,0.0,0.0,0.0,0.0,0.0,0.0,0.0,0.0,0.0,0.0,0.0,0.0,0.0,0.0,0.0,0.0,0.0,0.0,0.0,0.0,0.0,0.0,0.0746,0.3835,0.461,0.5895,1.0826,0.9384,0.8041,1.1743,1.2686,1.2972,1.3332,1.3401,0.0,0.0,0.0,0.0,0.0,0.0,0.0,0.0,0.0,0.0,0.0,0.0,0.0,0.0,0.0,0.0,0.0,0.0,0.0,0.0,1.5198,1.5197,1.5204,1.5204,1.5204,1.5204,1.5204,1.5204,1.5204,1.5204,1.5204,1.5204,1.5204,1.5204,1.5204,1.5204,1.5204,1.5204,1.5204,1.5204,1.5172,1.4957,1.4798,1.4678,0.0,0.0,0.0,0.0,0.0,0.0,0.0,0.0,0.0,0.0,0.0,0.0,0.0,0.0,0.0,0.0,0.0,0.0,0.0,0.0,0.0,0.0,0.0,0.0,0.0,0.0,0.0,0.0,0.0,0.0,0.0,0.0,0.0,0.0,0.0,0.0,0.0,0.0,0.0,0.0,0.0,0.0,0.0,0.0,0.0,0.0,0.0,0.0,0.0,0.0,0.0,0.0,0.0,0.0,0.0,0.0,0.0501,0.1053,0.1053,0.1061,0.2753,0.9838,1.1641,1.1833,1.2368,0.6608,0.3304,1.0929,1.2981,1.34,1.3397,1.3401,1.3403,0.0,0.0,0.0,0.0,0.0,0.0,0.0,0.0,0.0,0.0,0.0,0.0,0.0,0.0,0.0,0.0,0.0,0.0,0.0,1.5172,1.5201,1.5195,1.5197,1.5204,0.0,1.5204,1.5204,1.5204,1.5204,1.5204,1.5204,1.5204,1.5204,1.5204,1.5204,1.5204,1.5204,1.5204,1.5186,1.5126,1.4819,1.4687,1.4656,0.0,0.0,0.0,0.0,0.0,0.0,0.0,0.0,0.0,0.0,0.0,0.0,0.0,0.0,0.0,0.0,0.0,0.0,0.0,0.0,0.0,0.0,0.0,0.0,0.0,0.0,0.0,0.0,0.0,0.0,0.0,0.0,0.0,0.0,0.0,0.0,0.0,0.0,0.0,0.0,0.0,0.0,0.0,0.0,0.0,0.0,0.0,0.0,0.0,0.0,0.0,0.0,0.0,0.0,0.0,0.0,0.4322,0.9102,0.9102,0.9104,0.951,1.1182,1.196,1.2342,1.2472,1.1104,1.0319,1.2127,1.2977,1.3404,1.3401,1.3397,0.0,0.0,0.0,0.0,0.0,0.0,0.0,0.0,0.0,0.0,0.0,0.0,0.0,0.0,0.0,0.0,0.0,0.0,0.0,1.4491,1.4952,1.5199,1.5199,1.5197,1.5204,0.0,1.5204,1.5204,1.5204,1.5204,1.5204,1.5204,1.5204,1.5204,1.5204,1.5204,1.5204,1.5204,1.5204,1.5101,1.4944,1.4773,1.4631,1.4525,0.0,0.0,0.0,0.0,0.0,0.0,0.0,0.0,0.0,0.0,0.0,0.0,0.0,0.0,0.0,0.0,0.0,0.0,0.0,0.0,0.0,0.0,0.0,0.0,0.0,0.0,0.0,0.0,0.0,0.0,0.0,0.0,0.0,0.0,0.0,0.0,0.0,0.0,0.0,0.0,0.0,0.0,0.0,0.0,0.0,0.0,0.0,0.0,0.0,0.0,0.0,0.0,0.0,0.0,0.0,0.0,0.5511,1.1599,1.1601,1.1601,1.1599,1.1606,1.2051,1.2494,1.2498,1.2506,1.2582,1.2866,1.3176,1.3401,1.3407,1.3403,0.0,0.0,0.0,0.0,0.0,0.0,0.0,0.0,0.0,0.0,0.0,0.0,0.0,0.0,0.0,0.0,0.0,1.43,1.4301,1.43,1.4608,1.4907,1.5197,1.5195,1.5204,1.5204,1.5204,1.5204,1.5204,1.5204,1.5204,1.5204,1.5204,1.5204,1.5204,1.5204,1.5204,1.5204,1.5204,1.5034,1.4793,1.4691,1.4588,1.4478,0.0,0.0,0.0,0.0,0.0,0.0,0.0,0.0,0.0,0.0,0.0,0.0,0.0,0.0,0.0,0.0,0.0,0.0,0.0,0.0,0.0,0.0,0.0,0.0,0.0,0.0,0.0,0.0,0.0,0.0,0.0,0.0,0.0,0.0,0.0,0.0,0.0,0.0,0.0,0.0,0.0,0.0,0.0,0.0,0.0,0.0,0.0,0.0,0.0,0.0,0.0,0.0,0.0,0.0,0.0,0.0,0.4558,0.9894,1.1246,1.1599,1.1597,1.1599,1.2051,1.2496,1.2501,1.2496,1.2668,1.328,1.3399,1.3398,1.3397,1.3403,0.0,0.0,0.0,0.0,0.0,0.0,0.0,0.0,0.0,0.0,0.0,0.0,0.0,0.0,0.0,0.0,1.4299,1.4299,1.4298,1.4301,1.4294,1.4584,1.519,1.5195,1.5207,1.5204,1.5204,1.5204,1.5204,1.5204,1.5204,1.5204,1.5204,1.5204,1.5204,1.5204,1.5204,1.5192,1.5142,1.4935,1.4683,1.4605,1.4536,1.445,0.0,0.0,0.0,0.0,0.0,0.0,0.0,0.0,0.0,0.0,0.0,0.0,0.0,0.0,0.0,0.0,0.0,0.0,0.0,0.0,0.0,0.0,0.0,0.0,0.0,0.0,0.0,0.0,0.0,0.0,0.0,0.0,0.0,0.0,0.0,0.0,0.0,0.0,0.0,0.0,0.0,0.0,0.0,0.0,0.0,0.0,0.0,0.0,0.0,0.0,0.0,0.0,0.0,0.0,0.0,0.0,0.0737,0.3018,0.9767,1.1604,1.1597,1.1599,1.2051,1.2496,1.2501,1.2496,1.2668,1.328,1.34,1.3397,1.3397,0.0,0.0,0.0,0.0,0.0,0.0,0.0,0.0,0.0,0.0,0.0,0.0,0.0,0.0,0.0,0.0,0.0,1.4299,1.4299,1.4295,1.4304,1.4294,1.4595,1.5192,1.5195,1.5205,1.5204,1.5204,1.5204,1.5204,1.5204,1.5204,1.5204,1.5204,1.5204,1.5204,1.5204,1.5204,1.5167,1.4875,1.4741,1.4685,1.4563,1.4426,1.4326,0.0,0.0,0.0,0.0,0.0,0.0,0.0,0.0,0.0,0.0,0.0,0.0,0.0,0.0,0.0,0.0,0.0,0.0,0.0,0.0,0.0,0.0,0.0,0.0,0.0,0.0,0.0,0.0,0.0,0.0,0.0,0.0,0.0,0.0,0.0,0.0,0.0,0.0,0.0,0.0,0.0,0.0,0.0,0.0,0.0,0.0,0.0,0.0,0.0,0.0,0.0,0.0,0.0,0.0,0.0,0.0,0.0,0.0746,0.4171,0.8276,1.1597,1.1599,1.2051,1.2496,1.2501,1.2496,1.2668,1.328,1.3404,1.3403,1.3403,0.0,0.0,0.0,0.0,0.0,0.0,0.0,0.0,0.0,0.0,0.0,0.0,0.0,0.0,0.0,0.0,1.4299,1.4299,1.4299,1.4299,1.4299,1.4301,1.4431,1.4697,1.5025,1.52,1.5193,1.5205,1.5204,1.5204,1.5204,1.5204,1.5204,1.5204,1.5204,1.5204,1.5204,1.5204,1.5155,1.4663,1.4482,1.4474,1.4406,1.4354,1.4299,0.0,0.0,0.0,0.0,0.0,0.0,0.0,0.0,0.0,0.0,0.0,0.0,0.0,0.0,0.0,0.0,0.0,0.0,0.0,0.0,0.0,0.0,0.0,0.0,0.0,0.0,0.0,0.0,0.0,0.0,0.0,0.0,0.0,0.0,0.0,0.0,0.0,0.0,0.0,0.0,0.0,0.0,0.0218,0.2193,0.1719,0.0,0.0,0.0,0.0,0.0,0.0,0.0,0.0,0.0,0.0,0.0,0.0,0.0,0.0,0.5675,1.1603,1.1594,1.2049,1.2498,1.2498,1.2501,1.2669,1.3283,1.3397,1.3397,1.3407,1.3403,0.0,0.0,0.0,0.0,0.0,0.0,0.0,0.0,0.0,0.0,0.0,0.0,0.0,0.0,0.0,1.4299,1.4299,1.4299,1.4299,1.4299,1.43,1.4301,1.43,1.4744,1.5048,1.52,1.5199,1.52,1.52,1.52,1.52,1.5195,1.52,1.5204,1.5204,1.5204,1.5195,1.516,1.4709,1.4441,1.43,1.4307,1.4298,1.4299,0.0,0.0,0.0,0.0,0.0,0.0,0.0,0.0,0.0,0.0,0.0,0.0,0.0,0.0,0.0,0.0,0.0,0.0,0.0,0.0,0.0,0.0,0.0,0.0,0.0,0.0,0.0,0.0,0.0,0.0,0.0,0.0,0.0,0.0,0.0,0.0,0.0,0.0,0.0,0.0,0.0,0.0,0.0808,0.8187,0.6422,0.0,0.0,0.0,0.0,0.0,0.0,0.0,0.0,0.0,0.0,0.0,0.0,0.0,0.0,0.5679,1.1599,1.16,1.2053,1.2499,1.2498,1.2499,1.2671,1.3282,1.3405,1.3398,1.3397,1.3403,0.0,0.0,0.0,0.0,0.0,0.0,0.0,0.0,0.0,0.0,0.0,0.0,0.0,0.0,0.0,1.4299,1.4299,1.4299,1.4299,1.4299,1.4295,1.4296,1.43,1.4323,1.4626,1.5201,1.5196,1.5203,1.5203,1.5203,1.5203,1.5206,1.5205,1.5204,1.5204,1.5204,1.5199,1.5202,1.5165,1.4801,1.43,1.4293,1.4295,1.4299,0.0,0.0,0.0,0.0,0.0,0.0,0.0,0.0,0.0,0.0,0.0,0.0,0.0,0.0,0.0,0.0,0.0,0.0,0.0,0.0,0.0,0.0,0.0,0.0,0.0,0.0,0.0,0.0,0.0,0.0,0.0,0.0,0.0,0.0,0.0,0.0,0.0,0.0,0.0,0.0,0.0,0.2987,0.7747,1.0541,0.0,0.0,0.0,0.0,0.0,0.0,0.0,0.0,0.0,0.0,0.0,0.0,0.0,0.0,0.0,0.2034,0.5356,1.0351,1.1757,1.2021,1.2416,1.2502,1.2558,1.2782,1.3128,1.3401,1.3407,1.3403,1.3402,0.0,0.0,0.0,0.0,0.0,0.0,0.0,0.0,0.0,0.0,0.0,0.0,0.0,0.0,0.0,1.4299,1.4299,1.4299,1.4299,1.4299,1.4304,1.4296,1.4303,1.441,1.462,1.4624,1.4626,1.4626,1.4626,1.4626,1.4614,1.4619,1.4838,1.5197,1.5197,1.5204,1.5165,1.4772,1.4489,1.4298,1.4298,1.4299,1.4299,0.0,0.0,0.0,0.0,0.0,0.0,0.0,0.0,0.0,0.0,0.0,0.0,0.0,0.0,0.0,0.0,0.0,0.0,0.0,0.0,0.0,0.0,0.0,0.0,0.0,0.0,0.0,0.0,0.0,0.0,0.0,0.0,0.0,0.0,0.0,0.0,0.0,0.0,0.0,0.0,0.0,0.4655,1.1597,1.1597,0.0,0.0,0.0,0.0,0.0,0.0,0.0,0.0,0.0,0.0,0.0,0.0,0.0,0.0,0.0,0.0,0.1244,0.6412,0.9667,1.1754,1.2359,1.2502,1.25,1.2506,1.2976,1.3396,1.3405,1.3401,1.3399,1.34,0.0,0.0,0.0,0.0,0.0,0.0,0.0,0.0,0.0,0.0,0.0,0.0,0.0,0.0,1.4299,1.4299,1.4299,1.4299,1.4299,1.4299,1.4299,1.4305,1.4301,1.4301,1.43,1.4302,1.4302,1.4302,1.4302,1.4302,1.4302,1.4531,1.4906,1.4906,1.4901,1.4862,1.446,1.4296,1.4305,1.4299,1.4299,1.4299,0.0,0.0,0.0,0.0,0.0,0.0,0.0,0.0,0.0,0.0,0.0,0.0,0.0,0.0,0.0,0.0,0.0,0.0,0.0,0.0,0.0,0.0,0.0,0.0,0.0,0.0,0.0,0.0,0.0,0.0,0.0,0.0,0.0,0.0,0.0,0.0,0.0,0.0,0.0,0.0018,0.0254,0.4861,1.1599,0.0,0.0,0.0,1.1518,1.1599,0.0,1.1604,0.0,0.0,0.0,0.0,0.0,0.0,0.0164,0.0291,0.0,0.0,0.0,0.0343,0.6019,1.1751,1.234,1.2491,1.2504,1.2498,1.2973,1.3382,1.3396,1.3398,1.3403,1.3404,1.3406,0.0,0.0,0.0,0.0,0.0,0.0,0.0,0.0,0.0,0.0,0.0,0.0,1.4299,1.4299,1.4299,1.4299,1.4299,1.4299,1.4299,1.4299,1.4299,1.4299,1.4299,1.4299,1.4299,1.4299,1.4299,1.4299,1.4299,1.4299,1.4298,1.4291,1.4291,1.4303,1.4294,1.4294,1.4298,1.4299,1.4299,1.4299,1.4299,0.0,0.0,0.0,0.0,0.0,0.0,0.0,0.0,0.0,0.0,0.0,0.0,0.0,0.0,0.0,0.0,0.0,0.0,0.0,0.0,0.0,0.0,0.0,0.0,0.0,0.0,0.0,0.0,0.0,0.0,0.0,0.0,0.0,0.0,0.0,0.0,0.0,0.0,0.0,0.0492,0.6125,0.968,0.0,0.0,0.0,0.0,0.0,1.1597,1.1599,0.0,1.1602,1.1602,0.0,0.0,0.0,0.0,0.0,0.7167,0.1531,0.0,0.0,0.0,0.0,0.0,1.1813,1.2192,1.2504,1.2498,1.2631,1.2884,1.3325,1.3397,1.3401,1.3396,1.3397,1.3608,0.0,0.0,0.0,0.0,0.0,0.0,0.0,0.0,0.0,0.0,1.4299,1.4299,1.4299,1.4299,1.4299,1.4299,1.4299,1.4299,1.4299,1.4299,1.4299,1.4299,1.4299,1.4299,1.4299,1.4299,1.4299,1.4299,1.4299,1.4302,1.4298,1.4298,1.4305,1.4304,1.4304,1.4299,1.4299,1.4299,1.4299,1.4299,0.0,0.0,0.0,0.0,0.0,0.0,0.0,0.0,0.0,0.0,0.0,0.0,0.0,0.0,0.0,0.0,0.0,0.0,0.0,0.0,0.0,0.0,0.0,0.0,0.0,0.0,0.0,0.0,0.0,0.0,0.0,0.0,0.0,0.0,0.0,0.1799,0.4838,0.4839,0.4839,0.0,0.6239,0.0,0.0,1.1602,0.8782,0.0,0.0,0.0,1.1602,1.1602,1.1602,0.0,0.0,0.0,0.0,0.0,0.0,1.0616,0.6069,0.8149,1.1602,1.1602,0.0,0.0,1.1602,1.2071,1.2498,0.0,1.25,1.2611,1.2956,1.3233,1.3401,1.3398,1.3399,1.3524,0.0,0.0,0.0,0.0,0.0,0.0,0.0,1.4299,0.0,1.4299,1.4299,1.4299,1.4299,1.4299,1.4299,1.4299,1.4299,1.4299,1.4299,1.4299,1.4299,1.4299,1.4299,1.4299,1.4299,1.4299,1.4299,1.4299,1.4299,1.4299,1.4299,1.4299,1.4299,1.4299,1.4299,1.4299,1.4299,1.4299,1.4299,1.4299,0.0,0.0,0.0,0.0,0.0,0.0,0.0,0.0,0.0,0.0,0.0,0.0,0.0,0.0,0.0,0.0,0.0,0.0,0.0,0.0,0.0,0.0,0.0,0.0,0.0,0.0,0.0,0.0,0.0,0.0,0.0,0.0,0.0,0.0036,0.0898,0.5126,1.1601,1.1602,0.0,1.1003,0.4072,0.5427,0.0,0.0,1.1597,1.1602,1.1606,1.1606,1.1604,1.1602,1.1606,0.0,0.0,0.0,0.0,0.0,1.1602,1.1606,1.1597,1.1597,1.1602,1.1599,1.1602,0.0,1.1604,1.2012,1.2421,0.0,1.2501,1.2498,1.2502,1.2939,1.3315,1.3386,1.3405,1.3399,1.34,0.0,0.0,0.0,0.0,0.0,1.4302,1.4301,1.4307,1.4299,1.4299,1.4299,1.4299,1.4299,1.4299,1.4299,1.4299,1.4299,1.4299,1.4299,1.4299,1.4299,1.4299,1.4299,1.4299,1.4299,1.4299,1.4299,1.4299,1.4299,1.4299,1.4299,1.4299,1.4299,1.4299,1.4299,1.4299,1.4299,1.4299,1.4299,0.0,0.0,0.0,0.0,0.0,0.0,0.0,0.0,0.0,0.0,0.0,0.0,0.0,0.0,0.0,0.0,0.0,0.0,0.0,0.0,0.0,0.0,0.0,0.0,0.0,0.0,0.0,0.0,0.0,0.0,0.0,0.0,0.0,0.0272,0.6546,1.0182,1.1595,1.1597,0.0,1.1467,0.9943,0.0,1.1606,1.1601,1.1598,1.1602,1.1602,1.1595,1.1603,1.1594,1.1606,1.1602,0.0,0.0,0.0,0.0,0.0,0.0,0.0,0.0,0.0,0.0,0.0,0.0,1.1604,1.1694,1.1906,1.2398,1.2501,1.2495,1.2508,1.2595,1.2824,1.3321,1.3406,1.3398,1.3397,1.35,0.0,0.0,0.0,0.0,1.4305,1.4297,1.4301,1.4303,1.4299,1.4299,1.4299,1.4299,1.4299,1.4299,1.4299,1.4299,1.4299,1.4299,1.4299,1.4299,1.4299,1.4299,1.4299,1.4299,1.4299,1.4299,1.4299,1.4299,1.4299,1.4299,1.4299,1.4299,1.4299,1.4299,1.4299,1.4299,1.4299,1.4299,0.0,0.0,0.0,0.0,0.0,0.0,0.0,0.0,0.0,0.0,0.0,0.0,0.0,0.0,0.0,0.0,0.0,0.0,0.0,0.0,0.0,0.0,0.0,0.0,0.0,0.0,0.0,0.0,0.0,0.0,0.0082,0.3966,0.5784,0.5951,0.9858,1.1599,1.1599,1.1595,1.1597,1.1597,1.1597,0.0,1.1603,1.1602,1.1795,1.2051,1.2052,1.2051,1.2,1.1697,1.1606,0.0,0.0,1.1603,1.1599,0.0,1.1602,1.1602,0.0,0.0,0.0,1.1602,0.0,0.0,0.0,1.1602,1.1688,1.199,1.2284,1.2502,1.2498,1.2501,1.2604,1.2903,1.2949,1.3058,1.3357,1.3403,1.3398,0.0,0.0,0.0,1.3853,1.4122,1.4299,1.4297,1.43,1.4301,1.4299,1.4299,1.4299,1.4299,1.4299,1.4299,1.4299,1.4299,1.4299,1.4299,1.4299,1.4299,1.4299,1.4299,1.4299,1.4299,1.4299,1.4299,1.4299,1.4299,1.4299,1.4299,1.4299,1.4299,1.4299,1.4299,1.4299,1.4299,0.0,0.0,0.0,0.0,0.0,0.0,0.0,0.0,0.0,0.0,0.0,0.0,0.0,0.0,0.0,0.0,0.0,0.0,0.0,0.0,0.0,0.0,0.0,0.0,0.0,0.0,0.0,0.0,0.1497,0.2231,0.237,0.8662,1.1599,1.1602,1.1602,1.1602,1.1602,1.1599,0.0,1.1597,0.0,1.1596,1.161,1.1725,1.2083,1.2506,1.2505,1.2498,1.2433,1.1942,1.1766,1.1773,1.1773,1.1687,0.0,0.0,0.0,0.0,0.0,0.0,0.0,0.0,0.0,1.1602,0.0,0.0,0.0,1.1604,1.208,1.2504,1.2496,1.2506,0.0,0.0,0.0,0.0,0.0,1.3234,0.0,1.3393,0.0,0.0,0.0,1.3835,1.4124,1.4129,1.4235,1.4293,1.4295,1.4296,1.4299,1.4299,1.4299,1.4299,1.4299,1.4299,1.4299,1.4299,1.4299,1.4299,1.4299,1.4299,1.4299,1.4299,1.4299,1.4299,1.4299,1.4299,1.4299,1.4299,1.4299,1.4299,1.4299,1.4299,1.4299,1.4299,0.0,0.0,0.0,0.0,0.0,0.0,0.0,0.0,0.0,0.0,0.0,0.0,0.0,0.0,0.0,0.0,0.0,0.0,0.0,0.0,0.0,0.0,0.0,0.0,0.0,0.0,0.0,0.0,0.691,1.0281,1.0296,1.1187,1.1602,1.1593,1.1593,1.1593,1.1593,1.1602,1.1604,0.0,1.1593,1.1599,0.0,1.2191,1.2447,1.25,1.2493,1.2497,1.2489,0.0,1.2399,1.2403,0.0,1.2033,1.1601,1.16,0.0,0.0,0.0,0.0,0.0,0.0,1.1599,0.0,0.0,0.0,1.1603,1.1603,0.0,1.2503,1.2502,0.0,0.0,0.0,0.0,0.0,1.2594,1.2595,1.2805,1.3346,0.0,0.0,0.0,1.3458,1.3495,1.3504,1.4004,1.4299,1.4298,1.4308,1.4299,1.4299,1.4299,1.4299,1.4299,1.4299,1.4299,1.4299,1.4299,1.4299,1.4299,1.4299,1.4299,1.4299,1.4299,1.4299,1.4299,1.4299,1.4299,1.4299,1.4299,1.4299,1.4299,1.4299,1.4299,1.4299,0.0,0.0,0.0,0.0,0.0,0.0,0.0,0.0,0.0,0.0,0.0,0.0,0.0,0.0,0.0,0.0,0.0,0.6735,0.0,0.0,0.0,0.0,0.0,0.0,0.6632,0.6735,0.6732,0.6734,0.9998,1.1597,1.1597,1.1597,1.1599,1.1602,1.1602,1.1602,1.1599,1.1599,1.1596,0.0,0.0,0.0,0.0,1.2395,1.2505,1.2504,1.2505,1.2499,1.2494,0.0,1.2498,0.0,0.0,0.0,0.0,0.0,0.0,0.0,0.0,0.0,0.0,0.0,0.0,0.0,1.1604,0.0,1.1602,0.0,0.0,0.0,0.0,0.0,0.0,0.0,1.2497,0.0,0.0,0.0,1.2715,0.0,0.0,0.0,0.0,0.0,0.0,0.0,0.0,1.3935,1.4275,1.43,1.4299,1.4299,1.4299,1.4299,1.4299,1.4299,1.4299,1.4299,1.4299,1.4299,1.4299,1.4299,1.4299,1.4299,1.4299,1.4299,1.4299,1.4299,1.4299,1.4299,1.4299,1.4299,1.4299,1.4299,1.4299,1.4299,0.0,0.0,0.0,0.0,0.0,0.0,0.0,0.0,0.0,0.0,0.0,0.0,0.0,0.5038,0.0,0.0,0.0,1.1597,0.0,0.0,0.0,0.0,0.0,0.0,0.0,0.0,0.9465,1.1599,1.1606,1.1597,1.1602,1.1602,1.1602,1.1602,1.1602,1.1604,1.1599,1.16,1.1703,1.188,1.2316,1.2498,1.2499,1.2499,1.2598,1.2747,1.2755,1.2755,1.2755,1.2755,1.2752,0.0,1.255,0.0,0.0,0.0,0.0,0.0,1.2501,0.0,0.0,0.0,0.0,0.0,0.0,0.0,0.0,0.0,0.0,0.0,0.0,0.0,0.0,1.2501,0.0,1.2501,0.0,1.2499,0.0,0.0,0.0,0.0,0.0,0.0,0.0,1.3406,1.34,1.3595,1.4026,1.4208,1.4304,1.4304,1.4301,1.4299,1.4299,1.4299,1.4299,1.4299,1.4299,1.4299,1.4299,1.4299,1.4299,1.4299,1.4299,1.4299,1.4299,1.4299,1.4299,1.4299,1.4299,1.4299,1.4299,1.4299,1.4299,1.4299,0.0,0.0,0.0,0.0,0.0,0.0,0.0,0.0,0.0,0.0,0.0,0.0,0.0,0.0,0.0,0.0,0.0,1.1606,1.1606,0.0,0.0,0.0,0.0,0.0117,0.0,0.0,0.406,1.1593,1.1602,1.1602,1.1602,1.1602,1.1602,1.1602,1.1602,1.1604,1.1597,1.1603,1.1934,1.2474,1.2491,1.2499,1.2505,0.0,1.286,1.3363,1.337,0.0,0.0,1.337,1.337,0.0,0.0,0.0,0.0,0.0,0.0,0.0,0.0,0.0,0.0,1.248,0.0,0.0,0.0,0.0,1.247,0.0,0.0,0.0,0.0,0.0,1.2501,1.2501,1.2501,0.0,0.0,0.0,0.0,0.0,0.0,0.0,0.0,0.0,0.0,1.3397,1.3403,1.3406,1.343,1.3984,1.4299,1.4299,1.4301,1.4299,1.4299,1.4299,1.4299,1.4299,1.4299,1.4299,1.4299,1.4299,1.4299,1.4299,1.4299,1.4299,1.4299,1.4299,1.4299,1.4299,1.4299,1.4299,1.4299,1.4299,1.4299,1.4299,0.0,0.0,0.0,0.0,0.0,0.0,0.0,0.0,0.0,0.0,0.0,0.0,0.0,0.0,0.2069,0.0,0.0,1.1606,1.1606,0.9137,0.0,0.0,0.0,0.7675,0.0,0.0,0.0,0.0,1.1599,1.1602,1.1602,1.1602,1.1602,1.1602,1.1602,1.1595,1.1628,1.2028,0.0,0.0,0.0,1.2738,1.3104,0.0,0.0,1.3399,1.3394,1.3398,0.0,1.3398,1.3407,1.3358,1.3159,1.3098,1.3103,1.3103,1.3103,0.0,0.0,0.0,1.2499,1.2502,0.0,0.0,0.0,0.0,0.0,0.0,0.0,0.0,0.0,0.0,1.2501,1.2501,1.2501,1.2496,0.0,1.2499,0.0,0.0,0.0,0.0,0.0,0.0,0.0,1.3401,1.34,1.3404,0.0,1.3595,1.3893,1.4286,1.4304,1.4303,1.4299,1.4299,1.4299,1.4299,1.4299,1.4299,1.4299,1.4299,1.4299,1.4299,1.4299,1.4299,1.4299,1.4299,1.4299,1.4299,1.4299,1.4299,1.4299,1.4299,1.4299,1.4299,0.0,0.0,0.0,0.0,0.0,0.0,0.0,0.0,0.0,0.0,0.2412,0.0,0.4421,0.0,0.6469,0.0,1.1913,1.1922,1.1922,1.1918,0.0,1.1607,1.1603,0.0,0.0,0.0,0.0,0.0,0.0,1.1602,1.1602,1.1602,1.1602,1.1602,1.1602,1.1596,1.1641,1.224,1.2499,0.0,0.0,1.3051,0.0,0.0,1.3398,1.3401,0.0,1.3403,1.3403,1.3403,1.3397,1.3398,1.3398,1.3404,1.3399,1.3399,1.3399,1.3396,1.3401,1.3118,0.0,0.0,1.2821,0.0,1.2549,0.0,0.0,0.0,0.0,0.0,0.0,0.0,1.2501,1.2501,1.2501,1.2429,0.0,1.2356,0.0,0.0,1.2506,1.2498,0.0,1.2852,1.3175,1.3387,1.3401,1.34,0.0,0.0,1.3578,1.3977,1.4194,1.4297,1.4294,1.4294,1.4299,1.4299,1.4299,1.4299,1.4299,1.4299,1.4299,1.4299,1.4299,1.4299,1.4299,1.4299,1.4299,1.4299,1.4299,1.4299,1.4299,1.4299,1.4299,1.4299,0.0,0.0,0.0,0.0,0.0,0.0,0.0,0.0,0.0137,0.0,0.7037,1.186,1.2444,1.2501,1.2496,1.2496,1.2494,0.0,1.2499,1.2501,0.0,0.0,1.1639,1.1633,1.1598,0.0,0.0,0.0,0.0,1.1604,1.1604,1.1604,1.1604,1.1602,1.1602,1.1623,1.1675,1.2265,1.2522,1.2585,1.3172,1.3397,1.3397,1.3397,0.0,1.3403,1.3407,1.34,1.34,1.3396,1.3403,1.3403,1.3403,1.3403,1.3403,1.3403,1.3396,1.3404,1.3404,1.3397,1.3403,1.3396,0.0,0.0,0.0,0.0,1.2538,0.0,0.0,0.0,0.0,0.0,0.0,1.2505,1.2501,1.2304,1.1724,1.2143,1.2504,0.0,1.2501,1.2497,1.2502,1.2502,1.2748,1.3305,1.338,1.3404,0.0,0.0,1.3393,1.3399,1.3966,1.4264,1.4293,1.4301,1.4299,1.4299,1.4299,1.4299,1.4299,1.4299,1.4299,1.4299,1.4299,1.4299,1.4299,1.4299,1.4299,1.4299,1.4299,1.4299,1.4299,1.4299,1.4299,1.4299,0.0,0.0,0.0,0.0,0.0,0.0,0.0,0.0,0.0,0.0,1.0744,1.2326,1.248,1.2496,1.2505,1.2505,1.2499,0.0,0.0,0.0,0.0,1.2278,1.2269,1.2058,1.1612,1.16,0.0,1.1597,0.0,1.1597,1.1597,1.1597,1.1597,1.1597,1.1602,1.1847,1.2281,1.2434,1.2763,1.3179,1.334,1.34,0.0,0.0,1.3395,1.3401,1.34,1.3398,1.3401,1.3396,1.3404,1.3404,1.3404,1.3404,1.3404,1.3404,1.3405,1.3402,1.3404,1.3399,1.3397,1.3405,1.3401,1.3359,0.0,0.0,0.0,0.0,0.0,0.0,0.0,0.0,0.0,1.2498,1.2497,1.245,1.2288,0.0,0.0,1.2505,1.2498,1.2495,1.2497,1.2501,1.2562,1.2715,1.3152,0.0,0.0,0.0,0.0,1.3399,1.3551,1.3856,1.4303,1.4301,1.4299,1.4299,1.4299,1.4299,1.4299,1.4299,1.4299,1.4299,1.4299,1.4299,1.4299,1.4299,1.4299,1.4299,1.4299,1.4299,1.4299,1.4299,1.4299,1.4299,0.0,0.0,0.0,0.0,0.0,0.0,0.0,0.0,0.0,1.1425,1.2295,0.0,1.2862,1.2884,1.2886,1.2886,1.2886,0.0,0.0,0.0,0.0,1.2888,1.2637,1.2338,1.2004,1.199,0.0,1.1995,0.0,1.1995,1.1995,1.1995,1.1995,1.1986,1.1988,1.2181,1.2521,1.2774,1.3087,1.3404,1.34,1.3399,0.0,1.3691,1.3798,1.3784,1.3792,1.3794,1.3789,1.3796,1.3784,1.3784,1.3784,1.3784,1.3784,1.3784,1.3783,1.3743,1.3471,1.3401,1.3397,1.3397,1.34,1.3392,1.34,1.3398,1.3404,0.0,0.0,0.0,0.0,0.0,0.0,1.2542,1.2496,0.0,0.0,0.0,0.0,0.0,1.2502,1.2501,1.2501,1.2498,1.2494,1.2502,1.2899,0.0,0.0,0.0,0.0,1.34,1.3397,1.3689,1.4293,1.4304,1.4304,1.4299,1.4299,1.4299,1.4299,1.4299,1.4299,1.4299,1.4299,1.4299,1.4299,1.4299,1.4299,1.4299,1.4299,1.4299,1.4299,1.4299,1.4299,1.4299,0.1634,0.0,0.0,0.0,0.0,0.0,0.0,0.7815,0.0,1.2609,0.0,1.2818,1.3342,1.3398,1.3398,1.3398,0.0,1.3401,1.3401,1.3401,1.3407,1.3405,1.2896,1.2583,1.2504,1.2497,0.0,0.0,0.0,1.2494,1.2494,1.2494,1.2494,1.2501,1.2501,1.2498,1.2541,1.3144,1.3395,1.3405,1.3404,1.3447,1.3579,1.4098,1.4307,1.4299,1.4301,1.4306,1.4293,1.4303,1.4299,1.4299,1.4299,1.4299,1.4299,1.4299,1.4296,1.4189,1.3661,1.3512,1.3521,1.3521,1.3521,1.3526,1.3523,1.3464,1.3403,1.3401,1.3404,0.0,0.0,0.0,0.0,1.2661,0.0,0.0,0.0,0.0,0.0,0.0,0.0,0.0,1.2501,1.2501,1.2497,1.2498,0.0,0.0,0.0,0.0,0.0,1.3403,1.3399,0.0,1.4226,0.0,1.4299,1.4299,1.4299,1.4299,1.4299,1.4299,1.4299,1.4299,1.4299,1.4299,1.4299,1.4299,1.4299,1.4299,1.4299,1.4299,1.4299,1.4299,1.4299,1.4299,1.0312,0.0,0.0,0.0,0.0,1.0309,1.0306,1.1559,1.2676,1.318,1.3247,1.3285,1.3384,1.3403,1.34,1.34,1.34,0.0,0.0,0.0,0.0,1.3396,1.3304,1.3007,1.2516,1.2502,1.2503,0.0,0.0,0.0,1.2504,1.2504,1.2504,1.2494,1.2502,1.2496,1.2539,1.3138,0.0,1.3406,1.34,1.3702,1.4152,1.4255,1.4301,1.4301,1.4295,1.4295,1.4294,1.4304,1.4301,1.4301,1.4301,1.4301,1.4301,1.4301,1.43,1.428,1.4164,1.414,1.414,1.414,1.414,1.4144,1.4138,1.3761,1.3399,1.3394,1.3398,1.3399,1.3399,0.0,0.0,0.0,0.0,0.0,0.0,0.0,0.0,0.0,0.0,1.2501,0.0,1.2501,1.2505,0.0,0.0,0.0,0.0,0.0,0.0,0.0,0.0,0.0,0.0,0.0,0.0,1.4299,1.4299,1.4299,1.4299,1.4299,1.4299,1.4299,1.4299,1.4299,1.4299,1.4299,1.4299,1.4299,1.4299,1.4299,1.4299,1.4299,1.4299,1.4299,0.0,0.0,0.0,0.0,0.0,0.0,0.0,1.2966,0.0,1.336,1.3404,1.3514,1.3827,1.3869,1.3876,1.3876,1.3876,1.3871,1.3866,1.3576,1.3402,1.3396,1.3397,0.0,1.297,1.2969,1.2813,1.2499,0.0,0.0,1.2501,1.2501,1.2501,1.2498,1.2505,1.2668,1.2987,0.0,0.0,1.343,1.3744,1.4043,1.4306,1.4295,1.4304,1.4299,1.4299,1.4295,1.4303,1.4301,1.4299,1.4299,1.4299,1.4299,1.4299,1.4299,1.4306,1.43,1.43,1.4307,1.4306,1.4306,1.4306,1.4307,1.43,1.4085,1.3875,1.3869,1.3875,1.3768,1.3461,1.3404,0.0,0.0,0.0,0.0,0.0,0.0,0.0,0.0,0.0,0.0,0.0,0.0,0.0,0.0,0.0,0.0,0.0,0.0,0.0,0.0,0.0,0.0,0.0,0.0,0.0,1.4299,1.4299,1.4299,1.4299,1.4299,1.4299,1.4299,1.4299,1.4299,1.4299,1.4299,1.4299,1.4299,1.4299,1.4299,1.4299,1.4299,1.4299,1.4299,0.0,1.2595,0.0,0.0,1.3088,0.0,1.3399,1.3502,1.3551,1.3419,1.3511,1.3763,1.4257,1.4299,1.4298,1.4298,1.4298,1.4306,1.4303,1.386,1.3593,1.3597,1.3476,1.3403,1.3398,1.3403,1.3174,0.0,0.0,0.0,0.0,1.2505,1.2499,0.0,0.0,0.0,0.0,0.0,1.347,1.3632,1.4107,1.4302,1.43,1.4302,1.4299,1.4299,1.4299,1.4299,1.4299,1.4299,1.4299,1.4299,1.4299,1.4299,1.4299,1.4299,1.4299,1.4299,1.4299,1.4299,1.4299,1.4299,1.4299,1.4305,1.4303,1.4297,1.4295,1.4297,1.427,1.408,1.3566,1.3431,0.0,0.0,0.0,0.0,0.0,0.0,0.0,0.0,0.0,0.0,1.2539,0.0,0.0,0.0,0.0,0.0,0.0,0.0,0.0,0.0,0.0,1.3529,1.3805,0.0,1.4076,0.0,1.4299,1.4299,1.4299,1.4299,1.4299,1.4299,1.4299,1.4299,1.4299,1.4299,1.4299,1.4299,1.4299,1.4299,1.4299,1.4299,1.4299,1.4292,0.0,0.0,0.0,0.0,0.0,0.0,0.0,1.3857,1.4024,1.347,1.3879,1.4236,1.4294,1.4297,1.4302,1.4302,1.4302,1.4303,1.4307,1.425,1.4214,1.4219,1.3686,1.3393,1.3408,1.3396,1.337,0.0,0.0,0.0,0.0,0.0,0.0,0.0,0.0,0.0,0.0,1.3395,1.3727,1.4226,1.4285,1.4299,1.4301,1.4292,1.4299,1.4299,1.4299,1.4299,1.4299,1.4299,1.4299,1.4299,1.4299,1.4299,1.4299,1.4299,1.4299,1.4299,1.4299,1.4299,1.4299,1.4299,1.4299,1.4299,1.4307,1.4301,1.4301,1.4302,1.415,1.3966,1.3724,1.3523,1.3403,0.0,0.0,0.0,0.0,0.0,1.2972,1.2972,0.0,0.0,0.0,1.2573,0.0,0.0,1.2505,0.0,0.0,0.0,0.0,1.339,0.0,1.3529,1.3805,1.3805,0.0,1.4299,1.4299,1.4299,1.4299,1.4299,1.4299,1.4299,1.4299,1.4299,1.4299,1.4299,1.4299,1.4299,1.4299,1.4299,1.4299,1.4299,1.4299,1.4301,0.0,0.0,0.0,0.0,0.0,0.0,0.0,1.4138,1.4216,1.3971,1.415,1.4294,1.4303,1.4298,1.4299,1.4299,1.4299,1.4294,1.4305,1.4299,1.4296,1.4296,1.4066,1.3944,1.3933,1.3593,1.3395,0.0,0.0,0.0,0.0,0.0,0.0,0.0,0.0,1.3404,1.3402,1.3394,1.3753,1.4293,1.4303,1.43,1.4299,1.4299,1.4299,1.4299,1.4299,1.4299,1.4299,1.4299,1.4299,1.4299,1.4299,1.4299,1.4299,1.4299,1.4299,1.4299,1.4299,1.4299,1.4299,1.4299,1.4299,1.4299,1.4299,1.4299,1.4299,1.4299,1.4144,1.3991,1.3951,1.3774,1.3613,0.0,0.0,0.0,0.0,0.0,0.0,1.3115,0.0,1.2878,0.0,0.0,0.0,0.0,0.0,0.0,0.0,0.0,0.0,1.339,0.0,1.3529,1.3805,1.3795,1.3972,1.4299,1.4299,1.4299,1.4299,1.4299,1.4299,1.4299,1.4299,1.4299,1.4299,1.4299,1.4299,1.4299,1.4299,1.4299,1.4299,1.4299,1.4073,1.376,1.3401,0.0,1.3666,0.0,1.402,1.4297,1.4297,1.4297,1.43,1.4302,1.4295,1.4301,1.4299,1.4299,1.4299,1.4299,1.4299,1.4299,1.4299,1.4299,1.4295,1.4303,1.4296,0.0,1.4302,1.3874,1.3576,1.34,1.3404,0.0,0.0,0.0,0.0,0.0,1.3396,1.35,1.3656,1.3661,1.3916,1.4295,1.4293,1.4299,1.4299,1.4299,1.4299,1.4299,1.4299,1.4299,1.4299,1.4299,1.4299,1.4299,1.4299,1.4299,1.4299,1.4299,1.4299,1.4299,1.4299,1.4299,1.4299,1.4299,1.4299,1.4299,1.4299,1.4299,1.4299,1.4299,1.4189,1.409,1.4104,1.398,1.3836,0.0,0.0,0.0,0.0,0.0,0.0,0.0,1.3142,1.3064,1.3064,1.3013,0.0,0.0,0.0,0.0,0.0,0.0,0.0,0.0,0.0,0.0,0.0,1.3795,1.3972,1.4299,1.4299,1.4299,1.4299,1.4299,1.4299,1.4299,1.4299,1.4299,1.4299,1.4299,1.4299,1.4299,1.4299,1.4299,1.4292,1.4189,1.3883,1.3509,1.3396,1.388,1.4285,1.4287,1.4303,1.4297,1.4294,1.4303,1.43,1.43,1.4303,1.4294,1.4299,1.4299,1.4299,1.4299,1.4299,1.4299,1.4299,1.4299,1.4299,0.0,0.0,1.4308,1.4293,1.4293,1.3998,1.3396,0.0,0.0,1.34,0.0,0.0,1.3399,1.3399,1.373,1.4293,1.4285,1.4293,1.4295,1.4293,1.4299,1.4299,1.4299,1.4299,1.4299,1.4299,1.4299,1.4299,1.4299,1.4299,1.4299,1.4299,1.4299,1.4299,1.4299,1.4299,1.4299,1.4299,1.4299,1.4299,1.4299,1.4299,1.4299,1.4299,1.4299,1.4299,1.4299,1.4299,1.4262,1.4124,1.4101,1.4032,1.3833,0.0,0.0,0.0,0.0,0.0,1.3397,1.3282,1.3203,1.3203,1.3084,0.0,0.0,0.0,0.0,0.0,0.0,0.0,1.3397,1.3403,0.0,1.3805,1.3795,1.3972,1.4299,1.4299,1.4299,1.4299,1.4299,1.4299,1.4299,1.4299,1.4299,1.4299,1.4299,1.4299,1.4299,1.4299,1.4299,1.4256,1.3926,1.38,1.376,1.4012,1.417,1.4305,1.4303,1.4295,1.4298,1.4301,1.4304,1.445,1.4853,1.4913,1.4906,1.4911,1.4552,1.4302,0.0,1.4296,1.43,0.0,1.4299,1.4299,1.4299,1.4299,1.4301,1.4297,1.4304,1.4211,1.4011,0.0,0.0,0.0,1.3398,1.34,1.3418,1.3831,1.4122,1.4296,1.4301,1.4297,1.4297,1.4301,1.4299,1.4299,1.4299,1.4299,1.4299,1.4299,1.4299,1.4299,1.4299,1.4299,1.4299,1.4299,1.4299,1.4299,1.4299,1.4299,1.4299,1.4299,1.4299,1.4299,1.4299,1.4299,1.4299,1.4299,1.4299,1.4299,1.4299,1.4299,1.4285,1.4238,1.4242,1.4188,1.4032,0.0,0.0,0.0,0.0,0.0,0.0,1.3356,1.3339,0.0,1.3298,0.0,0.0,0.0,0.0,0.0,0.0,0.0,0.0,1.3495,0.0,1.3795,1.3935,1.4102,1.4299,1.4299,1.4299,1.4299,1.4299,1.4299,1.4299,1.4299,1.4299,1.4299,1.4299,1.4299,1.4299,1.4299,1.4154,1.3954,1.394,1.3756,1.3515,1.4296,1.4306,1.4299,1.4298,1.4303,1.4383,1.4602,1.4635,1.4771,1.5144,1.5204,1.5204,1.5204,1.4856,0.0,1.464,1.4432,1.4302,1.4301,1.4296,1.4302,1.4302,1.4304,1.4299,1.4299,0.0,0.0,1.4306,1.4306,1.411,1.3741,1.3741,1.3736,1.3753,1.4132,1.4305,1.4301,1.4302,1.4299,1.4299,1.4299,1.4299,1.4299,1.4299,1.4299,1.4299,1.4299,1.4299,1.4299,1.4299,1.4299,1.4299,1.4299,1.4299,1.4299,1.4299,1.4299,1.4299,1.4299,1.4299,1.4299,1.4299,1.4299,1.4299,1.4299,1.4299,1.4299,1.4299,1.4299,1.4299,1.4299,1.4299,1.4272,1.4188,0.0,1.4029,1.3824,0.0,0.0,0.0,0.0,0.0,0.0,1.3403,0.0,0.0,0.0,0.0,0.0,0.0,0.0,1.3397,1.3532,0.0,1.3795,1.4004,1.4171,1.4299,1.4299,1.4299,1.4299,1.4299,1.4299,1.4299,1.4299,1.4299,1.4299,1.4299,1.4299,1.4292,1.4238,1.408,1.3863,1.386,1.3687,1.3466,1.4297,1.4297,0.0,0.0,1.4327,0.0,1.5111,1.5195,1.5199,1.5199,1.5199,1.5204,1.5204,1.5204,1.52,1.5197,0.0,0.0,0.0,1.436,1.4343,1.4298,1.4298,0.0,1.4301,1.4306,1.4299,1.4299,1.4306,1.4303,1.4304,1.4304,1.4305,1.4302,1.4302,1.4301,1.4299,1.4299,1.4299,1.4299,1.4299,1.4299,1.4299,1.4299,1.4299,1.4299,1.4299,1.4299,1.4299,1.4299,1.4299,1.4299,1.4299,1.4299,1.4299,1.4299,1.4299,1.4299,1.4299,1.4299,1.4299,1.4299,1.4299,1.4299,1.4299,1.4299,1.4299,1.4299,1.4299,1.4299,1.4299,1.4299,1.4299,1.4299,1.4205,1.4104,1.4097,0.0,0.0,0.0,0.0,0.0,0.0,1.341,1.3403,0.0,0.0,0.0,0.0,0.0,1.3413,1.3407,1.3545,1.3677,1.3826,1.4018,1.4178,1.4299,1.4299,1.4299,1.4299,1.4299,1.4299,1.4299,1.4299,1.4299,1.4299,1.4299,1.4299,1.4296,1.4151,1.4051,1.3956,1.3704,1.3589,1.3572,0.0,0.0,1.4298,1.4297,1.4678,1.5036,1.5181,1.5196,1.5203,1.5203,1.5195,1.5204,1.5204,1.5204,1.52,1.5202,1.5077,1.4984,1.4993,1.4992,1.4783,1.4327,1.43,1.4298,1.4298,1.4298,1.4299,1.4299,1.4298,1.4297,1.4307,1.4307,1.4299,1.43,1.43,1.4298,1.4299,1.4299,1.4299,1.4299,1.4299,1.4299,1.4299,1.4299,1.4299,1.4299,1.4299,1.4299,1.4299,1.4299,1.4299,1.4299,1.4299,1.4299,1.4299,1.4299,1.4299,1.4299,1.4299,1.4299,1.4299,1.4299,1.4299,1.4299,1.4299,1.4299,1.4299,1.4299,1.4299,1.4299,1.4299,1.4299,1.4299,1.4299,1.4272,1.4215,1.411,1.4036,0.0,0.0,1.363,1.3552,1.3552,1.3461,1.3403,0.0,0.0,0.0,0.0,0.0,1.3657,1.3559,1.3684,1.3843,1.4025,1.4181,1.4265,1.4299,1.4299,1.4299,1.4299,1.4299,1.4299,1.4299,1.4299,1.4299,1.4299,1.4299,1.4299,1.4296,1.4151,1.4,1.3829,1.3663,1.3542,1.3441,1.4654,1.4708,1.4703,1.4713,1.4974,1.5195,1.5198,1.5203,1.5204,1.5204,1.5204,1.5204,1.5204,1.5204,1.5204,1.5204,1.5195,1.5201,1.52,1.52,1.5043,1.4727,1.471,1.4583,1.4312,1.4307,1.4299,1.4299,1.4299,1.4299,1.4299,1.4299,1.4299,1.4299,1.4299,1.4299,1.4299,1.4299,1.4299,1.4299,1.4299,1.4299,1.4299,1.4299,1.4299,1.4299,1.4299,1.4299,1.4299,1.4299,1.4299,1.4299,1.4299,1.4299,1.4299,1.4299,1.4299,1.4299,1.4299,1.4299,1.4299,1.4299,1.4299,1.4299,1.4299,1.4299,1.4299,1.4299,1.4299,1.4299,1.4299,1.4299,1.4299,1.4299,1.4299,1.4272,1.4201,1.4137,0.0,1.3942,1.3796,1.3697,1.3697,1.3627,1.3579,1.3579,0.0,0.0,1.3697,1.3754,1.3772,1.3687,1.385,1.3987,1.4108,1.4235,1.4299,1.4299,1.4299,1.4299,1.4299,1.4299,1.4299,1.4299,1.4299,1.4299,1.4299,1.4299,1.4258,1.4194,1.4027,1.4475,1.5193,1.5028,1.557,1.6377,1.5096,1.5208,1.5206,1.5192,1.5208,1.5196,1.5202,1.5204,1.5204,1.5204,1.5204,1.5204,1.5204,1.5204,1.5204,1.5204,1.5204,1.5204,1.5204,1.52,1.5208,1.5208,1.5202,1.4922,1.4318,1.4302,1.4299,1.4299,1.4299,1.4299,1.4299,1.4299,1.4299,1.4299,1.4299,1.4299,1.4299,1.4299,1.4299,1.4299,1.4299,1.4299,1.4299,1.4299,1.4299,1.4299,1.4299,1.4299,1.4299,1.4299,1.4299,1.4299,1.4299,1.4299,1.4299,1.4299,1.4299,1.4299,1.4299,1.4299,1.4299,1.4299,1.4299,1.4299,1.4299,1.4299,1.4299,1.4299,1.4299,1.4299,1.4299,1.4299,1.4299,1.4299,1.4299,1.4299,1.4299,0.0,1.4131,1.4131,1.3962,1.3857,1.3857,1.3826,1.3795,1.3795,1.3833,0.0,0.0,1.3866,1.388,1.388,1.4014,1.4114,1.4124,1.4238,1.4299,1.4299,1.4299,1.4299,1.4299,1.4299,1.4299,1.4299,1.4299,1.4299,1.4299,1.4278,1.4392,1.4558,1.4354,1.5539,1.7367,1.7167,1.8292,1.9897,1.5183,1.5201,1.5201,1.5205,1.5194,1.5207,1.5204,1.5204,1.5204,1.5204,1.5204,1.5204,1.5204,1.5204,1.5204,1.5204,1.5204,1.5204,1.5204,1.5195,1.5194,1.5194,1.5206,1.4922,1.4306,1.4301,1.4299,1.4299,1.4299,1.4299,1.4299,1.4299,1.4299,1.4299,1.4299,1.4299,1.4299,1.4299,1.4299,1.4299,1.4299,1.4299,1.4299,1.4299,1.4299,1.4299,1.4299,1.4299,1.4299,1.4299,1.4299,1.4299,1.4299,1.4299,1.4299,1.4299,1.4299,1.4299,1.4299,1.4299,1.4299,1.4299,1.4299,1.4299,1.4299,1.4299,1.4299,1.4299,1.4299,1.4299,1.4299,1.4299,1.4299,1.4299,1.4299,1.4299,0.0,0.0,1.4265,1.4265,1.414,1.4045,1.4045,1.3897,1.3795,1.3795,1.396,1.4045,1.4045,1.4156,1.422,1.422,1.414,1.4158,1.4276,1.4285,1.4299,1.4299,1.4299,1.4299,1.4299,1.4299,1.4299,1.4299,1.4299,1.4299,1.4292,1.4185,1.5195,1.6782,1.6522,1.7722,1.9593,1.9448,1.9613,1.9897,1.5204,1.5198,1.5204,1.5204,1.5204,1.5204,1.5204,1.5204,1.5204,1.5204,1.5204,1.5204,1.5204,1.5204,1.5204,1.5204,1.5204,1.5204,1.5204,1.5204,1.5204,1.5204,1.5203,1.4919,1.4306,1.4296,1.4299,1.4299,1.4299,1.4299,1.4299,1.4299,1.4299,1.4299,1.4299,1.4299,1.4299,1.4299,1.4299,1.4299,1.4299,1.4299,1.4299,1.4299,1.4299,1.4299,1.4299,1.4299,1.4299,1.4299,1.4299,1.4299,1.4299,1.4299,1.4299,1.4299,1.4299,1.4299,1.4299,1.4299,1.4299,1.4299,1.4299,1.4299,1.4299,1.4299,1.4299,1.4299,1.4299,1.4299,1.4299,1.4299,1.4299,1.4299,1.4299,0.0,0.0,1.5392,1.5723,1.4454,1.5359,1.5603,1.4322,1.4118,1.4067,1.4067,1.4167,1.4208,1.4208,1.4276,1.4299,1.4299,1.4242,1.4242,1.4299,1.4299,1.4299,1.4299,1.4299,1.4299,1.4299,1.4299,1.4299,1.4299,1.4299,1.5014,1.6172,1.5927,1.7103,1.9049,1.8741,1.9883,2.1705,2.1657,2.2388,2.3402,1.5204,1.5204,1.5204,1.5204,1.5204,1.5204,1.5204,1.5204,1.5204,1.5204,1.5204,1.5204,1.5204,1.5204,1.5204,1.5204,1.5204,1.5204,1.5204,1.5204,1.5204,1.5204,1.5204,1.492,1.4307,1.4307,1.4299,1.4299,1.4299,1.4299,1.4299,1.4299,1.4299,1.4299,1.4299,1.4299,1.4299,1.4299,1.4299,1.4299,1.4299,1.4299,1.4299,1.4299,1.4299,1.4299,1.4299,1.4299,1.4299,1.4299,1.4299,1.4299,1.4299,1.4299,1.4299,1.4299,1.4299,1.4299,1.4299,1.4299,1.4299,1.4299,1.4299,1.4299,1.4299,1.4299,1.4299,1.4299,1.4299,1.4299,1.4299,1.4745,1.4944,1.4387,0.0,0.0,0.0,1.6323,1.7137,1.5333,1.717,1.7883,1.6078,1.5422,1.5113,1.5113,1.5113,1.5113,1.5113,1.5623,1.5899,1.5899,1.5392,1.5113,1.5113,1.5634,1.5634,1.5113,1.5113,1.4833,1.4321,1.4866,1.5113,1.5135,1.5668,1.6937,1.8566,1.8211,1.9363,2.1316,2.094,2.2051,2.3872,2.3872,2.493,2.6396,1.5204,1.5204,1.5204,1.5204,1.5204,1.5204,1.5204,1.5204,1.5204,1.5204,1.5204,1.5204,1.5204,1.5204,1.5204,1.5204,1.5204,1.5204,1.5204,1.5204,1.5204,1.5204,1.5193,1.4913,1.4307,1.4307,1.4299,1.4299,1.4299,1.4299,1.4299,1.4299,1.4299,1.4299,1.4299,1.4299,1.4299,1.4299,1.4299,1.4299,1.4299,1.4299,1.4299,1.4299,1.4299,1.4299,1.4299,1.4299,1.4299,1.4299,1.4299,1.4299,1.4299,1.4299,1.4299,1.4299,1.4299,1.4299,1.4299,1.4299,1.4299,1.4299,1.4299,1.4299,1.4299,1.4299,1.4299,1.4299,1.4299,1.4299,1.4299,1.6078,1.683,1.4646,0.0,0.0,1.4612,1.6323,1.7741,1.7556,1.9553,2.0875,2.0713,1.878,1.7545,1.7545,1.7545,1.7545,1.7545,1.9543,2.0691,2.0691,1.8638,1.7545,1.7545,1.964,1.9629,1.7545,1.7545,1.64,1.4365,1.6553,1.7545,1.7665,1.9771,2.0789,2.0921,2.0524,2.1619,2.3528,2.306,2.4225,2.6159,2.6159,2.6258,2.6396,1.5204,1.5204,1.5204,1.5204,1.5204,1.5204,1.5204,1.5204,1.5204,1.5204,1.5204,1.5204,1.5204,1.5204,1.5204,1.5204,1.5204,1.5205,1.5198,1.5198,1.5198,1.5198,1.484,1.4525,1.4307,1.4307,1.4299,1.4299,1.4299,1.4299,1.4299,1.4299,1.4299,1.4299,1.4299,1.4299,1.4299,1.4299,1.4299,1.4299,1.4299,1.4299,1.4299,1.4299,1.4299,1.4299,1.4299,1.4299,1.4299,1.4299,1.4299,1.4299,1.4299,1.4299,1.4858,1.7744,1.655,1.4933,1.7804,1.6484,1.4299,1.4299,1.4299,1.4679,1.6144,1.6466,1.6863,1.8287,1.8582,1.8582,1.8582,1.9313,1.9619,1.8714,0.0,1.9106,1.6787,1.8453,1.938,1.7971,1.9803,2.1199,2.1199,2.0421,1.9912,1.9912,1.9912,1.9912,1.9912,2.0735,2.1199,2.1199,2.1771,2.1383,1.9922,2.0767,2.0767,1.9912,1.9912,1.9443,1.8606,1.9508,1.9912,1.9955,2.0821,2.1903,2.3032,2.2721,2.3801,2.5626,2.5284,2.566,2.6396,2.6396,2.6396,2.6396,1.5204,1.5204,1.5204,1.5204,1.5204,1.5204,1.5204,1.5204,1.5204,1.5204,1.5204,1.5204,1.5204,1.5204,1.5202,1.5201,1.5201,1.5198,1.5204,1.5023,1.492,1.492,1.4523,1.4303,1.4296,1.4302,1.4299,1.4299,1.4299,1.4299,1.4299,1.4299,1.4299,1.4299,1.4299,1.4299,1.4299,1.4299,1.4299,1.4299,1.4299,1.4299,1.4299,1.4299,1.4299,1.4299,1.4299,1.4299,1.4299,1.4299,1.4301,1.4295,1.4296,1.4301,1.5209,1.9841,2.0009,1.9038,2.0743,1.8878,1.6466,1.6466,1.6466,1.6893,1.8497,1.8878,1.9304,2.0875,2.1199,2.1199,2.1199,2.1793,2.2062,2.1318,2.1814,2.1502,1.9184,2.0854,2.1717,2.015,2.1998,2.3394,2.3394,2.2729,2.2299,2.2299,2.2299,2.2611,2.3351,2.3394,2.3394,2.3394,2.4956,2.502,2.3416,2.3394,2.303,2.2299,2.2299,2.1911,2.1221,2.1954,2.2299,2.2331,2.3073,2.4123,2.5277,2.5008,2.5651,2.6767,2.6507,2.6396,2.6396,2.6396,2.6396,2.6396,1.5204,1.5204,1.5204,1.5204,1.5204,1.5204,1.5204,1.5204,1.5204,1.5204,1.5204,1.5204,1.5204,1.5204,1.5197,1.5199,1.5197,1.5186,1.5182,1.4631,1.43,1.43,1.43,1.4296,1.4306,1.4299,1.4299,1.4299,1.4299,1.4299,1.4299,1.4299,1.4299,1.4299,1.4299,1.4299,1.4299,1.4299,1.4299,1.4299,1.4299,1.4299,1.4299,1.4299,1.4299,1.4299,1.4299,1.4299,1.4299,1.4299,1.4301,1.4303,1.4298,1.4356,1.5304,1.9917,2.4549,2.718,2.2524,2.1243,2.1221,2.1199,2.1199,2.1199,2.1221,2.1232,2.1232,2.1253,2.1253,2.1253,2.1253,2.3159,2.3974,2.1631,2.3212,2.3909,2.1556,2.3223,2.4701,2.4701,2.6758,2.8181,2.8189,2.6087,2.4733,2.4733,2.4733,2.5747,2.8073,2.8189,2.8189,2.8189,2.8189,2.8189,2.8189,2.8189,2.7022,2.4733,2.4733,2.3502,2.1329,2.3674,2.4733,2.4861,2.7181,2.8005,2.7679,2.7406,2.7104,2.6767,2.6507,2.6396,2.6396,2.6396,2.6396,2.6396,1.5204,1.5204,1.5204,1.5204,1.5204,1.5204,1.5204,1.5204,1.5204,1.5204,1.5204,1.5204,1.5204,1.5204,1.5199,1.5204,1.4811,1.4569,1.4568,1.4397,1.4293,1.4293,1.4293,1.4295,1.4299,1.4299,1.4299,1.4299,1.4299,1.4299,1.4299,1.4299,1.4299,1.4299,1.4299,1.4299,1.4299,1.4299,1.4299,1.4299,1.4299,1.4299,1.4299,1.4299,1.4299,1.4299,1.4299,1.4299,1.4296,1.4299,1.4299,1.4297,1.4299,1.8789,2.4323,2.571,2.7098,2.7894,2.6485,2.4903,2.3255,2.161,2.1199,2.1631,2.3277,2.3663,2.4123,2.5767,2.6119,2.6119,2.6119,2.6683,2.6927,2.6236,2.6705,2.6331,2.3995,2.4262,2.4701,2.4701,2.532,2.6397,2.8042,2.7564,2.7162,2.7162,2.7162,2.7458,2.8158,2.8189,2.8189,2.8189,2.8189,2.8189,2.8189,2.8189,2.7852,2.7162,2.7162,2.6789,2.614,2.6842,2.7162,2.7181,2.7648,2.769,2.7395,2.7081,2.6787,2.6507,2.6436,2.6396,2.6396,2.6396,2.6396,2.6396,1.5204,1.5204,1.5204,1.5204,1.5204,1.5204,1.5204,1.5204,1.5204,1.5204,1.5204,1.5204,1.5204,1.5198,1.51,1.4859,1.4515,1.4298,1.4294,1.4302,1.4299,1.4299,1.4299,1.4299,1.4299,1.4299,1.4299,1.4299,1.4299,1.4299,1.4299,1.4299,1.4299,1.4299,1.4299,1.4299,1.4299,1.4299,1.4299,1.4299,1.4299,1.4299,1.4299,1.4299,1.4294,1.4297,1.4297,1.4303,1.4306,1.4295,1.6746,1.9802,1.9798,2.3664,2.8207,2.8199,2.8193,2.8201,2.8206,2.7162,2.5735,2.4315,2.3973,2.4336,2.5768,2.6077,2.6493,2.7915,2.8189,2.8189,2.8189,2.8189,2.8189,2.8189,2.8189,2.7691,2.6278,2.6077,2.6077,2.6077,2.6077,2.6641,2.8063,2.8189,2.8189,2.8189,2.8189,2.8189,2.8189,2.8189,2.8189,2.8189,2.8189,2.8189,2.8189,2.8189,2.8189,2.8189,2.8189,2.8189,2.8189,2.8189,2.8189,2.8176,2.785,2.7556,2.7272,2.6947,2.6643,2.6396,2.6396,2.6396,2.6396,2.6396,2.6396,2.6396,1.5204,1.5204,1.5204,1.5204,1.5204,1.5204,1.5204,1.5204,1.5204,1.5204,1.5204,1.5197,1.5202,1.5201,1.4958,1.4344,1.4298,1.4299,1.4299,1.4299,1.4299,1.4299,1.4299,1.4299,1.4299,1.4299,1.4299,1.4299,1.4299,1.4299,1.4299,1.4299,1.4299,1.4299,1.4303,1.4296,1.4296,1.4294,1.4305,1.4305,1.4305,1.4305,1.4305,1.4305,1.4303,1.441,1.5235,1.5543,1.5539,1.5543,2.118,2.8201,2.8193,2.8209,2.8199,2.8203,2.8189,2.8189,2.8189,2.8189,2.8189,2.8189,2.8189,2.8189,2.8189,2.8189,2.8189,2.8189,2.8189,2.8189,2.8189,2.8189,2.8189,2.8189,2.8189,2.8189,2.8189,2.8189,2.8189,2.8189,2.8189,2.8189,2.8189,2.8189,2.8189,2.8189,2.8189,2.8189,2.8189,2.8189,2.8189,2.8189,2.8189,2.8189,2.8189,2.8189,2.8189,2.8189,2.8189,2.8189,2.8189,2.8189,2.8176,2.8136,2.781,2.7505,2.7232,2.6907,2.6617,2.6396,2.6396,2.6396,2.6396,2.6396,2.6396,2.6396,1.5204,1.5204,1.5204,1.5204,1.5204,1.5204,1.5204,1.5204,1.5204,1.5204,1.5204,1.5198,1.5194,1.52,1.4961,1.4356,1.43,1.4299,1.4299,1.4299,1.4299,1.4299,1.4299,1.4299,1.4299,1.4299,1.4299,1.4299,1.4299,1.4299,1.4299,1.4299,1.4299,1.4299,1.4303,1.4301,1.4306,1.4299,1.4298,1.4298,1.4298,1.4298,1.4298,1.4298,1.4299,1.5266,2.2567,2.5182,2.5189,2.5186,2.6531,2.8204,2.8208,2.8198,2.8203,2.8192,2.8189,2.8189,2.8189,2.8189,2.8189,2.8189,2.8189,2.8189,2.8189,2.8189,2.8189,2.8189,2.8189,2.8189,2.8189,2.8189,2.8189,2.8189,2.8189,2.8189,2.8189,2.8189,2.8189,2.8189,2.8189,2.8189,2.8189,2.8189,2.8189,2.8189,2.8189,2.8189,2.8189,2.8189,2.8189,2.8189,2.8189,2.8189,2.8189,2.8189,2.8189,2.8189,2.8189,2.8189,2.8189,2.8189,2.8058,2.7786,2.7502,2.7198,2.6884,2.66,2.6453,2.6396,2.6396,2.6396,2.6396,2.6396,2.6396,2.6396,1.5204,1.5204,1.5204,1.5204,1.5204,1.5204,1.5204,1.5204,1.5204,1.5204,1.5197,1.5198,1.5192,1.4945,1.464,1.4335,1.4305,1.4296,1.4296,1.4296,1.4296,1.4296,1.4296,1.4296,1.4296,1.4296,1.4296,1.4299,1.4299,1.4294,1.4294,1.4294,1.43,1.4296,1.4299,1.6773,2.0932,2.0929,2.0931,2.0931,2.0931,2.0931,2.0931,2.0931,2.0934,2.157,2.6449,2.8197,2.8198,2.8201,2.8198,2.8189,2.8189,2.8189,2.8189,2.8189,2.8189,2.8189,2.8189,2.8189,2.8189,2.8189,2.8189,2.8189,2.8189,2.8189,2.8189,2.8189,2.8189,2.8189,2.8189,2.8189,2.8189,2.8189,2.8189,2.8189,2.8189,2.8189,2.8189,2.8189,2.8189,2.8189,2.8189,2.8189,2.8189,2.8189,2.8189,2.8189,2.8189,2.8189,2.8189,2.8189,2.8189,2.8189,2.8189,2.8189,2.8189,2.8189,2.8189,2.8189,2.8189,2.8189,2.8018,2.7693,2.7419,2.7104,2.678,2.6507,2.6396,2.6396,2.6396,2.6396,2.6396,2.6396,2.6396,2.6396,1.5204,1.5204,1.5204,1.5204,1.5204,1.5204,1.5204,1.5204,1.5197,1.52,1.5194,1.516,1.5055,1.4604,1.4941,1.654,1.6679,1.6677,1.6677,1.6677,1.6677,1.6677,1.6677,1.6677,1.6677,1.6677,1.5902,1.43,1.43,1.4296,1.4331,1.5926,1.6675,1.6677,1.6674,2.0977,2.8192,2.8195,2.8193,2.8193,2.8193,2.8193,2.8193,2.8193,2.8208,2.8191,2.8191,2.8201,2.8189,2.8189,2.8189,2.8189,2.8189,2.8189,2.8189,2.8189,2.8189,2.8189,2.8189,2.8189,2.8189,2.8189,2.8189,2.8189,2.8189,2.8189,2.8189,2.8189,2.8189,2.8189,2.8189,2.8189,2.8189,2.8189,2.8189,2.8189,2.8189,2.8189,2.8189,2.8189,2.8189,2.8189,2.8189,2.8189,2.8189,2.8189,2.8189,2.8189,2.8189,2.8189,2.8189,2.8189,2.8189,2.8189,2.8189,2.8189,2.8189,2.8189,2.8189,2.8189,2.8189,2.8149,2.7941,2.7612,2.7342,2.7038,2.6714,2.6493,2.6396,2.6396,2.6396,2.6396,2.6396,2.6396,2.6396,2.6396,1.5204,1.5204,1.5204,1.5204,1.5204,1.5204,1.5204,1.5204,1.5205,1.5196,1.5204,1.5002,1.448,1.4356,1.7541,2.5619,2.6327,2.6325,2.6325,2.6325,2.6325,2.6325,2.6325,2.6325,2.6325,2.6325,2.2373,1.4303,1.4303,1.4306,1.4476,2.2545,2.6316,2.6324,2.6314,2.701,2.8195,2.8191,2.8209,2.8209,2.8209,2.8209,2.8209,2.8209,2.8206,2.82,2.82,2.8195,2.8189,2.8189,2.8189,2.8189,2.8189,2.8189,2.8189,2.8189,2.8189,2.8189,2.8189,2.8189,2.8189,2.8189,2.8189,2.8189,2.8189,2.8189,2.8189,2.8189,2.8189,2.8189,2.8189,2.8189,2.8189,2.8189,2.8189,2.8189,2.8189,2.8189,2.8189,2.8189,2.8189,2.8189,2.8189,2.8189,2.8189,2.8189,2.8189,2.8189,2.8189,2.8189,2.8189,2.8189,2.8189,2.8189,2.8189,2.8189,2.8189,2.8189,2.8189,2.8189,2.8189,2.7903,2.7623,2.7339,2.7014,2.671,2.645,2.641,2.6396,2.6396,2.6396,2.6396,2.6396,2.6396,2.6396,2.6396,1.5204,1.5204,1.5204,1.5204,1.5204,1.5204,1.5204,1.5197,1.5201,1.5204,1.9991,2.3077,2.2165,2.2057,2.3718,2.7844,2.8206,2.8204,2.8204,2.8204,2.8204,2.8204,2.8204,2.8204,2.8204,2.8204,2.6185,2.2065,2.2063,2.2062,2.2149,2.6273,2.8192,2.8191,2.8196,2.8199,2.8209,2.82,2.8189,2.8189,2.8189,2.8189,2.8189,2.8189,2.8189,2.8189,2.8189,2.8189,2.8189,2.8189,2.8189,2.8189,2.8189,2.8189,2.8189,2.8189,2.8189,2.8189,2.8189,2.8189,2.8189,2.8189,2.8189,2.8189,2.8189,2.8189,2.8189,2.8189,2.8189,2.8189,2.8189,2.8189,2.8189,2.8189,2.8189,2.8189,2.8189,2.8189,2.8189,2.8189,2.8189,2.8189,2.8189,2.8189,2.8189,2.8189,2.8189,2.8189,2.8189,2.8189,2.8189,2.8189,2.8189,2.8189,2.8189,2.8189,2.8189,2.8189,2.8189,2.8189,2.82,2.784,2.7546,2.7285,2.6947,2.6643,2.6396,2.6396,2.6396,2.6396,2.6396,2.6396,2.6396,2.6396,2.6396,2.6396]}]]